Darstellungsparameter: Aktuell verwendete Einstellungen:
Skalierung der Graphiken ... ?
xyx+y,   Skalierungsfaktor:      Skalierung: Modus: x, Faktor: 1
Darstellungszeitraum ... ?
Vom - - bis: - -   Zeitraum: 10.01.2018 - 09.04.2018
Min/Max/Avg-Anzeige ... ?
Zeige MMA aktuell
Zeige MMA Monat
Zeige MMA alles
Zeige --A aktuell
Zeige --A Monat
Zeige --A alles
Keine MMA-Anzeige
MMA:
Keine MMA-Graphiken
MMA-Basis: 10.01.2018 - 09.04.2018
Quicknavigation für Darstellung... ?
Tage:      1T, 2T, 3T, 5T -1T -2T -3T -5T +1T +2T +3T +5T
Wochen: 1W, 2W, 3W -1W -2W -3W +1W +2W +3W
Monate: 1M, 3M, 6M -1M -3M -6M +1M +3M +6M
Jahre:    1J, 3J, 5J, 10J -1J -3J -5J -10J +1J +3J +5J +10J
Nutze für die Darstellung ... ?
Originaldaten oder Mittelwerte auf ...
Stundenbasis Tagesbasis Wochenbasis
Monatsbasis Jahresbasis      Datenbasis: Original-Daten
Darstellen als:
Statistik (Auto) Statistik J:M      Darstellung:
Zur Graphik,    zurück zur Übersicht aller Sensoren.
 
Tabellarische Datenbersicht: ?
 
Sensor: Nr:Datum:Temp:Abs-Feuchte:Windchill:Wind:
Aussen-T/F 1 10-01-2018 00:00:00 6.1 C 6.94 g/m*3 6.1 C 1.6 km/h
2 10-01-2018 00:05:00 6.1 C 6.94 g/m*3 6.1 C 0 km/h
3 10-01-2018 00:10:00 6.2 C 6.99 g/m*3 6.2 C 0 km/h
4 10-01-2018 00:15:00 6.1 C 6.94 g/m*3 6.1 C 0 km/h
5 10-01-2018 00:20:00 6.1 C 6.94 g/m*3 6.1 C 0 km/h
6 10-01-2018 00:25:00 6.1 C 6.87 g/m*3 6.1 C 0 km/h
7 10-01-2018 00:30:00 6 C 6.9 g/m*3 6 C 0 km/h
8 10-01-2018 00:35:00 6 C 6.82 g/m*3 6 C 0 km/h
9 10-01-2018 00:40:00 6 C 6.9 g/m*3 6 C 0 km/h
10 10-01-2018 00:45:00 5.9 C 6.85 g/m*3 5.9 C 0 km/h
11 10-01-2018 00:50:00 5.9 C 6.85 g/m*3 5.9 C 0 km/h
12 10-01-2018 00:55:00 5.9 C 6.85 g/m*3 5.9 C 0 km/h
13 10-01-2018 01:00:00 5.8 C 6.81 g/m*3 5.8 C 0 km/h
14 10-01-2018 01:05:00 5.8 C 6.81 g/m*3 5.8 C 0 km/h
15 10-01-2018 01:10:00 5.8 C 6.81 g/m*3 5.8 C 3.2 km/h
16 10-01-2018 01:15:00 5.7 C 6.76 g/m*3 5.7 C 3.2 km/h
17 10-01-2018 01:20:00 5.7 C 6.76 g/m*3 5.7 C 3.2 km/h
18 10-01-2018 01:25:00 5.6 C 6.72 g/m*3 5.6 C 0 km/h
19 10-01-2018 01:30:00 5.5 C 6.67 g/m*3 5.5 C 0 km/h
20 10-01-2018 01:35:00 5.5 C 6.67 g/m*3 5.5 C 4.8 km/h
21 10-01-2018 01:40:00 5.6 C 6.72 g/m*3 5.6 C 3.2 km/h
22 10-01-2018 01:45:00 5.6 C 6.72 g/m*3 5.6 C 3.2 km/h
23 10-01-2018 01:50:00 5.7 C 6.83 g/m*3 5.7 C 1.6 km/h
24 10-01-2018 01:55:00 5.8 C 6.88 g/m*3 5.8 C 0 km/h
25 10-01-2018 02:00:00 5.8 C 6.88 g/m*3 5.8 C 0 km/h
Sensor: Nr:Datum:Temp:Abs-Feuchte:Windchill:Wind:
Aussen-T/F 26 10-01-2018 02:05:00 5.9 C 6.92 g/m*3 5.9 C 0 km/h
27 10-01-2018 02:10:00 5.9 C 6.92 g/m*3 5.9 C 0 km/h
28 10-01-2018 02:15:00 5.9 C 6.92 g/m*3 5.9 C 0 km/h
29 10-01-2018 02:20:00 6 C 6.97 g/m*3 6 C 0 km/h
30 10-01-2018 02:25:00 6 C 6.97 g/m*3 6 C 0 km/h
31 10-01-2018 02:30:00 6.1 C 7.01 g/m*3 6.1 C 0 km/h
32 10-01-2018 02:35:00 6.1 C 7.01 g/m*3 6.1 C 0 km/h
33 10-01-2018 02:40:00 6.1 C 7.01 g/m*3 6.1 C 0 km/h
34 10-01-2018 02:45:00 6.1 C 7.01 g/m*3 6.1 C 0 km/h
35 10-01-2018 02:50:00 6.2 C 7.06 g/m*3 6.2 C 0 km/h
36 10-01-2018 02:55:00 6.2 C 7.06 g/m*3 6.2 C 0 km/h
37 10-01-2018 03:00:00 6.2 C 7.06 g/m*3 6.2 C 0 km/h
38 10-01-2018 03:05:00 6.2 C 7.06 g/m*3 6.2 C 0 km/h
39 10-01-2018 03:10:00 6.3 C 7.11 g/m*3 6.3 C 0 km/h
40 10-01-2018 03:15:00 6.3 C 7.11 g/m*3 6.3 C 0 km/h
41 10-01-2018 03:20:00 6.3 C 7.11 g/m*3 6.3 C 0 km/h
42 10-01-2018 03:25:00 6.4 C 7.15 g/m*3 6.4 C 4.8 km/h
43 10-01-2018 03:30:00 6.5 C 7.2 g/m*3 6.5 C 4.8 km/h
44 10-01-2018 03:35:00 6.6 C 7.25 g/m*3 6.6 C 0 km/h
45 10-01-2018 03:40:00 6.6 C 7.25 g/m*3 6.6 C 0 km/h
46 10-01-2018 03:45:00 6.5 C 7.2 g/m*3 6.5 C 0 km/h
47 10-01-2018 03:50:00 6.5 C 7.2 g/m*3 6.5 C 0 km/h
48 10-01-2018 03:55:00 6.4 C 7.15 g/m*3 6.4 C 0 km/h
49 10-01-2018 04:00:00 6.4 C 7.15 g/m*3 6.4 C 0 km/h
50 10-01-2018 04:05:00 6.4 C 7.15 g/m*3 6.4 C 1.6 km/h
Sensor: Nr:Datum:Temp:Abs-Feuchte:Windchill:Wind:
Aussen-T/F 51 10-01-2018 04:10:00 6.4 C 7.15 g/m*3 6.4 C 0 km/h
52 10-01-2018 04:15:00 6.4 C 7.08 g/m*3 6.4 C 0 km/h
53 10-01-2018 04:20:00 6.3 C 7.03 g/m*3 6.3 C 0 km/h
54 10-01-2018 04:25:00 6.3 C 7.03 g/m*3 6.3 C 1.6 km/h
55 10-01-2018 04:30:00 6.3 C 7.03 g/m*3 6.3 C 1.6 km/h
56 10-01-2018 04:35:00 6.3 C 7.03 g/m*3 6.3 C 0 km/h
57 10-01-2018 04:40:00 6.4 C 7.08 g/m*3 6.4 C 0 km/h
58 10-01-2018 04:45:00 6.4 C 7.08 g/m*3 6.4 C 0 km/h
59 10-01-2018 04:50:00 6.4 C 7.15 g/m*3 6.4 C 0 km/h
60 10-01-2018 04:55:00 6.5 C 7.2 g/m*3 6.5 C 1.6 km/h
61 10-01-2018 05:00:00 6.6 C 7.17 g/m*3 6.6 C 1.6 km/h
62 10-01-2018 05:05:00 6.6 C 7.17 g/m*3 6.6 C 0 km/h
63 10-01-2018 05:10:00 6.6 C 7.17 g/m*3 6.6 C 0 km/h
64 10-01-2018 05:15:00 6.6 C 7.17 g/m*3 6.6 C 0 km/h
65 10-01-2018 05:20:00 6.6 C 7.17 g/m*3 6.6 C 1.6 km/h
66 10-01-2018 05:25:00 6.7 C 7.22 g/m*3 6.7 C 0 km/h
67 10-01-2018 05:30:00 6.7 C 7.22 g/m*3 6.7 C 0 km/h
68 10-01-2018 05:35:00 6.7 C 7.22 g/m*3 6.7 C 1.6 km/h
69 10-01-2018 05:40:00 6.7 C 7.22 g/m*3 6.7 C 0 km/h
70 10-01-2018 05:45:00 6.7 C 7.22 g/m*3 6.7 C 0 km/h
71 10-01-2018 05:50:00 6.7 C 7.22 g/m*3 6.7 C 0 km/h
72 10-01-2018 05:55:00 6.7 C 7.22 g/m*3 6.7 C 0 km/h
73 10-01-2018 06:00:00 6.7 C 7.22 g/m*3 6.7 C 0 km/h
74 10-01-2018 06:05:00 6.7 C 7.22 g/m*3 6.7 C 0 km/h
75 10-01-2018 06:10:00 6.7 C 7.22 g/m*3 6.7 C 0 km/h
Sensor: Nr:Datum:Temp:Abs-Feuchte:Windchill:Wind:
Aussen-T/F 76 10-01-2018 06:15:00 6.7 C 7.22 g/m*3 6.7 C 0 km/h
77 10-01-2018 06:20:00 6.7 C 7.22 g/m*3 6.7 C 0 km/h
78 10-01-2018 06:25:00 6.7 C 7.22 g/m*3 6.7 C 0 km/h
79 10-01-2018 06:30:00 6.7 C 7.22 g/m*3 6.7 C 0 km/h
80 10-01-2018 06:35:00 6.7 C 7.22 g/m*3 6.7 C 0 km/h
81 10-01-2018 06:40:00 6.7 C 7.22 g/m*3 6.7 C 0 km/h
82 10-01-2018 06:45:00 6.7 C 7.22 g/m*3 6.7 C 0 km/h
83 10-01-2018 06:50:00 6.7 C 7.22 g/m*3 6.7 C 1.6 km/h
84 10-01-2018 06:55:00 6.7 C 7.22 g/m*3 6.7 C 0 km/h
85 10-01-2018 07:00:00 6.7 C 7.22 g/m*3 6.7 C 0 km/h
86 10-01-2018 07:05:00 6.7 C 7.22 g/m*3 6.7 C 0 km/h
87 10-01-2018 07:10:00 6.7 C 7.22 g/m*3 6.7 C 0 km/h
88 10-01-2018 07:15:00 6.7 C 7.22 g/m*3 6.7 C 0 km/h
89 10-01-2018 07:20:00 6.7 C 7.14 g/m*3 6.7 C 0 km/h
90 10-01-2018 07:25:00 6.6 C 7.1 g/m*3 6.6 C 0 km/h
91 10-01-2018 07:30:00 6.6 C 7.1 g/m*3 6.6 C 1.6 km/h
92 10-01-2018 07:35:00 6.6 C 7.17 g/m*3 6.6 C 0 km/h
93 10-01-2018 07:40:00 6.6 C 7.17 g/m*3 6.6 C 0 km/h
94 10-01-2018 07:45:00 6.6 C 7.17 g/m*3 6.6 C 0 km/h
95 10-01-2018 07:50:00 6.6 C 7.17 g/m*3 6.6 C 0 km/h
96 10-01-2018 07:55:00 6.5 C 7.05 g/m*3 6.5 C 0 km/h
97 10-01-2018 08:00:00 6.4 C 7 g/m*3 6.4 C 0 km/h
98 10-01-2018 08:05:00 6.3 C 6.96 g/m*3 6.3 C 0 km/h
99 10-01-2018 08:10:00 6.3 C 6.96 g/m*3 6.3 C 1.6 km/h
100 10-01-2018 08:15:00 6.2 C 6.91 g/m*3 6.2 C 0 km/h
Sensor: Nr:Datum:Temp:Abs-Feuchte:Windchill:Wind:
Aussen-T/F 101 10-01-2018 08:20:00 6.2 C 6.91 g/m*3 6.2 C 3.2 km/h
102 10-01-2018 08:25:00 6.1 C 6.87 g/m*3 6.1 C 0 km/h
103 10-01-2018 08:30:00 6.1 C 6.87 g/m*3 6.1 C 1.6 km/h
104 10-01-2018 08:35:00 6.1 C 6.94 g/m*3 6.1 C 1.6 km/h
105 10-01-2018 08:40:00 6.1 C 6.94 g/m*3 6.1 C 1.6 km/h
106 10-01-2018 08:45:00 6.1 C 6.87 g/m*3 6.1 C 1.6 km/h
107 10-01-2018 08:50:00 5.9 C 6.78 g/m*3 5.9 C 1.6 km/h
108 10-01-2018 08:55:00 5.9 C 6.78 g/m*3 5.9 C 1.6 km/h
109 10-01-2018 09:00:00 5.8 C 6.73 g/m*3 5.8 C 0 km/h
110 10-01-2018 09:05:00 5.7 C 6.69 g/m*3 5.7 C 3.2 km/h
111 10-01-2018 09:10:00 5.6 C 6.65 g/m*3 5.6 C 3.2 km/h
112 10-01-2018 09:15:00 5.5 C 6.67 g/m*3 5.5 C 3.2 km/h
113 10-01-2018 09:20:00 5.4 C 6.56 g/m*3 5.4 C 3.2 km/h
114 10-01-2018 09:25:00 5.3 C 6.58 g/m*3 5.3 C 1.6 km/h
115 10-01-2018 09:30:00 5.3 C 6.58 g/m*3 5.3 C 0 km/h
116 10-01-2018 09:35:00 5.4 C 6.63 g/m*3 5.4 C 3.2 km/h
117 10-01-2018 09:40:00 5.5 C 6.67 g/m*3 5.5 C 1.6 km/h
118 10-01-2018 09:45:00 5.6 C 6.72 g/m*3 5.6 C 0 km/h
119 10-01-2018 09:50:00 5.7 C 6.83 g/m*3 5.7 C 0 km/h
120 10-01-2018 09:55:00 5.8 C 6.88 g/m*3 5.8 C 0 km/h
121 10-01-2018 10:00:00 5.9 C 6.92 g/m*3 5.9 C 3.2 km/h
122 10-01-2018 10:05:00 6 C 6.97 g/m*3 6 C 1.6 km/h
123 10-01-2018 10:10:00 6 C 6.97 g/m*3 6 C 0 km/h
124 10-01-2018 10:15:00 6.1 C 6.94 g/m*3 6.1 C 4.8 km/h
125 10-01-2018 10:20:00 6.1 C 7.01 g/m*3 6.1 C 3.2 km/h
Sensor: Nr:Datum:Temp:Abs-Feuchte:Windchill:Wind:
Aussen-T/F 126 10-01-2018 10:25:00 6.2 C 7.06 g/m*3 6.2 C 3.2 km/h
127 10-01-2018 10:30:00 6.2 C 6.99 g/m*3 6.2 C 3.2 km/h
128 10-01-2018 10:35:00 6.2 C 6.99 g/m*3 6.2 C 0 km/h
129 10-01-2018 10:40:00 6.2 C 6.99 g/m*3 6.2 C 0 km/h
130 10-01-2018 10:45:00 6.3 C 7.11 g/m*3 6.3 C 0 km/h
131 10-01-2018 10:50:00 6.4 C 7.15 g/m*3 6.4 C 1.6 km/h
132 10-01-2018 10:55:00 6.6 C 7.25 g/m*3 6.6 C 0 km/h
133 10-01-2018 11:00:00 6.8 C 7.27 g/m*3 6.8 C 1.6 km/h
134 10-01-2018 11:05:00 6.9 C 7.31 g/m*3 6.9 C 1.6 km/h
135 10-01-2018 11:10:00 7.1 C 7.41 g/m*3 7.1 C 4.8 km/h
136 10-01-2018 11:15:00 7.3 C 7.43 g/m*3 7.3 C 1.6 km/h
137 10-01-2018 11:20:00 7.5 C 7.44 g/m*3 6.48 C 6.4 km/h
138 10-01-2018 11:25:00 7.8 C 7.51 g/m*3 6.83 C 6.4 km/h
139 10-01-2018 11:30:00 8 C 7.44 g/m*3 8 C 1.6 km/h
140 10-01-2018 11:35:00 8.2 C 7.37 g/m*3 6.87 C 8.1 km/h
141 10-01-2018 11:40:00 8.4 C 7.38 g/m*3 7.11 C 8.1 km/h
142 10-01-2018 11:45:00 8.5 C 7.34 g/m*3 8.5 C 4.8 km/h
143 10-01-2018 11:50:00 8.6 C 7.39 g/m*3 8.6 C 3.2 km/h
144 10-01-2018 11:55:00 8.7 C 7.35 g/m*3 8.7 C 0 km/h
145 10-01-2018 12:00:00 8.7 C 7.26 g/m*3 8.7 C 0 km/h
146 10-01-2018 12:05:00 8.8 C 7.31 g/m*3 8.8 C 1.6 km/h
147 10-01-2018 12:10:00 8.9 C 7.36 g/m*3 8.9 C 1.6 km/h
148 10-01-2018 12:15:00 9 C 7.41 g/m*3 9 C 3.2 km/h
149 10-01-2018 12:20:00 9.1 C 7.45 g/m*3 9.1 C 3.2 km/h
150 10-01-2018 12:25:00 9.2 C 7.5 g/m*3 9.2 C 0 km/h
Sensor: Nr:Datum:Temp:Abs-Feuchte:Windchill:Wind:
Aussen-T/F 151 10-01-2018 12:30:00 9.3 C 7.46 g/m*3 9.3 C 0 km/h
152 10-01-2018 12:35:00 9.4 C 7.42 g/m*3 9.4 C 0 km/h
153 10-01-2018 12:40:00 9.6 C 7.51 g/m*3 9.6 C 4.8 km/h
154 10-01-2018 12:45:00 9.7 C 7.47 g/m*3 9.02 C 6.4 km/h
155 10-01-2018 12:50:00 9.8 C 7.42 g/m*3 9.8 C 1.6 km/h
156 10-01-2018 12:55:00 9.9 C 7.47 g/m*3 9.9 C 1.6 km/h
157 10-01-2018 13:00:00 10 C 7.42 g/m*3 10 C 3.2 km/h
158 10-01-2018 13:05:00 10.1 C 7.38 g/m*3 9.48 C 6.4 km/h
159 10-01-2018 13:10:00 10.2 C 7.42 g/m*3 10.2 C 1.6 km/h
160 10-01-2018 13:15:00 10.3 C 7.37 g/m*3 10.3 C 4.8 km/h
161 10-01-2018 13:20:00 10.3 C 7.37 g/m*3 9.04 C 9.7 km/h
162 10-01-2018 13:25:00 10.2 C 7.33 g/m*3 8.66 C 11.3 km/h
163 10-01-2018 13:30:00 10.1 C 7.28 g/m*3 8.8 C 9.7 km/h
164 10-01-2018 13:35:00 9.9 C 7.28 g/m*3 8.06 C 12.9 km/h
165 10-01-2018 13:40:00 9.8 C 7.33 g/m*3 9.8 C 3.2 km/h
166 10-01-2018 13:45:00 9.7 C 7.28 g/m*3 9.7 C 4.8 km/h
167 10-01-2018 13:50:00 9.6 C 7.24 g/m*3 9.6 C 1.6 km/h
168 10-01-2018 13:55:00 9.6 C 7.33 g/m*3 8.52 C 8.1 km/h
169 10-01-2018 14:00:00 9.5 C 7.28 g/m*3 9.5 C 3.2 km/h
170 10-01-2018 14:05:00 9.5 C 7.37 g/m*3 9.5 C 0 km/h
171 10-01-2018 14:10:00 9.4 C 7.33 g/m*3 9.4 C 3.2 km/h
172 10-01-2018 14:15:00 9.3 C 7.37 g/m*3 9.3 C 0 km/h
173 10-01-2018 14:20:00 9.2 C 7.32 g/m*3 9.2 C 1.6 km/h
174 10-01-2018 14:25:00 9 C 7.32 g/m*3 9 C 0 km/h
175 10-01-2018 14:30:00 8.8 C 7.31 g/m*3 8.8 C 0 km/h
Sensor: Nr:Datum:Temp:Abs-Feuchte:Windchill:Wind:
Aussen-T/F 176 10-01-2018 14:35:00 8.7 C 7.26 g/m*3 8.7 C 0 km/h
177 10-01-2018 14:40:00 8.5 C 7.26 g/m*3 8.5 C 1.6 km/h
178 10-01-2018 14:45:00 8.3 C 7.25 g/m*3 8.3 C 0 km/h
179 10-01-2018 14:50:00 8.2 C 7.29 g/m*3 8.2 C 0 km/h
180 10-01-2018 14:55:00 8.1 C 7.24 g/m*3 8.1 C 0 km/h
181 10-01-2018 15:00:00 8 C 7.19 g/m*3 8 C 0 km/h
182 10-01-2018 15:05:00 7.9 C 7.23 g/m*3 7.9 C 4.8 km/h
183 10-01-2018 15:10:00 7.8 C 7.18 g/m*3 7.8 C 3.2 km/h
184 10-01-2018 15:15:00 7.8 C 7.18 g/m*3 7.8 C 3.2 km/h
185 10-01-2018 15:20:00 7.7 C 7.14 g/m*3 7.7 C 1.6 km/h
186 10-01-2018 15:25:00 7.7 C 7.14 g/m*3 7.7 C 3.2 km/h
187 10-01-2018 15:30:00 7.6 C 7.09 g/m*3 7.6 C 3.2 km/h
188 10-01-2018 15:35:00 7.6 C 7.17 g/m*3 7.6 C 3.2 km/h
189 10-01-2018 15:40:00 7.5 C 7.12 g/m*3 7.5 C 4.8 km/h
190 10-01-2018 15:45:00 7.4 C 7 g/m*3 7.4 C 3.2 km/h
191 10-01-2018 15:50:00 7.3 C 7.03 g/m*3 7.3 C 4.8 km/h
192 10-01-2018 15:55:00 7.2 C 6.99 g/m*3 7.2 C 3.2 km/h
193 10-01-2018 16:00:00 7.1 C 6.94 g/m*3 7.1 C 4.8 km/h
194 10-01-2018 16:05:00 7 C 6.97 g/m*3 5.9 C 6.4 km/h
195 10-01-2018 16:10:00 6.9 C 6.85 g/m*3 6.9 C 4.8 km/h
196 10-01-2018 16:15:00 6.8 C 6.88 g/m*3 6.8 C 4.8 km/h
197 10-01-2018 16:20:00 6.8 C 6.88 g/m*3 6.8 C 4.8 km/h
198 10-01-2018 16:25:00 6.7 C 6.84 g/m*3 6.7 C 3.2 km/h
199 10-01-2018 16:30:00 6.6 C 6.79 g/m*3 6.6 C 4.8 km/h
200 10-01-2018 16:35:00 6.6 C 6.87 g/m*3 6.6 C 3.2 km/h
Sensor: Nr:Datum:Temp:Abs-Feuchte:Windchill:Wind:
Aussen-T/F 201 10-01-2018 16:40:00 6.6 C 6.87 g/m*3 6.6 C 3.2 km/h
202 10-01-2018 16:45:00 6.6 C 6.87 g/m*3 6.6 C 4.8 km/h
203 10-01-2018 16:50:00 6.6 C 6.95 g/m*3 6.6 C 4.8 km/h
204 10-01-2018 16:55:00 6.6 C 6.95 g/m*3 6.6 C 4.8 km/h
205 10-01-2018 17:00:00 6.6 C 6.95 g/m*3 6.6 C 4.8 km/h
206 10-01-2018 17:05:00 6.6 C 6.95 g/m*3 6.6 C 4.8 km/h
207 10-01-2018 17:10:00 6.6 C 6.95 g/m*3 6.6 C 4.8 km/h
208 10-01-2018 17:15:00 6.7 C 6.99 g/m*3 6.7 C 3.2 km/h
209 10-01-2018 17:20:00 6.7 C 6.99 g/m*3 6.7 C 3.2 km/h
210 10-01-2018 17:25:00 6.7 C 6.99 g/m*3 6.7 C 3.2 km/h
211 10-01-2018 17:30:00 6.7 C 6.99 g/m*3 6.7 C 3.2 km/h
212 10-01-2018 17:35:00 6.7 C 6.99 g/m*3 6.7 C 1.6 km/h
213 10-01-2018 17:40:00 6.8 C 7.04 g/m*3 6.8 C 0 km/h
214 10-01-2018 17:45:00 6.8 C 7.04 g/m*3 6.8 C 0 km/h
215 10-01-2018 17:50:00 6.8 C 7.04 g/m*3 6.8 C 0 km/h
216 10-01-2018 17:55:00 6.8 C 7.04 g/m*3 6.8 C 0 km/h
217 10-01-2018 18:00:00 6.8 C 7.11 g/m*3 6.8 C 3.2 km/h
218 10-01-2018 18:05:00 6.9 C 7.08 g/m*3 6.9 C 3.2 km/h
219 10-01-2018 18:10:00 6.9 C 7.08 g/m*3 6.9 C 1.6 km/h
220 10-01-2018 18:15:00 6.9 C 7.08 g/m*3 6.9 C 1.6 km/h
221 10-01-2018 18:20:00 7 C 7.13 g/m*3 7 C 1.6 km/h
222 10-01-2018 18:25:00 7.1 C 7.18 g/m*3 7.1 C 3.2 km/h
223 10-01-2018 18:30:00 7.1 C 7.25 g/m*3 7.1 C 3.2 km/h
224 10-01-2018 18:35:00 7.1 C 7.25 g/m*3 7.1 C 1.6 km/h
225 10-01-2018 18:40:00 7.1 C 7.25 g/m*3 7.1 C 1.6 km/h
Sensor: Nr:Datum:Temp:Abs-Feuchte:Windchill:Wind:
Aussen-T/F 226 10-01-2018 18:45:00 7.2 C 7.22 g/m*3 7.2 C 1.6 km/h
227 10-01-2018 18:50:00 7.2 C 7.22 g/m*3 7.2 C 3.2 km/h
228 10-01-2018 18:55:00 7.2 C 7.22 g/m*3 7.2 C 0 km/h
229 10-01-2018 19:00:00 7.2 C 7.22 g/m*3 7.2 C 0 km/h
230 10-01-2018 19:05:00 7.2 C 7.22 g/m*3 7.2 C 0 km/h
231 10-01-2018 19:10:00 7.2 C 7.22 g/m*3 7.2 C 0 km/h
232 10-01-2018 19:15:00 7.2 C 7.22 g/m*3 7.2 C 0 km/h
233 10-01-2018 19:20:00 7.2 C 7.22 g/m*3 7.2 C 0 km/h
234 10-01-2018 19:25:00 7.2 C 7.22 g/m*3 7.2 C 0 km/h
235 10-01-2018 19:30:00 7.2 C 7.14 g/m*3 7.2 C 0 km/h
236 10-01-2018 19:35:00 7.2 C 7.14 g/m*3 7.2 C 0 km/h
237 10-01-2018 19:40:00 7.2 C 7.14 g/m*3 7.2 C 0 km/h
238 10-01-2018 19:45:00 7.2 C 7.22 g/m*3 7.2 C 0 km/h
239 10-01-2018 19:50:00 7.2 C 7.22 g/m*3 7.2 C 0 km/h
240 10-01-2018 19:55:00 7.2 C 7.22 g/m*3 7.2 C 0 km/h
241 10-01-2018 20:00:00 7.2 C 7.22 g/m*3 7.2 C 0 km/h
242 10-01-2018 20:05:00 7.2 C 7.22 g/m*3 7.2 C 1.6 km/h
243 10-01-2018 20:10:00 7.2 C 7.3 g/m*3 7.2 C 0 km/h
244 10-01-2018 20:15:00 7.1 C 7.25 g/m*3 7.1 C 1.6 km/h
245 10-01-2018 20:20:00 7.1 C 7.25 g/m*3 7.1 C 1.6 km/h
246 10-01-2018 20:25:00 7 C 7.21 g/m*3 7 C 1.6 km/h
247 10-01-2018 20:30:00 7 C 7.28 g/m*3 7 C 0 km/h
248 10-01-2018 20:35:00 6.9 C 7.24 g/m*3 6.9 C 0 km/h
249 10-01-2018 20:40:00 6.9 C 7.24 g/m*3 6.9 C 0 km/h
250 10-01-2018 20:45:00 6.9 C 7.24 g/m*3 6.9 C 0 km/h
Sensor: Nr:Datum:Temp:Abs-Feuchte:Windchill:Wind:
Aussen-T/F 251 10-01-2018 20:50:00 6.8 C 7.19 g/m*3 6.8 C 0 km/h
252 10-01-2018 20:55:00 6.8 C 7.19 g/m*3 6.8 C 0 km/h
253 10-01-2018 21:00:00 6.8 C 7.27 g/m*3 6.8 C 0 km/h
254 10-01-2018 21:05:00 6.8 C 7.19 g/m*3 6.8 C 0 km/h
255 10-01-2018 21:10:00 6.8 C 7.27 g/m*3 6.8 C 0 km/h
256 10-01-2018 21:15:00 6.8 C 7.27 g/m*3 6.8 C 0 km/h
257 10-01-2018 21:20:00 6.8 C 7.27 g/m*3 6.8 C 0 km/h
258 10-01-2018 21:25:00 6.8 C 7.27 g/m*3 6.8 C 0 km/h
259 10-01-2018 21:30:00 6.8 C 7.27 g/m*3 6.8 C 0 km/h
260 10-01-2018 21:35:00 6.8 C 7.27 g/m*3 6.8 C 1.6 km/h
261 10-01-2018 21:40:00 6.8 C 7.27 g/m*3 6.8 C 0 km/h
262 10-01-2018 21:45:00 6.8 C 7.27 g/m*3 6.8 C 0 km/h
263 10-01-2018 21:50:00 6.8 C 7.27 g/m*3 6.8 C 0 km/h
264 10-01-2018 21:55:00 6.8 C 7.27 g/m*3 6.8 C 1.6 km/h
265 10-01-2018 22:00:00 6.8 C 7.27 g/m*3 6.8 C 1.6 km/h
266 10-01-2018 22:05:00 6.8 C 7.27 g/m*3 6.8 C 0 km/h
267 10-01-2018 22:10:00 6.8 C 7.27 g/m*3 6.8 C 0 km/h
268 10-01-2018 22:15:00 6.7 C 7.29 g/m*3 6.7 C 0 km/h
269 10-01-2018 22:20:00 6.7 C 7.29 g/m*3 6.7 C 0 km/h
270 10-01-2018 22:25:00 6.7 C 7.29 g/m*3 6.7 C 0 km/h
271 10-01-2018 22:30:00 6.7 C 7.29 g/m*3 6.7 C 0 km/h
272 10-01-2018 22:35:00 6.7 C 7.29 g/m*3 6.7 C 0 km/h
273 10-01-2018 22:40:00 6.7 C 7.29 g/m*3 6.7 C 0 km/h
274 10-01-2018 22:45:00 6.7 C 7.29 g/m*3 6.7 C 0 km/h
275 10-01-2018 22:50:00 6.7 C 7.29 g/m*3 6.7 C 0 km/h
Sensor: Nr:Datum:Temp:Abs-Feuchte:Windchill:Wind:
Aussen-T/F 276 10-01-2018 22:55:00 6.7 C 7.29 g/m*3 6.7 C 0 km/h
277 10-01-2018 23:00:00 6.7 C 7.29 g/m*3 6.7 C 0 km/h
278 10-01-2018 23:05:00 6.7 C 7.29 g/m*3 6.7 C 0 km/h
279 10-01-2018 23:10:00 6.7 C 7.29 g/m*3 6.7 C 0 km/h
280 10-01-2018 23:15:00 6.7 C 7.29 g/m*3 6.7 C 0 km/h
281 10-01-2018 23:20:00 6.7 C 7.29 g/m*3 6.7 C 0 km/h
282 10-01-2018 23:25:00 6.7 C 7.29 g/m*3 6.7 C 0 km/h
283 10-01-2018 23:30:00 6.7 C 7.29 g/m*3 6.7 C 0 km/h
284 10-01-2018 23:35:00 6.7 C 7.29 g/m*3 6.7 C 0 km/h
285 10-01-2018 23:40:00 6.7 C 7.29 g/m*3 6.7 C 0 km/h
286 10-01-2018 23:45:00 6.6 C 7.25 g/m*3 6.6 C 0 km/h
287 10-01-2018 23:50:00 6.6 C 7.25 g/m*3 6.6 C 0 km/h
288 10-01-2018 23:55:00 6.6 C 7.25 g/m*3 6.6 C 0 km/h
289 11-01-2018 00:00:00 6.6 C 7.25 g/m*3 6.6 C 0 km/h
290 11-01-2018 00:05:00 6.6 C 7.25 g/m*3 6.6 C 0 km/h
291 11-01-2018 00:10:00 6.6 C 7.25 g/m*3 6.6 C 0 km/h
292 11-01-2018 00:15:00 6.6 C 7.25 g/m*3 6.6 C 0 km/h
293 11-01-2018 00:20:00 6.6 C 7.25 g/m*3 6.6 C 0 km/h
294 11-01-2018 00:25:00 6.6 C 7.25 g/m*3 6.6 C 0 km/h
295 11-01-2018 00:30:00 6.6 C 7.25 g/m*3 6.6 C 0 km/h
296 11-01-2018 00:35:00 6.6 C 7.25 g/m*3 6.6 C 0 km/h
297 11-01-2018 00:40:00 6.6 C 7.25 g/m*3 6.6 C 1.6 km/h
298 11-01-2018 00:45:00 6.6 C 7.25 g/m*3 6.6 C 0 km/h
299 11-01-2018 00:50:00 6.6 C 7.25 g/m*3 6.6 C 0 km/h
300 11-01-2018 00:55:00 6.6 C 7.25 g/m*3 6.6 C 0 km/h
Sensor: Nr:Datum:Temp:Abs-Feuchte:Windchill:Wind:
Aussen-T/F 301 11-01-2018 01:00:00 6.6 C 7.25 g/m*3 6.6 C 1.6 km/h
302 11-01-2018 01:05:00 6.6 C 7.25 g/m*3 6.6 C 0 km/h
303 11-01-2018 01:10:00 6.6 C 7.25 g/m*3 6.6 C 0 km/h
304 11-01-2018 01:15:00 6.6 C 7.25 g/m*3 6.6 C 1.6 km/h
305 11-01-2018 01:20:00 6.6 C 7.25 g/m*3 6.6 C 3.2 km/h
306 11-01-2018 01:25:00 6.6 C 7.25 g/m*3 6.6 C 1.6 km/h
307 11-01-2018 01:30:00 6.6 C 7.25 g/m*3 6.6 C 0 km/h
308 11-01-2018 01:35:00 6.7 C 7.29 g/m*3 6.7 C 0 km/h
309 11-01-2018 01:40:00 6.6 C 7.25 g/m*3 6.6 C 0 km/h
310 11-01-2018 01:45:00 6.6 C 7.25 g/m*3 6.6 C 0 km/h
311 11-01-2018 01:50:00 6.6 C 7.25 g/m*3 6.6 C 0 km/h
312 11-01-2018 01:55:00 6.6 C 7.25 g/m*3 6.6 C 0 km/h
313 11-01-2018 02:00:00 6.6 C 7.25 g/m*3 6.6 C 0 km/h
314 11-01-2018 02:05:00 6.6 C 7.25 g/m*3 6.6 C 0 km/h
315 11-01-2018 02:10:00 6.6 C 7.25 g/m*3 6.6 C 0 km/h
316 11-01-2018 02:15:00 6.5 C 7.2 g/m*3 6.5 C 0 km/h
317 11-01-2018 02:20:00 6.5 C 7.2 g/m*3 6.5 C 0 km/h
318 11-01-2018 02:25:00 6.5 C 7.2 g/m*3 6.5 C 0 km/h
319 11-01-2018 02:30:00 6.4 C 7.15 g/m*3 6.4 C 0 km/h
320 11-01-2018 02:35:00 6.4 C 7.15 g/m*3 6.4 C 0 km/h
321 11-01-2018 02:40:00 6.4 C 7.15 g/m*3 6.4 C 0 km/h
322 11-01-2018 02:45:00 6.4 C 7.15 g/m*3 6.4 C 0 km/h
323 11-01-2018 02:50:00 6.4 C 7.15 g/m*3 6.4 C 0 km/h
324 11-01-2018 02:55:00 6.4 C 7.15 g/m*3 6.4 C 0 km/h
325 11-01-2018 03:00:00 6.4 C 7.15 g/m*3 6.4 C 0 km/h
Sensor: Nr:Datum:Temp:Abs-Feuchte:Windchill:Wind:
Aussen-T/F 326 11-01-2018 03:05:00 6.3 C 7.11 g/m*3 6.3 C 0 km/h
327 11-01-2018 03:10:00 6.3 C 7.11 g/m*3 6.3 C 0 km/h
328 11-01-2018 03:15:00 6.3 C 7.11 g/m*3 6.3 C 0 km/h
329 11-01-2018 03:20:00 6.3 C 7.11 g/m*3 6.3 C 0 km/h
330 11-01-2018 03:25:00 6.3 C 7.11 g/m*3 6.3 C 0 km/h
331 11-01-2018 03:30:00 6.3 C 7.11 g/m*3 6.3 C 0 km/h
332 11-01-2018 03:35:00 6.3 C 7.11 g/m*3 6.3 C 0 km/h
333 11-01-2018 03:40:00 6.4 C 7.15 g/m*3 6.4 C 0 km/h
334 11-01-2018 03:45:00 6.4 C 7.15 g/m*3 6.4 C 0 km/h
335 11-01-2018 03:50:00 6.4 C 7.15 g/m*3 6.4 C 0 km/h
336 11-01-2018 03:55:00 6.4 C 7.15 g/m*3 6.4 C 0 km/h
337 11-01-2018 04:00:00 6.4 C 7.15 g/m*3 6.4 C 0 km/h
338 11-01-2018 04:05:00 6.4 C 7.15 g/m*3 6.4 C 0 km/h
339 11-01-2018 04:10:00 6.4 C 7.15 g/m*3 6.4 C 0 km/h
340 11-01-2018 04:15:00 6.4 C 7.15 g/m*3 6.4 C 0 km/h
341 11-01-2018 04:20:00 6.4 C 7.15 g/m*3 6.4 C 0 km/h
342 11-01-2018 04:25:00 6.4 C 7.15 g/m*3 6.4 C 0 km/h
343 11-01-2018 04:30:00 6.4 C 7.15 g/m*3 6.4 C 0 km/h
344 11-01-2018 04:35:00 6.4 C 7.15 g/m*3 6.4 C 0 km/h
345 11-01-2018 04:40:00 6.4 C 7.15 g/m*3 6.4 C 0 km/h
346 11-01-2018 04:45:00 6.4 C 7.15 g/m*3 6.4 C 0 km/h
347 11-01-2018 04:50:00 6.3 C 7.11 g/m*3 6.3 C 0 km/h
348 11-01-2018 04:55:00 6.3 C 7.11 g/m*3 6.3 C 0 km/h
349 11-01-2018 05:00:00 6.3 C 7.11 g/m*3 6.3 C 0 km/h
350 11-01-2018 05:05:00 6.2 C 7.06 g/m*3 6.2 C 0 km/h
Sensor: Nr:Datum:Temp:Abs-Feuchte:Windchill:Wind:
Aussen-T/F 351 11-01-2018 05:10:00 6.2 C 7.06 g/m*3 6.2 C 0 km/h
352 11-01-2018 05:15:00 6.2 C 7.06 g/m*3 6.2 C 0 km/h
353 11-01-2018 05:20:00 6.2 C 7.06 g/m*3 6.2 C 0 km/h
354 11-01-2018 05:25:00 6.2 C 7.06 g/m*3 6.2 C 0 km/h
355 11-01-2018 05:30:00 6.3 C 7.11 g/m*3 6.3 C 0 km/h
356 11-01-2018 05:35:00 6.3 C 7.11 g/m*3 6.3 C 0 km/h
357 11-01-2018 05:40:00 6.3 C 7.11 g/m*3 6.3 C 0 km/h
358 11-01-2018 05:45:00 6.3 C 7.11 g/m*3 6.3 C 0 km/h
359 11-01-2018 05:50:00 6.3 C 7.11 g/m*3 6.3 C 0 km/h
360 11-01-2018 05:55:00 6.3 C 7.11 g/m*3 6.3 C 0 km/h
361 11-01-2018 06:00:00 6.3 C 7.11 g/m*3 6.3 C 0 km/h
362 11-01-2018 06:05:00 6.3 C 7.11 g/m*3 6.3 C 0 km/h
363 11-01-2018 06:10:00 6.3 C 7.11 g/m*3 6.3 C 0 km/h
364 11-01-2018 06:15:00 6.3 C 7.11 g/m*3 6.3 C 0 km/h
365 11-01-2018 06:20:00 6.3 C 7.11 g/m*3 6.3 C 0 km/h
366 11-01-2018 06:25:00 6.3 C 7.11 g/m*3 6.3 C 0 km/h
367 11-01-2018 06:30:00 6.3 C 7.11 g/m*3 6.3 C 0 km/h
368 11-01-2018 06:35:00 6.3 C 7.11 g/m*3 6.3 C 0 km/h
369 11-01-2018 06:40:00 6.3 C 7.11 g/m*3 6.3 C 0 km/h
370 11-01-2018 06:45:00 6.3 C 7.11 g/m*3 6.3 C 0 km/h
371 11-01-2018 06:50:00 6.3 C 7.11 g/m*3 6.3 C 0 km/h
372 11-01-2018 06:55:00 6.3 C 7.11 g/m*3 6.3 C 0 km/h
373 11-01-2018 07:00:00 6.3 C 7.11 g/m*3 6.3 C 0 km/h
374 11-01-2018 07:05:00 6.3 C 7.11 g/m*3 6.3 C 0 km/h
375 11-01-2018 07:10:00 6.3 C 7.11 g/m*3 6.3 C 0 km/h
Sensor: Nr:Datum:Temp:Abs-Feuchte:Windchill:Wind:
Aussen-T/F 376 11-01-2018 07:15:00 6.2 C 7.06 g/m*3 6.2 C 0 km/h
377 11-01-2018 07:20:00 6.3 C 7.11 g/m*3 6.3 C 0 km/h
378 11-01-2018 07:25:00 6.3 C 7.11 g/m*3 6.3 C 0 km/h
379 11-01-2018 07:30:00 6.3 C 7.11 g/m*3 6.3 C 0 km/h
380 11-01-2018 07:35:00 6.3 C 7.11 g/m*3 6.3 C 0 km/h
381 11-01-2018 07:40:00 6.2 C 7.06 g/m*3 6.2 C 0 km/h
382 11-01-2018 07:45:00 6.2 C 7.06 g/m*3 6.2 C 0 km/h
383 11-01-2018 07:50:00 6.2 C 7.06 g/m*3 6.2 C 0 km/h
384 11-01-2018 07:55:00 6.2 C 7.06 g/m*3 6.2 C 0 km/h
385 11-01-2018 08:00:00 6.2 C 7.06 g/m*3 6.2 C 0 km/h
386 11-01-2018 08:05:00 6.3 C 7.11 g/m*3 6.3 C 0 km/h
387 11-01-2018 08:10:00 6.3 C 7.11 g/m*3 6.3 C 0 km/h
388 11-01-2018 08:15:00 6.3 C 7.11 g/m*3 6.3 C 0 km/h
389 11-01-2018 08:20:00 6.3 C 7.11 g/m*3 6.3 C 0 km/h
390 11-01-2018 08:25:00 6.3 C 7.11 g/m*3 6.3 C 0 km/h
391 11-01-2018 08:30:00 6.2 C 7.06 g/m*3 6.2 C 0 km/h
392 11-01-2018 08:35:00 6.2 C 7.06 g/m*3 6.2 C 0 km/h
393 11-01-2018 08:40:00 6.3 C 7.11 g/m*3 6.3 C 0 km/h
394 11-01-2018 08:45:00 6.3 C 7.11 g/m*3 6.3 C 0 km/h
395 11-01-2018 08:50:00 6.3 C 7.11 g/m*3 6.3 C 0 km/h
396 11-01-2018 08:55:00 6.3 C 7.11 g/m*3 6.3 C 0 km/h
397 11-01-2018 09:00:00 6.3 C 7.11 g/m*3 6.3 C 0 km/h
398 11-01-2018 09:05:00 6.3 C 7.18 g/m*3 6.3 C 0 km/h
399 11-01-2018 09:10:00 6.4 C 7.23 g/m*3 6.4 C 0 km/h
400 11-01-2018 09:15:00 6.4 C 7.23 g/m*3 6.4 C 0 km/h
Sensor: Nr:Datum:Temp:Abs-Feuchte:Windchill:Wind:
Aussen-T/F 401 11-01-2018 09:20:00 6.5 C 7.27 g/m*3 6.5 C 0 km/h
402 11-01-2018 09:25:00 6.6 C 7.32 g/m*3 6.6 C 0 km/h
403 11-01-2018 09:30:00 6.6 C 7.32 g/m*3 6.6 C 0 km/h
404 11-01-2018 09:35:00 6.6 C 7.32 g/m*3 6.6 C 0 km/h
405 11-01-2018 09:40:00 6.6 C 7.32 g/m*3 6.6 C 0 km/h
406 11-01-2018 09:45:00 6.6 C 7.32 g/m*3 6.6 C 0 km/h
407 11-01-2018 09:50:00 6.7 C 7.37 g/m*3 6.7 C 0 km/h
408 11-01-2018 09:55:00 6.7 C 7.37 g/m*3 6.7 C 0 km/h
409 11-01-2018 10:00:00 6.7 C 7.37 g/m*3 6.7 C 0 km/h
410 11-01-2018 10:05:00 6.8 C 7.42 g/m*3 6.8 C 0 km/h
411 11-01-2018 10:10:00 6.8 C 7.42 g/m*3 6.8 C 0 km/h
412 11-01-2018 10:15:00 6.8 C 7.42 g/m*3 6.8 C 0 km/h
413 11-01-2018 10:20:00 6.9 C 7.47 g/m*3 6.9 C 0 km/h
414 11-01-2018 10:25:00 6.9 C 7.47 g/m*3 6.9 C 0 km/h
415 11-01-2018 10:30:00 6.9 C 7.47 g/m*3 6.9 C 0 km/h
416 11-01-2018 10:35:00 6.9 C 7.47 g/m*3 6.9 C 0 km/h
417 11-01-2018 10:40:00 6.9 C 7.47 g/m*3 6.9 C 0 km/h
418 11-01-2018 10:45:00 6.9 C 7.39 g/m*3 6.9 C 0 km/h
419 11-01-2018 10:50:00 7 C 7.44 g/m*3 7 C 0 km/h
420 11-01-2018 10:55:00 7.1 C 7.57 g/m*3 7.1 C 0 km/h
421 11-01-2018 11:00:00 7.1 C 7.57 g/m*3 7.1 C 0 km/h
422 11-01-2018 11:05:00 7.1 C 7.57 g/m*3 7.1 C 0 km/h
423 11-01-2018 11:10:00 7.1 C 7.57 g/m*3 7.1 C 0 km/h
424 11-01-2018 11:15:00 7.2 C 7.54 g/m*3 7.2 C 0 km/h
425 11-01-2018 11:20:00 7.2 C 7.54 g/m*3 7.2 C 0 km/h
Sensor: Nr:Datum:Temp:Abs-Feuchte:Windchill:Wind:
Aussen-T/F 426 11-01-2018 11:25:00 7.2 C 7.54 g/m*3 7.2 C 0 km/h
427 11-01-2018 11:30:00 7.3 C 7.58 g/m*3 7.3 C 0 km/h
428 11-01-2018 11:35:00 7.3 C 7.58 g/m*3 7.3 C 0 km/h
429 11-01-2018 11:40:00 7.3 C 7.58 g/m*3 7.3 C 1.6 km/h
430 11-01-2018 11:45:00 7.4 C 7.63 g/m*3 7.4 C 0 km/h
431 11-01-2018 11:50:00 7.4 C 7.63 g/m*3 7.4 C 0 km/h
432 11-01-2018 11:55:00 7.5 C 7.68 g/m*3 7.5 C 1.6 km/h
433 11-01-2018 12:00:00 7.6 C 7.73 g/m*3 7.6 C 1.6 km/h
434 11-01-2018 12:05:00 7.7 C 7.78 g/m*3 7.7 C 3.2 km/h
435 11-01-2018 12:10:00 7.7 C 7.78 g/m*3 7.7 C 0 km/h
436 11-01-2018 12:15:00 7.8 C 7.75 g/m*3 7.8 C 1.6 km/h
437 11-01-2018 12:20:00 7.8 C 7.75 g/m*3 7.8 C 1.6 km/h
438 11-01-2018 12:25:00 7.8 C 7.75 g/m*3 7.8 C 1.6 km/h
439 11-01-2018 12:30:00 7.9 C 7.8 g/m*3 7.9 C 3.2 km/h
440 11-01-2018 12:35:00 7.9 C 7.8 g/m*3 7.9 C 1.6 km/h
441 11-01-2018 12:40:00 8 C 7.85 g/m*3 8 C 0 km/h
442 11-01-2018 12:45:00 8.1 C 7.9 g/m*3 8.1 C 4.8 km/h
443 11-01-2018 12:50:00 8.2 C 7.96 g/m*3 8.2 C 0 km/h
444 11-01-2018 12:55:00 8.2 C 7.87 g/m*3 8.2 C 0 km/h
445 11-01-2018 13:00:00 8.2 C 7.87 g/m*3 8.2 C 0 km/h
446 11-01-2018 13:05:00 8.2 C 7.87 g/m*3 8.2 C 0 km/h
447 11-01-2018 13:10:00 8.2 C 7.87 g/m*3 8.2 C 0 km/h
448 11-01-2018 13:15:00 8.3 C 7.84 g/m*3 8.3 C 3.2 km/h
449 11-01-2018 13:20:00 8.3 C 7.84 g/m*3 8.3 C 3.2 km/h
450 11-01-2018 13:25:00 8.3 C 7.84 g/m*3 8.3 C 3.2 km/h
Sensor: Nr:Datum:Temp:Abs-Feuchte:Windchill:Wind:
Aussen-T/F 451 11-01-2018 13:30:00 8.4 C 7.89 g/m*3 8.4 C 4.8 km/h
452 11-01-2018 13:35:00 8.4 C 7.89 g/m*3 8.4 C 3.2 km/h
453 11-01-2018 13:40:00 8.5 C 7.94 g/m*3 8.5 C 3.2 km/h
454 11-01-2018 13:45:00 8.6 C 7.91 g/m*3 8.6 C 4.8 km/h
455 11-01-2018 13:50:00 8.6 C 7.91 g/m*3 8.6 C 4.8 km/h
456 11-01-2018 13:55:00 8.6 C 7.91 g/m*3 8.6 C 3.2 km/h
457 11-01-2018 14:00:00 8.7 C 7.96 g/m*3 8.7 C 1.6 km/h
458 11-01-2018 14:05:00 8.7 C 7.96 g/m*3 8.7 C 3.2 km/h
459 11-01-2018 14:10:00 8.8 C 8.01 g/m*3 8.8 C 1.6 km/h
460 11-01-2018 14:15:00 8.8 C 7.92 g/m*3 8.8 C 3.2 km/h
461 11-01-2018 14:20:00 8.9 C 7.97 g/m*3 8.9 C 1.6 km/h
462 11-01-2018 14:25:00 8.9 C 7.97 g/m*3 8.9 C 4.8 km/h
463 11-01-2018 14:30:00 8.9 C 7.97 g/m*3 8.9 C 0 km/h
464 11-01-2018 14:35:00 8.9 C 7.97 g/m*3 8.9 C 1.6 km/h
465 11-01-2018 14:40:00 8.9 C 7.88 g/m*3 8.9 C 1.6 km/h
466 11-01-2018 14:45:00 8.8 C 7.83 g/m*3 8.8 C 1.6 km/h
467 11-01-2018 14:50:00 8.8 C 7.83 g/m*3 8.8 C 1.6 km/h
468 11-01-2018 14:55:00 8.8 C 7.83 g/m*3 8.8 C 1.6 km/h
469 11-01-2018 15:00:00 8.8 C 7.83 g/m*3 8.8 C 1.6 km/h
470 11-01-2018 15:05:00 8.8 C 7.83 g/m*3 8.8 C 3.2 km/h
471 11-01-2018 15:10:00 8.8 C 7.83 g/m*3 8.8 C 1.6 km/h
472 11-01-2018 15:15:00 8.8 C 7.83 g/m*3 8.8 C 4.8 km/h
473 11-01-2018 15:20:00 8.8 C 7.83 g/m*3 8.8 C 4.8 km/h
474 11-01-2018 15:25:00 8.8 C 7.83 g/m*3 7.58 C 8.1 km/h
475 11-01-2018 15:30:00 8.7 C 7.78 g/m*3 7.46 C 8.1 km/h
Sensor: Nr:Datum:Temp:Abs-Feuchte:Windchill:Wind:
Aussen-T/F 476 11-01-2018 15:35:00 8.7 C 7.87 g/m*3 8.7 C 3.2 km/h
477 11-01-2018 15:40:00 8.7 C 7.87 g/m*3 8.7 C 4.8 km/h
478 11-01-2018 15:45:00 8.7 C 7.78 g/m*3 8.7 C 3.2 km/h
479 11-01-2018 15:50:00 8.7 C 7.78 g/m*3 8.7 C 1.6 km/h
480 11-01-2018 15:55:00 8.7 C 7.78 g/m*3 8.7 C 0 km/h
481 11-01-2018 16:00:00 8.7 C 7.78 g/m*3 8.7 C 0 km/h
482 11-01-2018 16:05:00 8.6 C 7.73 g/m*3 8.6 C 0 km/h
483 11-01-2018 16:10:00 8.6 C 7.73 g/m*3 8.6 C 0 km/h
484 11-01-2018 16:15:00 8.6 C 7.73 g/m*3 8.6 C 0 km/h
485 11-01-2018 16:20:00 8.6 C 7.82 g/m*3 8.6 C 0 km/h
486 11-01-2018 16:25:00 8.6 C 7.82 g/m*3 8.6 C 0 km/h
487 11-01-2018 16:30:00 8.5 C 7.77 g/m*3 8.5 C 0 km/h
488 11-01-2018 16:35:00 8.5 C 7.77 g/m*3 8.5 C 0 km/h
489 11-01-2018 16:40:00 8.4 C 7.72 g/m*3 8.4 C 0 km/h
490 11-01-2018 16:45:00 8.4 C 7.8 g/m*3 8.4 C 0 km/h
491 11-01-2018 16:50:00 8.4 C 7.8 g/m*3 8.4 C 0 km/h
492 11-01-2018 16:55:00 8.3 C 7.75 g/m*3 8.3 C 0 km/h
493 11-01-2018 17:00:00 8.2 C 7.79 g/m*3 8.2 C 0 km/h
494 11-01-2018 17:05:00 8.2 C 7.79 g/m*3 8.2 C 0 km/h
495 11-01-2018 17:10:00 8.1 C 7.74 g/m*3 8.1 C 0 km/h
496 11-01-2018 17:15:00 8.1 C 7.82 g/m*3 8.1 C 0 km/h
497 11-01-2018 17:20:00 8 C 7.77 g/m*3 8 C 0 km/h
498 11-01-2018 17:25:00 7.9 C 7.72 g/m*3 7.9 C 0 km/h
499 11-01-2018 17:30:00 7.9 C 7.72 g/m*3 7.9 C 0 km/h
500 11-01-2018 17:35:00 7.8 C 7.67 g/m*3 7.8 C 0 km/h
Sensor: Nr:Datum:Temp:Abs-Feuchte:Windchill:Wind:
Aussen-T/F 501 11-01-2018 17:40:00 7.8 C 7.67 g/m*3 7.8 C 0 km/h
502 11-01-2018 17:45:00 7.7 C 7.62 g/m*3 7.7 C 0 km/h
503 11-01-2018 17:50:00 7.7 C 7.62 g/m*3 7.7 C 0 km/h
504 11-01-2018 17:55:00 7.6 C 7.65 g/m*3 7.6 C 0 km/h
505 11-01-2018 18:00:00 7.6 C 7.65 g/m*3 7.6 C 0 km/h
506 11-01-2018 18:05:00 7.5 C 7.6 g/m*3 7.5 C 0 km/h
507 11-01-2018 18:10:00 7.5 C 7.6 g/m*3 7.5 C 0 km/h
508 11-01-2018 18:15:00 7.4 C 7.55 g/m*3 7.4 C 0 km/h
509 11-01-2018 18:20:00 7.4 C 7.55 g/m*3 7.4 C 3.2 km/h
510 11-01-2018 18:25:00 7.4 C 7.55 g/m*3 7.4 C 3.2 km/h
511 11-01-2018 18:30:00 7.3 C 7.51 g/m*3 7.3 C 3.2 km/h
512 11-01-2018 18:35:00 7.2 C 7.46 g/m*3 7.2 C 4.8 km/h
513 11-01-2018 18:40:00 7.2 C 7.46 g/m*3 7.2 C 3.2 km/h
514 11-01-2018 18:45:00 7.1 C 7.41 g/m*3 7.1 C 0 km/h
515 11-01-2018 18:50:00 7.1 C 7.41 g/m*3 7.1 C 1.6 km/h
516 11-01-2018 18:55:00 7 C 7.36 g/m*3 7 C 1.6 km/h
517 11-01-2018 19:00:00 6.9 C 7.31 g/m*3 6.9 C 1.6 km/h
518 11-01-2018 19:05:00 6.8 C 7.27 g/m*3 6.8 C 0 km/h
519 11-01-2018 19:10:00 6.7 C 7.22 g/m*3 6.7 C 0 km/h
520 11-01-2018 19:15:00 6.7 C 7.22 g/m*3 6.7 C 1.6 km/h
521 11-01-2018 19:20:00 6.6 C 7.17 g/m*3 6.6 C 1.6 km/h
522 11-01-2018 19:25:00 6.6 C 7.17 g/m*3 6.6 C 1.6 km/h
523 11-01-2018 19:30:00 6.5 C 7.12 g/m*3 6.5 C 3.2 km/h
524 11-01-2018 19:35:00 6.5 C 7.12 g/m*3 6.5 C 0 km/h
525 11-01-2018 19:40:00 6.5 C 7.12 g/m*3 6.5 C 3.2 km/h
Sensor: Nr:Datum:Temp:Abs-Feuchte:Windchill:Wind:
Aussen-T/F 526 11-01-2018 19:45:00 6.5 C 7.12 g/m*3 6.5 C 0 km/h
527 11-01-2018 19:50:00 6.4 C 7.08 g/m*3 6.4 C 0 km/h
528 11-01-2018 19:55:00 6.4 C 7.08 g/m*3 6.4 C 0 km/h
529 11-01-2018 20:00:00 6.3 C 7.03 g/m*3 6.3 C 0 km/h
530 11-01-2018 20:05:00 6.3 C 7.03 g/m*3 6.3 C 0 km/h
531 11-01-2018 20:10:00 6.3 C 7.03 g/m*3 6.3 C 0 km/h
532 11-01-2018 20:15:00 6.3 C 7.03 g/m*3 6.3 C 0 km/h
533 11-01-2018 20:20:00 6.3 C 7.03 g/m*3 6.3 C 0 km/h
534 11-01-2018 20:25:00 6.4 C 7.15 g/m*3 6.4 C 0 km/h
535 11-01-2018 20:30:00 6.4 C 7.15 g/m*3 6.4 C 0 km/h
536 11-01-2018 20:35:00 6.4 C 7.15 g/m*3 6.4 C 0 km/h
537 11-01-2018 20:40:00 6.4 C 7.15 g/m*3 6.4 C 0 km/h
538 11-01-2018 20:45:00 6.4 C 7.15 g/m*3 6.4 C 0 km/h
539 11-01-2018 20:50:00 6.4 C 7.15 g/m*3 6.4 C 0 km/h
540 11-01-2018 20:55:00 6.4 C 7.15 g/m*3 6.4 C 0 km/h
541 11-01-2018 21:00:00 6.4 C 7.15 g/m*3 6.4 C 0 km/h
542 11-01-2018 21:05:00 6.4 C 7.15 g/m*3 6.4 C 0 km/h
543 11-01-2018 21:10:00 6.4 C 7.15 g/m*3 6.4 C 0 km/h
544 11-01-2018 21:15:00 6.4 C 7.15 g/m*3 6.4 C 0 km/h
545 11-01-2018 21:20:00 6.4 C 7.15 g/m*3 6.4 C 0 km/h
546 11-01-2018 21:25:00 6.4 C 7.15 g/m*3 6.4 C 0 km/h
547 11-01-2018 21:30:00 6.4 C 7.15 g/m*3 6.4 C 0 km/h
548 11-01-2018 21:35:00 6.4 C 7.15 g/m*3 6.4 C 0 km/h
549 11-01-2018 21:40:00 6.4 C 7.15 g/m*3 6.4 C 0 km/h
550 11-01-2018 21:45:00 6.4 C 7.15 g/m*3 6.4 C 0 km/h
Sensor: Nr:Datum:Temp:Abs-Feuchte:Windchill:Wind:
Aussen-T/F 551 11-01-2018 21:50:00 6.3 C 7.11 g/m*3 6.3 C 0 km/h
552 11-01-2018 21:55:00 6.4 C 7.15 g/m*3 6.4 C 0 km/h
553 11-01-2018 22:00:00 6.4 C 7.15 g/m*3 6.4 C 0 km/h
554 11-01-2018 22:05:00 6.4 C 7.15 g/m*3 6.4 C 0 km/h
555 11-01-2018 22:10:00 6.4 C 7.15 g/m*3 6.4 C 0 km/h
556 11-01-2018 22:15:00 6.4 C 7.15 g/m*3 6.4 C 0 km/h
557 11-01-2018 22:20:00 6.4 C 7.15 g/m*3 6.4 C 0 km/h
558 11-01-2018 22:25:00 6.4 C 7.15 g/m*3 6.4 C 0 km/h
559 11-01-2018 22:30:00 6.4 C 7.15 g/m*3 6.4 C 0 km/h
560 11-01-2018 22:35:00 6.4 C 7.15 g/m*3 6.4 C 0 km/h
561 11-01-2018 22:40:00 6.4 C 7.15 g/m*3 6.4 C 0 km/h
562 11-01-2018 22:45:00 6.4 C 7.15 g/m*3 6.4 C 0 km/h
563 11-01-2018 22:50:00 6.4 C 7.15 g/m*3 6.4 C 0 km/h
564 11-01-2018 22:55:00 6.4 C 7.15 g/m*3 6.4 C 0 km/h
565 11-01-2018 23:00:00 6.4 C 7.15 g/m*3 6.4 C 0 km/h
566 11-01-2018 23:05:00 6.4 C 7.15 g/m*3 6.4 C 0 km/h
567 11-01-2018 23:10:00 6.4 C 7.15 g/m*3 6.4 C 0 km/h
568 11-01-2018 23:15:00 6.4 C 7.15 g/m*3 6.4 C 0 km/h
569 11-01-2018 23:20:00 6.4 C 7.15 g/m*3 6.4 C 0 km/h
570 11-01-2018 23:25:00 6.4 C 7.15 g/m*3 6.4 C 0 km/h
571 11-01-2018 23:30:00 6.4 C 7.15 g/m*3 6.4 C 0 km/h
572 11-01-2018 23:35:00 6.4 C 7.15 g/m*3 6.4 C 0 km/h
573 11-01-2018 23:40:00 6.4 C 7.15 g/m*3 6.4 C 0 km/h
574 11-01-2018 23:45:00 6.4 C 7.15 g/m*3 6.4 C 0 km/h
575 11-01-2018 23:50:00 6.5 C 7.2 g/m*3 6.5 C 0 km/h
Sensor: Nr:Datum:Temp:Abs-Feuchte:Windchill:Wind:
Aussen-T/F 576 11-01-2018 23:55:00 6.5 C 7.2 g/m*3 6.5 C 0 km/h
577 12-01-2018 00:00:00 6.5 C 7.2 g/m*3 6.5 C 0 km/h
578 12-01-2018 00:05:00 6.6 C 7.25 g/m*3 6.6 C 0 km/h
579 12-01-2018 00:10:00 6.6 C 7.25 g/m*3 6.6 C 0 km/h
580 12-01-2018 00:15:00 6.6 C 7.25 g/m*3 6.6 C 0 km/h
581 12-01-2018 00:20:00 6.7 C 7.29 g/m*3 6.7 C 0 km/h
582 12-01-2018 00:25:00 6.7 C 7.29 g/m*3 6.7 C 0 km/h
583 12-01-2018 00:30:00 6.7 C 7.29 g/m*3 6.7 C 0 km/h
584 12-01-2018 00:35:00 6.7 C 7.29 g/m*3 6.7 C 0 km/h
585 12-01-2018 00:40:00 6.7 C 7.29 g/m*3 6.7 C 0 km/h
586 12-01-2018 00:45:00 6.7 C 7.29 g/m*3 6.7 C 0 km/h
587 12-01-2018 00:50:00 6.7 C 7.29 g/m*3 6.7 C 0 km/h
588 12-01-2018 00:55:00 6.7 C 7.29 g/m*3 6.7 C 1.6 km/h
589 12-01-2018 01:00:00 6.7 C 7.29 g/m*3 6.7 C 1.6 km/h
590 12-01-2018 01:05:00 6.8 C 7.34 g/m*3 6.8 C 0 km/h
591 12-01-2018 01:10:00 6.8 C 7.34 g/m*3 6.8 C 1.6 km/h
592 12-01-2018 01:15:00 6.8 C 7.34 g/m*3 6.8 C 1.6 km/h
593 12-01-2018 01:20:00 6.8 C 7.34 g/m*3 6.8 C 1.6 km/h
594 12-01-2018 01:25:00 6.8 C 7.34 g/m*3 6.8 C 0 km/h
595 12-01-2018 01:30:00 6.8 C 7.34 g/m*3 6.8 C 0 km/h
596 12-01-2018 01:35:00 6.8 C 7.34 g/m*3 6.8 C 1.6 km/h
597 12-01-2018 01:40:00 6.8 C 7.34 g/m*3 6.8 C 4.8 km/h
598 12-01-2018 01:45:00 6.8 C 7.34 g/m*3 6.8 C 0 km/h
599 12-01-2018 01:50:00 6.9 C 7.39 g/m*3 6.9 C 1.6 km/h
600 12-01-2018 01:55:00 6.9 C 7.39 g/m*3 6.9 C 0 km/h
Sensor: Nr:Datum:Temp:Abs-Feuchte:Windchill:Wind:
Aussen-T/F 601 12-01-2018 02:00:00 6.9 C 7.39 g/m*3 6.9 C 1.6 km/h
602 12-01-2018 02:05:00 6.8 C 7.34 g/m*3 6.8 C 1.6 km/h
603 12-01-2018 02:10:00 6.8 C 7.34 g/m*3 6.8 C 1.6 km/h
604 12-01-2018 02:15:00 6.8 C 7.34 g/m*3 6.8 C 3.2 km/h
605 12-01-2018 02:20:00 6.8 C 7.34 g/m*3 6.8 C 3.2 km/h
606 12-01-2018 02:25:00 6.8 C 7.34 g/m*3 6.8 C 3.2 km/h
607 12-01-2018 02:30:00 6.8 C 7.34 g/m*3 6.8 C 3.2 km/h
608 12-01-2018 02:35:00 6.8 C 7.34 g/m*3 6.8 C 0 km/h
609 12-01-2018 02:40:00 6.8 C 7.34 g/m*3 6.8 C 1.6 km/h
610 12-01-2018 02:45:00 6.8 C 7.34 g/m*3 6.8 C 0 km/h
611 12-01-2018 02:50:00 6.8 C 7.34 g/m*3 6.8 C 0 km/h
612 12-01-2018 02:55:00 6.8 C 7.34 g/m*3 6.8 C 0 km/h
613 12-01-2018 03:00:00 6.8 C 7.34 g/m*3 6.8 C 0 km/h
614 12-01-2018 03:05:00 6.8 C 7.34 g/m*3 6.8 C 0 km/h
615 12-01-2018 03:10:00 6.8 C 7.34 g/m*3 6.8 C 0 km/h
616 12-01-2018 03:15:00 6.7 C 7.29 g/m*3 6.7 C 0 km/h
617 12-01-2018 03:20:00 6.7 C 7.29 g/m*3 6.7 C 0 km/h
618 12-01-2018 03:25:00 6.7 C 7.29 g/m*3 6.7 C 0 km/h
619 12-01-2018 03:30:00 6.7 C 7.22 g/m*3 6.7 C 0 km/h
620 12-01-2018 03:35:00 6.7 C 7.22 g/m*3 6.7 C 0 km/h
621 12-01-2018 03:40:00 6.7 C 7.22 g/m*3 6.7 C 0 km/h
622 12-01-2018 03:45:00 6.7 C 7.22 g/m*3 6.7 C 0 km/h
623 12-01-2018 03:50:00 6.7 C 7.22 g/m*3 6.7 C 0 km/h
624 12-01-2018 03:55:00 6.7 C 7.22 g/m*3 6.7 C 0 km/h
625 12-01-2018 04:00:00 6.7 C 7.29 g/m*3 6.7 C 0 km/h
Sensor: Nr:Datum:Temp:Abs-Feuchte:Windchill:Wind:
Aussen-T/F 626 12-01-2018 04:05:00 6.7 C 7.29 g/m*3 6.7 C 0 km/h
627 12-01-2018 04:10:00 6.7 C 7.29 g/m*3 6.7 C 0 km/h
628 12-01-2018 04:15:00 6.7 C 7.29 g/m*3 6.7 C 0 km/h
629 12-01-2018 04:20:00 6.7 C 7.29 g/m*3 6.7 C 0 km/h
630 12-01-2018 04:25:00 6.8 C 7.34 g/m*3 6.8 C 0 km/h
631 12-01-2018 04:30:00 6.8 C 7.34 g/m*3 6.8 C 0 km/h
632 12-01-2018 04:35:00 6.7 C 7.29 g/m*3 6.7 C 0 km/h
633 12-01-2018 04:40:00 6.8 C 7.34 g/m*3 6.8 C 0 km/h
634 12-01-2018 04:45:00 6.7 C 7.29 g/m*3 6.7 C 0 km/h
635 12-01-2018 04:50:00 6.8 C 7.34 g/m*3 6.8 C 0 km/h
636 12-01-2018 04:55:00 6.7 C 7.29 g/m*3 6.7 C 0 km/h
637 12-01-2018 05:00:00 6.7 C 7.29 g/m*3 6.7 C 3.2 km/h
638 12-01-2018 05:05:00 6.7 C 7.29 g/m*3 6.7 C 0 km/h
639 12-01-2018 05:10:00 6.8 C 7.34 g/m*3 6.8 C 0 km/h
640 12-01-2018 05:15:00 6.7 C 7.29 g/m*3 6.7 C 1.6 km/h
641 12-01-2018 05:20:00 6.8 C 7.34 g/m*3 6.8 C 3.2 km/h
642 12-01-2018 05:25:00 6.7 C 7.29 g/m*3 6.7 C 0 km/h
643 12-01-2018 05:30:00 6.7 C 7.29 g/m*3 6.7 C 0 km/h
644 12-01-2018 05:35:00 6.7 C 7.29 g/m*3 6.7 C 0 km/h
645 12-01-2018 05:40:00 6.7 C 7.29 g/m*3 6.7 C 0 km/h
646 12-01-2018 05:45:00 6.7 C 7.29 g/m*3 6.7 C 0 km/h
647 12-01-2018 05:50:00 6.7 C 7.22 g/m*3 6.7 C 0 km/h
648 12-01-2018 05:55:00 6.7 C 7.22 g/m*3 6.7 C 0 km/h
649 12-01-2018 06:00:00 6.6 C 7.17 g/m*3 6.6 C 0 km/h
650 12-01-2018 06:05:00 6.6 C 7.17 g/m*3 6.6 C 0 km/h
Sensor: Nr:Datum:Temp:Abs-Feuchte:Windchill:Wind:
Aussen-T/F 651 12-01-2018 06:10:00 6.6 C 7.17 g/m*3 6.6 C 0 km/h
652 12-01-2018 06:15:00 6.5 C 7.12 g/m*3 6.5 C 0 km/h
653 12-01-2018 06:20:00 6.5 C 7.12 g/m*3 6.5 C 0 km/h
654 12-01-2018 06:25:00 6.5 C 7.2 g/m*3 6.5 C 0 km/h
655 12-01-2018 06:30:00 6.5 C 7.2 g/m*3 6.5 C 0 km/h
656 12-01-2018 06:35:00 6.5 C 7.2 g/m*3 6.5 C 0 km/h
657 12-01-2018 06:40:00 6.5 C 7.2 g/m*3 6.5 C 0 km/h
658 12-01-2018 06:45:00 6.5 C 7.2 g/m*3 6.5 C 0 km/h
659 12-01-2018 06:50:00 6.5 C 7.2 g/m*3 6.5 C 0 km/h
660 12-01-2018 06:55:00 6.6 C 7.25 g/m*3 6.6 C 0 km/h
661 12-01-2018 07:00:00 6.6 C 7.25 g/m*3 6.6 C 0 km/h
662 12-01-2018 07:05:00 6.6 C 7.25 g/m*3 6.6 C 0 km/h
663 12-01-2018 07:10:00 6.6 C 7.25 g/m*3 6.6 C 0 km/h
664 12-01-2018 07:15:00 6.6 C 7.25 g/m*3 6.6 C 0 km/h
665 12-01-2018 07:20:00 6.7 C 7.29 g/m*3 6.7 C 0 km/h
666 12-01-2018 07:25:00 6.7 C 7.29 g/m*3 6.7 C 0 km/h
667 12-01-2018 07:30:00 6.7 C 7.29 g/m*3 6.7 C 1.6 km/h
668 12-01-2018 07:35:00 6.7 C 7.29 g/m*3 6.7 C 0 km/h
669 12-01-2018 07:40:00 6.7 C 7.29 g/m*3 6.7 C 0 km/h
670 12-01-2018 07:45:00 6.7 C 7.29 g/m*3 6.7 C 0 km/h
671 12-01-2018 07:50:00 6.7 C 7.29 g/m*3 6.7 C 0 km/h
672 12-01-2018 07:55:00 6.7 C 7.29 g/m*3 6.7 C 0 km/h
673 12-01-2018 08:00:00 6.7 C 7.29 g/m*3 6.7 C 0 km/h
674 12-01-2018 08:05:00 6.7 C 7.29 g/m*3 6.7 C 0 km/h
675 12-01-2018 08:10:00 6.7 C 7.29 g/m*3 6.7 C 0 km/h
Sensor: Nr:Datum:Temp:Abs-Feuchte:Windchill:Wind:
Aussen-T/F 676 12-01-2018 08:15:00 6.7 C 7.29 g/m*3 6.7 C 0 km/h
677 12-01-2018 08:20:00 6.7 C 7.29 g/m*3 6.7 C 0 km/h
678 12-01-2018 08:25:00 6.7 C 7.29 g/m*3 6.7 C 0 km/h
679 12-01-2018 08:30:00 6.6 C 7.25 g/m*3 6.6 C 0 km/h
680 12-01-2018 08:35:00 6.6 C 7.25 g/m*3 6.6 C 0 km/h
681 12-01-2018 08:40:00 6.6 C 7.25 g/m*3 6.6 C 0 km/h
682 12-01-2018 08:45:00 6.6 C 7.25 g/m*3 6.6 C 0 km/h
683 12-01-2018 08:50:00 6.6 C 7.25 g/m*3 6.6 C 0 km/h
684 12-01-2018 08:55:00 6.6 C 7.25 g/m*3 6.6 C 0 km/h
685 12-01-2018 09:00:00 6.6 C 7.25 g/m*3 6.6 C 0 km/h
686 12-01-2018 09:05:00 6.7 C 7.29 g/m*3 6.7 C 0 km/h
687 12-01-2018 09:10:00 6.7 C 7.29 g/m*3 6.7 C 0 km/h
688 12-01-2018 09:15:00 6.7 C 7.29 g/m*3 6.7 C 0 km/h
689 12-01-2018 09:20:00 6.7 C 7.29 g/m*3 6.7 C 0 km/h
690 12-01-2018 09:25:00 6.7 C 7.29 g/m*3 6.7 C 0 km/h
691 12-01-2018 09:30:00 6.7 C 7.29 g/m*3 6.7 C 4.8 km/h
692 12-01-2018 09:35:00 6.7 C 7.29 g/m*3 6.7 C 3.2 km/h
693 12-01-2018 09:40:00 6.7 C 7.29 g/m*3 6.7 C 3.2 km/h
694 12-01-2018 09:45:00 6.7 C 7.29 g/m*3 6.7 C 0 km/h
695 12-01-2018 09:50:00 6.7 C 7.29 g/m*3 6.7 C 0 km/h
696 12-01-2018 09:55:00 6.7 C 7.29 g/m*3 6.7 C 1.6 km/h
697 12-01-2018 10:00:00 6.7 C 7.29 g/m*3 6.7 C 3.2 km/h
698 12-01-2018 10:05:00 6.7 C 7.29 g/m*3 6.7 C 4.8 km/h
699 12-01-2018 10:10:00 6.7 C 7.29 g/m*3 5.11 C 8.1 km/h
700 12-01-2018 10:15:00 6.7 C 7.29 g/m*3 5.56 C 6.4 km/h
Sensor: Nr:Datum:Temp:Abs-Feuchte:Windchill:Wind:
Aussen-T/F 701 12-01-2018 10:20:00 6.7 C 7.29 g/m*3 5.11 C 8.1 km/h
702 12-01-2018 10:25:00 6.6 C 7.25 g/m*3 6.6 C 4.8 km/h
703 12-01-2018 10:30:00 6.6 C 7.25 g/m*3 5.44 C 6.4 km/h
704 12-01-2018 10:35:00 6.6 C 7.25 g/m*3 5.44 C 6.4 km/h
705 12-01-2018 10:40:00 6.6 C 7.25 g/m*3 5.44 C 6.4 km/h
706 12-01-2018 10:45:00 6.6 C 7.25 g/m*3 6.6 C 4.8 km/h
707 12-01-2018 10:50:00 6.6 C 7.25 g/m*3 6.6 C 4.8 km/h
708 12-01-2018 10:55:00 6.5 C 7.2 g/m*3 5.33 C 6.4 km/h
709 12-01-2018 11:00:00 6.5 C 7.2 g/m*3 6.5 C 3.2 km/h
710 12-01-2018 11:05:00 6.5 C 7.2 g/m*3 6.5 C 3.2 km/h
711 12-01-2018 11:10:00 6.5 C 7.2 g/m*3 6.5 C 4.8 km/h
712 12-01-2018 11:15:00 6.5 C 7.2 g/m*3 6.5 C 1.6 km/h
713 12-01-2018 11:20:00 6.5 C 7.2 g/m*3 6.5 C 1.6 km/h
714 12-01-2018 11:25:00 6.5 C 7.2 g/m*3 6.5 C 3.2 km/h
715 12-01-2018 11:30:00 6.5 C 7.2 g/m*3 6.5 C 4.8 km/h
716 12-01-2018 11:35:00 6.5 C 7.2 g/m*3 6.5 C 4.8 km/h
717 12-01-2018 11:40:00 6.5 C 7.2 g/m*3 6.5 C 4.8 km/h
718 12-01-2018 11:45:00 6.5 C 7.2 g/m*3 6.5 C 0 km/h
719 12-01-2018 11:50:00 6.5 C 7.2 g/m*3 6.5 C 0 km/h
720 12-01-2018 11:55:00 6.5 C 7.2 g/m*3 6.5 C 0 km/h
721 12-01-2018 12:00:00 6.6 C 7.25 g/m*3 6.6 C 1.6 km/h
722 12-01-2018 12:05:00 6.6 C 7.25 g/m*3 6.6 C 3.2 km/h
723 12-01-2018 12:10:00 6.6 C 7.25 g/m*3 6.6 C 0 km/h
724 12-01-2018 12:15:00 6.6 C 7.25 g/m*3 6.6 C 0 km/h
725 12-01-2018 12:20:00 6.6 C 7.25 g/m*3 6.6 C 1.6 km/h
Sensor: Nr:Datum:Temp:Abs-Feuchte:Windchill:Wind:
Aussen-T/F 726 12-01-2018 12:25:00 6.6 C 7.17 g/m*3 6.6 C 0 km/h
727 12-01-2018 12:30:00 6.6 C 7.17 g/m*3 6.6 C 0 km/h
728 12-01-2018 12:35:00 6.6 C 7.17 g/m*3 6.6 C 0 km/h
729 12-01-2018 12:40:00 6.6 C 7.17 g/m*3 6.6 C 0 km/h
730 12-01-2018 12:45:00 6.6 C 7.17 g/m*3 6.6 C 1.6 km/h
731 12-01-2018 12:50:00 6.6 C 7.17 g/m*3 6.6 C 1.6 km/h
732 12-01-2018 12:55:00 6.7 C 7.22 g/m*3 6.7 C 1.6 km/h
733 12-01-2018 13:00:00 6.7 C 7.22 g/m*3 6.7 C 1.6 km/h
734 12-01-2018 13:05:00 6.7 C 7.22 g/m*3 6.7 C 0 km/h
735 12-01-2018 13:10:00 6.8 C 7.27 g/m*3 6.8 C 0 km/h
736 12-01-2018 13:15:00 6.8 C 7.27 g/m*3 6.8 C 0 km/h
737 12-01-2018 13:20:00 6.8 C 7.27 g/m*3 6.8 C 0 km/h
738 12-01-2018 13:25:00 6.8 C 7.27 g/m*3 6.8 C 1.6 km/h
739 12-01-2018 13:30:00 6.8 C 7.27 g/m*3 6.8 C 0 km/h
740 12-01-2018 13:35:00 6.8 C 7.27 g/m*3 6.8 C 0 km/h
741 12-01-2018 13:40:00 6.8 C 7.27 g/m*3 6.8 C 0 km/h
742 12-01-2018 13:45:00 6.8 C 7.27 g/m*3 6.8 C 0 km/h
743 12-01-2018 13:50:00 6.8 C 7.27 g/m*3 6.8 C 0 km/h
744 12-01-2018 13:55:00 6.8 C 7.27 g/m*3 6.8 C 0 km/h
745 12-01-2018 14:00:00 6.8 C 7.27 g/m*3 6.8 C 1.6 km/h
746 12-01-2018 14:05:00 6.8 C 7.27 g/m*3 6.8 C 0 km/h
747 12-01-2018 14:10:00 6.8 C 7.27 g/m*3 6.8 C 0 km/h
748 12-01-2018 14:15:00 6.9 C 7.31 g/m*3 6.9 C 0 km/h
749 12-01-2018 14:20:00 6.9 C 7.24 g/m*3 6.9 C 0 km/h
750 12-01-2018 14:25:00 6.9 C 7.24 g/m*3 6.9 C 1.6 km/h
Sensor: Nr:Datum:Temp:Abs-Feuchte:Windchill:Wind:
Aussen-T/F 751 12-01-2018 14:30:00 6.9 C 7.24 g/m*3 6.9 C 0 km/h
752 12-01-2018 14:35:00 6.9 C 7.24 g/m*3 6.9 C 0 km/h
753 12-01-2018 14:40:00 6.9 C 7.24 g/m*3 6.9 C 0 km/h
754 12-01-2018 14:45:00 7 C 7.28 g/m*3 7 C 0 km/h
755 12-01-2018 14:50:00 7 C 7.28 g/m*3 7 C 0 km/h
756 12-01-2018 14:55:00 7.1 C 7.33 g/m*3 7.1 C 0 km/h
757 12-01-2018 15:00:00 7.1 C 7.33 g/m*3 7.1 C 0 km/h
758 12-01-2018 15:05:00 7.1 C 7.33 g/m*3 7.1 C 0 km/h
759 12-01-2018 15:10:00 7.1 C 7.33 g/m*3 7.1 C 0 km/h
760 12-01-2018 15:15:00 7.1 C 7.33 g/m*3 7.1 C 0 km/h
761 12-01-2018 15:20:00 7.1 C 7.33 g/m*3 7.1 C 0 km/h
762 12-01-2018 15:25:00 7 C 7.21 g/m*3 7 C 0 km/h
763 12-01-2018 15:30:00 7 C 7.28 g/m*3 7 C 0 km/h
764 12-01-2018 15:35:00 7 C 7.28 g/m*3 7 C 0 km/h
765 12-01-2018 15:40:00 7 C 7.28 g/m*3 7 C 0 km/h
766 12-01-2018 15:45:00 7 C 7.21 g/m*3 7 C 0 km/h
767 12-01-2018 15:50:00 7 C 7.28 g/m*3 7 C 0 km/h
768 12-01-2018 15:55:00 6.9 C 7.24 g/m*3 6.9 C 0 km/h
769 12-01-2018 16:00:00 6.9 C 7.24 g/m*3 6.9 C 0 km/h
770 12-01-2018 16:05:00 6.9 C 7.16 g/m*3 6.9 C 0 km/h
771 12-01-2018 16:10:00 6.9 C 7.24 g/m*3 6.9 C 0 km/h
772 12-01-2018 16:15:00 6.9 C 7.24 g/m*3 6.9 C 0 km/h
773 12-01-2018 16:20:00 6.9 C 7.24 g/m*3 6.9 C 0 km/h
774 12-01-2018 16:25:00 6.9 C 7.24 g/m*3 6.9 C 0 km/h
775 12-01-2018 16:30:00 6.8 C 7.19 g/m*3 6.8 C 0 km/h
Sensor: Nr:Datum:Temp:Abs-Feuchte:Windchill:Wind:
Aussen-T/F 776 12-01-2018 16:35:00 6.8 C 7.19 g/m*3 6.8 C 0 km/h
777 12-01-2018 16:40:00 6.8 C 7.27 g/m*3 6.8 C 0 km/h
778 12-01-2018 16:45:00 6.8 C 7.19 g/m*3 6.8 C 0 km/h
779 12-01-2018 16:50:00 6.8 C 7.27 g/m*3 6.8 C 0 km/h
780 12-01-2018 16:55:00 6.8 C 7.27 g/m*3 6.8 C 0 km/h
781 12-01-2018 17:00:00 6.7 C 7.22 g/m*3 6.7 C 0 km/h
782 12-01-2018 17:05:00 6.7 C 7.22 g/m*3 6.7 C 0 km/h
783 12-01-2018 17:10:00 6.7 C 7.22 g/m*3 6.7 C 0 km/h
784 12-01-2018 17:15:00 6.7 C 7.22 g/m*3 6.7 C 0 km/h
785 12-01-2018 17:20:00 6.6 C 7.17 g/m*3 6.6 C 0 km/h
786 12-01-2018 17:25:00 6.6 C 7.17 g/m*3 6.6 C 0 km/h
787 12-01-2018 17:30:00 6.6 C 7.17 g/m*3 6.6 C 0 km/h
788 12-01-2018 17:35:00 6.5 C 7.12 g/m*3 6.5 C 0 km/h
789 12-01-2018 17:40:00 6.4 C 7.08 g/m*3 6.4 C 0 km/h
790 12-01-2018 17:45:00 6.4 C 7.08 g/m*3 6.4 C 0 km/h
791 12-01-2018 17:50:00 6.4 C 7.08 g/m*3 6.4 C 0 km/h
792 12-01-2018 17:55:00 6.4 C 7.08 g/m*3 6.4 C 0 km/h
793 12-01-2018 18:00:00 6.3 C 7.03 g/m*3 6.3 C 0 km/h
794 12-01-2018 18:05:00 6.3 C 7.03 g/m*3 6.3 C 0 km/h
795 12-01-2018 18:10:00 6.3 C 7.11 g/m*3 6.3 C 0 km/h
796 12-01-2018 18:15:00 6.3 C 7.11 g/m*3 6.3 C 0 km/h
797 12-01-2018 18:20:00 6.3 C 7.11 g/m*3 6.3 C 0 km/h
798 12-01-2018 18:25:00 6.3 C 7.11 g/m*3 6.3 C 0 km/h
799 12-01-2018 18:30:00 6.3 C 7.11 g/m*3 6.3 C 0 km/h
800 12-01-2018 18:35:00 6.3 C 7.11 g/m*3 6.3 C 0 km/h
Sensor: Nr:Datum:Temp:Abs-Feuchte:Windchill:Wind:
Aussen-T/F 801 12-01-2018 18:40:00 6.2 C 7.06 g/m*3 6.2 C 0 km/h
802 12-01-2018 18:45:00 6.2 C 7.06 g/m*3 6.2 C 0 km/h
803 12-01-2018 18:50:00 6.2 C 7.06 g/m*3 6.2 C 0 km/h
804 12-01-2018 18:55:00 6.2 C 7.06 g/m*3 6.2 C 0 km/h
805 12-01-2018 19:00:00 6.2 C 7.06 g/m*3 6.2 C 0 km/h
806 12-01-2018 19:05:00 6.2 C 7.06 g/m*3 6.2 C 0 km/h
807 12-01-2018 19:10:00 6.2 C 7.06 g/m*3 6.2 C 0 km/h
808 12-01-2018 19:15:00 6.2 C 7.06 g/m*3 6.2 C 0 km/h
809 12-01-2018 19:20:00 6.2 C 7.06 g/m*3 6.2 C 0 km/h
810 12-01-2018 19:25:00 6.2 C 7.06 g/m*3 6.2 C 0 km/h
811 12-01-2018 19:30:00 6.2 C 7.06 g/m*3 6.2 C 0 km/h
812 12-01-2018 19:35:00 6.2 C 7.06 g/m*3 6.2 C 0 km/h
813 12-01-2018 19:40:00 6.2 C 7.06 g/m*3 6.2 C 0 km/h
814 12-01-2018 19:45:00 6.1 C 7.01 g/m*3 6.1 C 0 km/h
815 12-01-2018 19:50:00 6.1 C 7.01 g/m*3 6.1 C 0 km/h
816 12-01-2018 19:55:00 6.1 C 7.01 g/m*3 6.1 C 0 km/h
817 12-01-2018 20:00:00 6.1 C 7.01 g/m*3 6.1 C 0 km/h
818 12-01-2018 20:05:00 6.1 C 7.09 g/m*3 6.1 C 0 km/h
819 12-01-2018 20:10:00 6.1 C 7.09 g/m*3 6.1 C 0 km/h
820 12-01-2018 20:15:00 6.1 C 7.09 g/m*3 6.1 C 0 km/h
821 12-01-2018 20:20:00 6.1 C 7.09 g/m*3 6.1 C 0 km/h
822 12-01-2018 20:25:00 6.1 C 7.09 g/m*3 6.1 C 0 km/h
823 12-01-2018 20:30:00 6.1 C 7.09 g/m*3 6.1 C 0 km/h
824 12-01-2018 20:35:00 6.1 C 7.09 g/m*3 6.1 C 0 km/h
825 12-01-2018 20:40:00 6.1 C 7.09 g/m*3 6.1 C 0 km/h
Sensor: Nr:Datum:Temp:Abs-Feuchte:Windchill:Wind:
Aussen-T/F 826 12-01-2018 20:45:00 6.1 C 7.09 g/m*3 6.1 C 0 km/h
827 12-01-2018 20:50:00 6.1 C 7.09 g/m*3 6.1 C 0 km/h
828 12-01-2018 20:55:00 6.1 C 7.09 g/m*3 6.1 C 0 km/h
829 12-01-2018 21:00:00 6.1 C 7.09 g/m*3 6.1 C 0 km/h
830 12-01-2018 21:05:00 6.1 C 7.09 g/m*3 6.1 C 0 km/h
831 12-01-2018 21:10:00 6.1 C 7.09 g/m*3 6.1 C 0 km/h
832 12-01-2018 21:15:00 6.1 C 7.09 g/m*3 6.1 C 0 km/h
833 12-01-2018 21:20:00 6.1 C 7.09 g/m*3 6.1 C 0 km/h
834 12-01-2018 21:25:00 6.1 C 7.09 g/m*3 6.1 C 0 km/h
835 12-01-2018 21:30:00 6.1 C 7.09 g/m*3 6.1 C 0 km/h
836 12-01-2018 21:35:00 6.1 C 7.09 g/m*3 6.1 C 0 km/h
837 12-01-2018 21:40:00 6.1 C 7.09 g/m*3 6.1 C 0 km/h
838 12-01-2018 21:45:00 6.1 C 7.09 g/m*3 6.1 C 0 km/h
839 12-01-2018 21:50:00 6.1 C 7.09 g/m*3 6.1 C 0 km/h
840 12-01-2018 21:55:00 6.1 C 7.09 g/m*3 6.1 C 0 km/h
841 12-01-2018 22:00:00 6.1 C 7.09 g/m*3 6.1 C 0 km/h
842 12-01-2018 22:05:00 6.1 C 7.09 g/m*3 6.1 C 0 km/h
843 12-01-2018 22:10:00 6.2 C 7.13 g/m*3 6.2 C 0 km/h
844 12-01-2018 22:15:00 6.2 C 7.13 g/m*3 6.2 C 0 km/h
845 12-01-2018 22:20:00 6.2 C 7.13 g/m*3 6.2 C 0 km/h
846 12-01-2018 22:25:00 6.2 C 7.13 g/m*3 6.2 C 0 km/h
847 12-01-2018 22:30:00 6.2 C 7.13 g/m*3 6.2 C 0 km/h
848 12-01-2018 22:35:00 6.2 C 7.13 g/m*3 6.2 C 0 km/h
849 12-01-2018 22:40:00 6.2 C 7.13 g/m*3 6.2 C 0 km/h
850 12-01-2018 22:45:00 6.2 C 7.13 g/m*3 6.2 C 0 km/h
Sensor: Nr:Datum:Temp:Abs-Feuchte:Windchill:Wind:
Aussen-T/F 851 12-01-2018 22:50:00 6.2 C 7.13 g/m*3 6.2 C 0 km/h
852 12-01-2018 22:55:00 6.2 C 7.13 g/m*3 6.2 C 0 km/h
853 12-01-2018 23:00:00 6.2 C 7.13 g/m*3 6.2 C 0 km/h
854 12-01-2018 23:05:00 6.2 C 7.13 g/m*3 6.2 C 0 km/h
855 12-01-2018 23:10:00 6.2 C 7.13 g/m*3 6.2 C 0 km/h
856 12-01-2018 23:15:00 6.2 C 7.13 g/m*3 6.2 C 0 km/h
857 12-01-2018 23:20:00 6.2 C 7.13 g/m*3 6.2 C 0 km/h
858 12-01-2018 23:25:00 6.2 C 7.13 g/m*3 6.2 C 0 km/h
859 12-01-2018 23:30:00 6.1 C 7.09 g/m*3 6.1 C 0 km/h
860 12-01-2018 23:35:00 6.2 C 7.13 g/m*3 6.2 C 0 km/h
861 12-01-2018 23:40:00 6.1 C 7.09 g/m*3 6.1 C 0 km/h
862 12-01-2018 23:45:00 6.1 C 7.09 g/m*3 6.1 C 0 km/h
863 12-01-2018 23:50:00 6.1 C 7.09 g/m*3 6.1 C 0 km/h
864 12-01-2018 23:55:00 6.1 C 7.09 g/m*3 6.1 C 0 km/h
865 13-01-2018 00:00:00 6.1 C 7.09 g/m*3 6.1 C 0 km/h
866 13-01-2018 00:05:00 6.1 C 7.09 g/m*3 6.1 C 0 km/h
867 13-01-2018 00:10:00 6.1 C 7.09 g/m*3 6.1 C 0 km/h
868 13-01-2018 00:15:00 6.1 C 7.09 g/m*3 6.1 C 0 km/h
869 13-01-2018 00:20:00 6.1 C 7.09 g/m*3 6.1 C 0 km/h
870 13-01-2018 00:25:00 6.1 C 7.09 g/m*3 6.1 C 0 km/h
871 13-01-2018 00:30:00 6.1 C 7.09 g/m*3 6.1 C 0 km/h
872 13-01-2018 00:35:00 6.1 C 7.09 g/m*3 6.1 C 0 km/h
873 13-01-2018 00:40:00 6.1 C 7.09 g/m*3 6.1 C 0 km/h
874 13-01-2018 00:45:00 6.1 C 7.09 g/m*3 6.1 C 0 km/h
875 13-01-2018 00:50:00 6 C 7.04 g/m*3 6 C 0 km/h
Sensor: Nr:Datum:Temp:Abs-Feuchte:Windchill:Wind:
Aussen-T/F 876 13-01-2018 00:55:00 5.9 C 6.99 g/m*3 5.9 C 0 km/h
877 13-01-2018 01:00:00 5.8 C 6.95 g/m*3 5.8 C 0 km/h
878 13-01-2018 01:05:00 5.8 C 6.95 g/m*3 5.8 C 0 km/h
879 13-01-2018 01:10:00 5.8 C 6.95 g/m*3 5.8 C 0 km/h
880 13-01-2018 01:15:00 5.8 C 6.95 g/m*3 5.8 C 0 km/h
881 13-01-2018 01:20:00 5.8 C 6.95 g/m*3 5.8 C 0 km/h
882 13-01-2018 01:25:00 5.8 C 6.95 g/m*3 5.8 C 0 km/h
883 13-01-2018 01:30:00 5.8 C 6.95 g/m*3 5.8 C 0 km/h
884 13-01-2018 01:35:00 5.8 C 6.95 g/m*3 5.8 C 0 km/h
885 13-01-2018 01:40:00 5.8 C 6.95 g/m*3 5.8 C 0 km/h
886 13-01-2018 01:45:00 5.8 C 6.95 g/m*3 5.8 C 0 km/h
887 13-01-2018 01:50:00 5.9 C 6.99 g/m*3 5.9 C 0 km/h
888 13-01-2018 01:55:00 5.9 C 6.99 g/m*3 5.9 C 0 km/h
889 13-01-2018 02:00:00 5.9 C 6.99 g/m*3 5.9 C 0 km/h
890 13-01-2018 02:05:00 5.9 C 6.99 g/m*3 5.9 C 0 km/h
891 13-01-2018 02:10:00 5.9 C 6.99 g/m*3 5.9 C 0 km/h
892 13-01-2018 02:15:00 5.9 C 6.99 g/m*3 5.9 C 0 km/h
893 13-01-2018 02:20:00 5.9 C 6.99 g/m*3 5.9 C 0 km/h
894 13-01-2018 02:25:00 5.9 C 6.99 g/m*3 5.9 C 0 km/h
895 13-01-2018 02:30:00 5.9 C 6.99 g/m*3 5.9 C 0 km/h
896 13-01-2018 02:35:00 5.9 C 6.99 g/m*3 5.9 C 0 km/h
897 13-01-2018 02:40:00 5.9 C 6.99 g/m*3 5.9 C 0 km/h
898 13-01-2018 02:45:00 5.9 C 6.99 g/m*3 5.9 C 0 km/h
899 13-01-2018 02:50:00 5.9 C 6.99 g/m*3 5.9 C 0 km/h
900 13-01-2018 02:55:00 5.9 C 6.99 g/m*3 5.9 C 0 km/h
Sensor: Nr:Datum:Temp:Abs-Feuchte:Windchill:Wind:
Aussen-T/F 901 13-01-2018 03:00:00 5.9 C 6.99 g/m*3 5.9 C 0 km/h
902 13-01-2018 03:05:00 5.8 C 6.95 g/m*3 5.8 C 0 km/h
903 13-01-2018 03:10:00 5.8 C 6.95 g/m*3 5.8 C 0 km/h
904 13-01-2018 03:15:00 5.8 C 6.95 g/m*3 5.8 C 0 km/h
905 13-01-2018 03:20:00 5.8 C 6.95 g/m*3 5.8 C 0 km/h
906 13-01-2018 03:25:00 5.8 C 6.95 g/m*3 5.8 C 0 km/h
907 13-01-2018 03:30:00 5.8 C 6.95 g/m*3 5.8 C 0 km/h
908 13-01-2018 03:35:00 5.8 C 6.95 g/m*3 5.8 C 0 km/h
909 13-01-2018 03:40:00 5.7 C 6.9 g/m*3 5.7 C 0 km/h
910 13-01-2018 03:45:00 5.7 C 6.9 g/m*3 5.7 C 0 km/h
911 13-01-2018 03:50:00 5.7 C 6.9 g/m*3 5.7 C 0 km/h
912 13-01-2018 03:55:00 5.7 C 6.9 g/m*3 5.7 C 0 km/h
913 13-01-2018 04:00:00 5.7 C 6.9 g/m*3 5.7 C 0 km/h
914 13-01-2018 04:05:00 5.7 C 6.9 g/m*3 5.7 C 0 km/h
915 13-01-2018 04:10:00 5.6 C 6.86 g/m*3 5.6 C 0 km/h
916 13-01-2018 04:15:00 5.6 C 6.86 g/m*3 5.6 C 0 km/h
917 13-01-2018 04:20:00 5.6 C 6.86 g/m*3 5.6 C 0 km/h
918 13-01-2018 04:25:00 5.6 C 6.86 g/m*3 5.6 C 0 km/h
919 13-01-2018 04:30:00 5.6 C 6.86 g/m*3 5.6 C 0 km/h
920 13-01-2018 04:35:00 5.6 C 6.86 g/m*3 5.6 C 0 km/h
921 13-01-2018 04:40:00 5.5 C 6.81 g/m*3 5.5 C 0 km/h
922 13-01-2018 04:45:00 5.5 C 6.81 g/m*3 5.5 C 0 km/h
923 13-01-2018 04:50:00 5.5 C 6.81 g/m*3 5.5 C 0 km/h
924 13-01-2018 04:55:00 5.4 C 6.77 g/m*3 5.4 C 0 km/h
925 13-01-2018 05:00:00 5.4 C 6.77 g/m*3 5.4 C 0 km/h
Sensor: Nr:Datum:Temp:Abs-Feuchte:Windchill:Wind:
Aussen-T/F 926 13-01-2018 05:05:00 5.4 C 6.77 g/m*3 5.4 C 0 km/h
927 13-01-2018 05:10:00 5.4 C 6.77 g/m*3 5.4 C 0 km/h
928 13-01-2018 05:15:00 5.4 C 6.77 g/m*3 5.4 C 0 km/h
929 13-01-2018 05:20:00 5.4 C 6.77 g/m*3 5.4 C 0 km/h
930 13-01-2018 05:25:00 5.4 C 6.77 g/m*3 5.4 C 0 km/h
931 13-01-2018 05:30:00 5.4 C 6.77 g/m*3 5.4 C 0 km/h
932 13-01-2018 05:35:00 5.3 C 6.72 g/m*3 5.3 C 0 km/h
933 13-01-2018 05:40:00 5.3 C 6.72 g/m*3 5.3 C 0 km/h
934 13-01-2018 05:45:00 5.3 C 6.72 g/m*3 5.3 C 0 km/h
935 13-01-2018 05:50:00 5.3 C 6.72 g/m*3 5.3 C 0 km/h
936 13-01-2018 05:55:00 5.3 C 6.72 g/m*3 5.3 C 0 km/h
937 13-01-2018 06:00:00 5.2 C 6.68 g/m*3 5.2 C 0 km/h
938 13-01-2018 06:05:00 5.2 C 6.68 g/m*3 5.2 C 0 km/h
939 13-01-2018 06:10:00 5.2 C 6.68 g/m*3 5.2 C 0 km/h
940 13-01-2018 06:15:00 5.1 C 6.63 g/m*3 5.1 C 1.6 km/h
941 13-01-2018 06:20:00 5.2 C 6.68 g/m*3 5.2 C 0 km/h
942 13-01-2018 06:25:00 5.1 C 6.63 g/m*3 5.1 C 0 km/h
943 13-01-2018 06:30:00 5.1 C 6.63 g/m*3 5.1 C 3.2 km/h
944 13-01-2018 06:35:00 5 C 6.59 g/m*3 5 C 3.2 km/h
945 13-01-2018 06:40:00 5 C 6.59 g/m*3 5 C 1.6 km/h
946 13-01-2018 06:45:00 4.9 C 6.55 g/m*3 4.9 C 4.8 km/h
947 13-01-2018 06:50:00 4.8 C 6.5 g/m*3 4.8 C 4.8 km/h
948 13-01-2018 06:55:00 4.8 C 6.5 g/m*3 4.8 C 0 km/h
949 13-01-2018 07:00:00 4.7 C 6.46 g/m*3 4.7 C 4.8 km/h
950 13-01-2018 07:05:00 4.7 C 6.46 g/m*3 4.7 C 4.8 km/h
Sensor: Nr:Datum:Temp:Abs-Feuchte:Windchill:Wind:
Aussen-T/F 951 13-01-2018 07:10:00 4.6 C 6.42 g/m*3 4.6 C 3.2 km/h
952 13-01-2018 07:15:00 4.6 C 6.42 g/m*3 4.6 C 0 km/h
953 13-01-2018 07:20:00 4.6 C 6.42 g/m*3 4.6 C 3.2 km/h
954 13-01-2018 07:25:00 4.6 C 6.42 g/m*3 4.6 C 0 km/h
955 13-01-2018 07:30:00 4.5 C 6.38 g/m*3 4.5 C 1.6 km/h
956 13-01-2018 07:35:00 4.5 C 6.38 g/m*3 4.5 C 0 km/h
957 13-01-2018 07:40:00 4.5 C 6.38 g/m*3 4.5 C 0 km/h
958 13-01-2018 07:45:00 4.4 C 6.33 g/m*3 4.4 C 0 km/h
959 13-01-2018 07:50:00 4.4 C 6.33 g/m*3 4.4 C 0 km/h
960 13-01-2018 07:55:00 4.4 C 6.33 g/m*3 4.4 C 0 km/h
961 13-01-2018 08:00:00 4.4 C 6.33 g/m*3 4.4 C 0 km/h
962 13-01-2018 08:05:00 4.4 C 6.33 g/m*3 4.4 C 0 km/h
963 13-01-2018 08:10:00 4.4 C 6.33 g/m*3 4.4 C 0 km/h
964 13-01-2018 08:15:00 4.4 C 6.33 g/m*3 2.9 C 6.4 km/h
965 13-01-2018 08:20:00 4.3 C 6.23 g/m*3 4.3 C 4.8 km/h
966 13-01-2018 08:25:00 4.3 C 6.23 g/m*3 4.3 C 3.2 km/h
967 13-01-2018 08:30:00 4.2 C 6.19 g/m*3 4.2 C 0 km/h
968 13-01-2018 08:35:00 4.2 C 6.19 g/m*3 2.17 C 8.1 km/h
969 13-01-2018 08:40:00 4.1 C 6.14 g/m*3 4.1 C 3.2 km/h
970 13-01-2018 08:45:00 4.1 C 6.08 g/m*3 4.1 C 3.2 km/h
971 13-01-2018 08:50:00 4 C 6.04 g/m*3 4 C 1.6 km/h
972 13-01-2018 08:55:00 4 C 6.04 g/m*3 4 C 1.6 km/h
973 13-01-2018 09:00:00 4 C 6.04 g/m*3 4 C 1.6 km/h
974 13-01-2018 09:05:00 4 C 6.04 g/m*3 4 C 1.6 km/h
975 13-01-2018 09:10:00 3.9 C 6 g/m*3 3.9 C 3.2 km/h
Sensor: Nr:Datum:Temp:Abs-Feuchte:Windchill:Wind:
Aussen-T/F 976 13-01-2018 09:15:00 3.9 C 5.94 g/m*3 3.9 C 4.8 km/h
977 13-01-2018 09:20:00 4 C 5.98 g/m*3 4 C 0 km/h
978 13-01-2018 09:25:00 4 C 5.98 g/m*3 4 C 0 km/h
979 13-01-2018 09:30:00 4.1 C 6.02 g/m*3 4.1 C 0 km/h
980 13-01-2018 09:35:00 4.1 C 6.08 g/m*3 4.1 C 0 km/h
981 13-01-2018 09:40:00 4.2 C 6.12 g/m*3 4.2 C 0 km/h
982 13-01-2018 09:45:00 4.2 C 6.12 g/m*3 4.2 C 0 km/h
983 13-01-2018 09:50:00 4.2 C 6.12 g/m*3 4.2 C 0 km/h
984 13-01-2018 09:55:00 4.2 C 6.12 g/m*3 4.2 C 0 km/h
985 13-01-2018 10:00:00 4.2 C 6.12 g/m*3 4.2 C 0 km/h
986 13-01-2018 10:05:00 4.3 C 6.1 g/m*3 4.3 C 4.8 km/h
987 13-01-2018 10:10:00 4.3 C 6.1 g/m*3 4.3 C 0 km/h
988 13-01-2018 10:15:00 4.3 C 6.1 g/m*3 4.3 C 0 km/h
989 13-01-2018 10:20:00 4.4 C 6.14 g/m*3 4.4 C 0 km/h
990 13-01-2018 10:25:00 4.4 C 6.07 g/m*3 4.4 C 1.6 km/h
991 13-01-2018 10:30:00 4.6 C 6.15 g/m*3 4.6 C 3.2 km/h
992 13-01-2018 10:35:00 4.6 C 6.15 g/m*3 4.6 C 3.2 km/h
993 13-01-2018 10:40:00 4.6 C 6.09 g/m*3 4.6 C 1.6 km/h
994 13-01-2018 10:45:00 4.7 C 6.13 g/m*3 4.7 C 0 km/h
995 13-01-2018 10:50:00 4.8 C 6.17 g/m*3 4.8 C 0 km/h
996 13-01-2018 10:55:00 4.8 C 6.17 g/m*3 4.8 C 3.2 km/h
997 13-01-2018 11:00:00 4.9 C 6.14 g/m*3 4.9 C 3.2 km/h
998 13-01-2018 11:05:00 5 C 6.18 g/m*3 5 C 3.2 km/h
999 13-01-2018 11:10:00 5.1 C 6.16 g/m*3 5.1 C 1.6 km/h
1000 13-01-2018 11:15:00 5.2 C 6.2 g/m*3 5.2 C 4.8 km/h
Sensor: Nr:Datum:Temp:Abs-Feuchte:Windchill:Wind:
Aussen-T/F 1001 13-01-2018 11:20:00 5.3 C 6.17 g/m*3 3.08 C 9.7 km/h
1002 13-01-2018 11:25:00 5.4 C 6.21 g/m*3 3.2 C 9.7 km/h
1003 13-01-2018 11:30:00 5.4 C 6.21 g/m*3 3.58 C 8.1 km/h
1004 13-01-2018 11:35:00 5.5 C 6.18 g/m*3 4.17 C 6.4 km/h
1005 13-01-2018 11:40:00 5.5 C 6.18 g/m*3 4.17 C 6.4 km/h
1006 13-01-2018 11:45:00 5.5 C 6.18 g/m*3 4.17 C 6.4 km/h
1007 13-01-2018 11:50:00 5.6 C 6.22 g/m*3 5.6 C 4.8 km/h
1008 13-01-2018 11:55:00 5.6 C 6.22 g/m*3 4.29 C 6.4 km/h
1009 13-01-2018 12:00:00 5.6 C 6.22 g/m*3 4.29 C 6.4 km/h
1010 13-01-2018 12:05:00 5.6 C 6.22 g/m*3 5.6 C 3.2 km/h
1011 13-01-2018 12:10:00 5.6 C 6.15 g/m*3 3.81 C 8.1 km/h
1012 13-01-2018 12:15:00 5.7 C 6.19 g/m*3 5.7 C 4.8 km/h
1013 13-01-2018 12:20:00 5.7 C 6.19 g/m*3 4.4 C 6.4 km/h
1014 13-01-2018 12:25:00 5.7 C 6.19 g/m*3 4.4 C 6.4 km/h
1015 13-01-2018 12:30:00 5.7 C 6.19 g/m*3 5.7 C 1.6 km/h
1016 13-01-2018 12:35:00 5.7 C 6.19 g/m*3 5.7 C 3.2 km/h
1017 13-01-2018 12:40:00 5.7 C 6.19 g/m*3 5.7 C 3.2 km/h
1018 13-01-2018 12:45:00 5.7 C 6.26 g/m*3 5.7 C 0 km/h
1019 13-01-2018 12:50:00 5.7 C 6.19 g/m*3 5.7 C 0 km/h
1020 13-01-2018 12:55:00 5.7 C 6.19 g/m*3 5.7 C 3.2 km/h
1021 13-01-2018 13:00:00 5.8 C 6.23 g/m*3 5.8 C 3.2 km/h
1022 13-01-2018 13:05:00 5.8 C 6.23 g/m*3 5.8 C 4.8 km/h
1023 13-01-2018 13:10:00 5.8 C 6.23 g/m*3 5.8 C 1.6 km/h
1024 13-01-2018 13:15:00 5.8 C 6.16 g/m*3 5.8 C 3.2 km/h
1025 13-01-2018 13:20:00 5.9 C 6.2 g/m*3 5.9 C 3.2 km/h
Sensor: Nr:Datum:Temp:Abs-Feuchte:Windchill:Wind:
Aussen-T/F 1026 13-01-2018 13:25:00 5.9 C 6.2 g/m*3 5.9 C 0 km/h
1027 13-01-2018 13:30:00 5.9 C 6.27 g/m*3 5.9 C 1.6 km/h
1028 13-01-2018 13:35:00 5.9 C 6.2 g/m*3 5.9 C 1.6 km/h
1029 13-01-2018 13:40:00 6 C 6.17 g/m*3 6 C 0 km/h
1030 13-01-2018 13:45:00 6 C 6.24 g/m*3 6 C 0 km/h
1031 13-01-2018 13:50:00 6.1 C 6.21 g/m*3 6.1 C 0 km/h
1032 13-01-2018 13:55:00 6.1 C 6.28 g/m*3 6.1 C 0 km/h
1033 13-01-2018 14:00:00 6.1 C 6.14 g/m*3 6.1 C 0 km/h
1034 13-01-2018 14:05:00 6.1 C 6.14 g/m*3 6.1 C 0 km/h
1035 13-01-2018 14:10:00 6.2 C 6.18 g/m*3 6.2 C 1.6 km/h
1036 13-01-2018 14:15:00 6.2 C 6.1 g/m*3 6.2 C 4.8 km/h
1037 13-01-2018 14:20:00 6.3 C 6.07 g/m*3 5.1 C 6.4 km/h
1038 13-01-2018 14:25:00 6.3 C 5.92 g/m*3 4.64 C 8.1 km/h
1039 13-01-2018 14:30:00 6.3 C 5.92 g/m*3 5.1 C 6.4 km/h
1040 13-01-2018 14:35:00 6.3 C 5.92 g/m*3 5.1 C 6.4 km/h
1041 13-01-2018 14:40:00 6.4 C 5.96 g/m*3 6.4 C 3.2 km/h
1042 13-01-2018 14:45:00 6.4 C 5.89 g/m*3 4.75 C 8.1 km/h
1043 13-01-2018 14:50:00 6.4 C 5.96 g/m*3 6.4 C 1.6 km/h
1044 13-01-2018 14:55:00 6.4 C 5.89 g/m*3 6.4 C 1.6 km/h
1045 13-01-2018 15:00:00 6.4 C 5.89 g/m*3 5.21 C 6.4 km/h
1046 13-01-2018 15:05:00 6.4 C 5.89 g/m*3 6.4 C 3.2 km/h
1047 13-01-2018 15:10:00 6.4 C 5.81 g/m*3 6.4 C 4.8 km/h
1048 13-01-2018 15:15:00 6.4 C 5.81 g/m*3 6.4 C 4.8 km/h
1049 13-01-2018 15:20:00 6.4 C 5.96 g/m*3 6.4 C 4.8 km/h
1050 13-01-2018 15:25:00 6.4 C 5.81 g/m*3 6.4 C 4.8 km/h
Sensor: Nr:Datum:Temp:Abs-Feuchte:Windchill:Wind:
Aussen-T/F 1051 13-01-2018 15:30:00 6.4 C 5.81 g/m*3 6.4 C 3.2 km/h
1052 13-01-2018 15:35:00 6.4 C 5.89 g/m*3 6.4 C 0 km/h
1053 13-01-2018 15:40:00 6.4 C 5.96 g/m*3 6.4 C 0 km/h
1054 13-01-2018 15:45:00 6.4 C 5.89 g/m*3 6.4 C 1.6 km/h
1055 13-01-2018 15:50:00 6.3 C 5.85 g/m*3 6.3 C 1.6 km/h
1056 13-01-2018 15:55:00 6.3 C 5.92 g/m*3 6.3 C 0 km/h
1057 13-01-2018 16:00:00 6.3 C 5.92 g/m*3 6.3 C 1.6 km/h
1058 13-01-2018 16:05:00 6.2 C 5.88 g/m*3 6.2 C 3.2 km/h
1059 13-01-2018 16:10:00 6.2 C 5.88 g/m*3 4.98 C 6.4 km/h
1060 13-01-2018 16:15:00 6.2 C 5.81 g/m*3 6.2 C 4.8 km/h
1061 13-01-2018 16:20:00 6.2 C 5.96 g/m*3 6.2 C 3.2 km/h
1062 13-01-2018 16:25:00 6.1 C 5.7 g/m*3 4.4 C 8.1 km/h
1063 13-01-2018 16:30:00 6.1 C 5.7 g/m*3 3.72 C 11.3 km/h
1064 13-01-2018 16:35:00 6.1 C 5.7 g/m*3 6.1 C 3.2 km/h
1065 13-01-2018 16:40:00 6.1 C 5.77 g/m*3 6.1 C 0 km/h
1066 13-01-2018 16:45:00 6 C 5.73 g/m*3 6 C 3.2 km/h
1067 13-01-2018 16:50:00 5.9 C 5.77 g/m*3 5.9 C 4.8 km/h
1068 13-01-2018 16:55:00 5.9 C 5.77 g/m*3 5.9 C 4.8 km/h
1069 13-01-2018 17:00:00 5.8 C 5.73 g/m*3 4.52 C 6.4 km/h
1070 13-01-2018 17:05:00 5.8 C 5.66 g/m*3 5.8 C 1.6 km/h
1071 13-01-2018 17:10:00 5.8 C 5.66 g/m*3 5.8 C 4.8 km/h
1072 13-01-2018 17:15:00 5.8 C 5.73 g/m*3 5.8 C 3.2 km/h
1073 13-01-2018 17:20:00 5.8 C 5.73 g/m*3 4.05 C 8.1 km/h
1074 13-01-2018 17:25:00 5.7 C 5.69 g/m*3 5.7 C 1.6 km/h
1075 13-01-2018 17:30:00 5.7 C 5.76 g/m*3 5.7 C 4.8 km/h
Sensor: Nr:Datum:Temp:Abs-Feuchte:Windchill:Wind:
Aussen-T/F 1076 13-01-2018 17:35:00 5.7 C 5.76 g/m*3 5.7 C 3.2 km/h
1077 13-01-2018 17:40:00 5.6 C 5.73 g/m*3 5.6 C 1.6 km/h
1078 13-01-2018 17:45:00 5.6 C 5.73 g/m*3 5.6 C 0 km/h
1079 13-01-2018 17:50:00 5.5 C 5.76 g/m*3 5.5 C 1.6 km/h
1080 13-01-2018 17:55:00 5.5 C 5.62 g/m*3 5.5 C 3.2 km/h
1081 13-01-2018 18:00:00 5.6 C 5.8 g/m*3 5.6 C 4.8 km/h
1082 13-01-2018 18:05:00 5.6 C 5.87 g/m*3 5.6 C 1.6 km/h
1083 13-01-2018 18:10:00 5.5 C 5.76 g/m*3 5.5 C 0 km/h
1084 13-01-2018 18:15:00 5.5 C 5.83 g/m*3 5.5 C 0 km/h
1085 13-01-2018 18:20:00 5.4 C 5.65 g/m*3 5.4 C 4.8 km/h
1086 13-01-2018 18:25:00 5.5 C 5.83 g/m*3 5.5 C 0 km/h
1087 13-01-2018 18:30:00 5.5 C 5.9 g/m*3 5.5 C 0 km/h
1088 13-01-2018 18:35:00 5.4 C 5.86 g/m*3 5.4 C 1.6 km/h
1089 13-01-2018 18:40:00 5.4 C 5.86 g/m*3 5.4 C 3.2 km/h
1090 13-01-2018 18:45:00 5.4 C 5.86 g/m*3 5.4 C 0 km/h
1091 13-01-2018 18:50:00 5.3 C 5.89 g/m*3 5.3 C 0 km/h
1092 13-01-2018 18:55:00 5.3 C 5.89 g/m*3 5.3 C 0 km/h
1093 13-01-2018 19:00:00 5.3 C 5.96 g/m*3 5.3 C 0 km/h
1094 13-01-2018 19:05:00 5.3 C 6.03 g/m*3 5.3 C 0 km/h
1095 13-01-2018 19:10:00 5.2 C 5.92 g/m*3 5.2 C 0 km/h
1096 13-01-2018 19:15:00 5.2 C 5.92 g/m*3 5.2 C 0 km/h
1097 13-01-2018 19:20:00 5.1 C 5.88 g/m*3 5.1 C 0 km/h
1098 13-01-2018 19:25:00 5.1 C 5.95 g/m*3 5.1 C 0 km/h
1099 13-01-2018 19:30:00 5.1 C 5.95 g/m*3 5.1 C 0 km/h
1100 13-01-2018 19:35:00 5.1 C 5.95 g/m*3 5.1 C 0 km/h
Sensor: Nr:Datum:Temp:Abs-Feuchte:Windchill:Wind:
Aussen-T/F 1101 13-01-2018 19:40:00 5.1 C 5.95 g/m*3 5.1 C 0 km/h
1102 13-01-2018 19:45:00 5.1 C 5.95 g/m*3 5.1 C 0 km/h
1103 13-01-2018 19:50:00 5.1 C 5.95 g/m*3 5.1 C 0 km/h
1104 13-01-2018 19:55:00 5.1 C 6.02 g/m*3 5.1 C 0 km/h
1105 13-01-2018 20:00:00 5.1 C 5.95 g/m*3 5.1 C 0 km/h
1106 13-01-2018 20:05:00 5.1 C 5.88 g/m*3 5.1 C 4.8 km/h
1107 13-01-2018 20:10:00 5.1 C 5.95 g/m*3 5.1 C 0 km/h
1108 13-01-2018 20:15:00 5.1 C 5.88 g/m*3 5.1 C 1.6 km/h
1109 13-01-2018 20:20:00 5.1 C 5.88 g/m*3 5.1 C 0 km/h
1110 13-01-2018 20:25:00 5.1 C 5.88 g/m*3 5.1 C 0 km/h
1111 13-01-2018 20:30:00 5.2 C 5.99 g/m*3 5.2 C 0 km/h
1112 13-01-2018 20:35:00 5.1 C 5.88 g/m*3 3.23 C 8.1 km/h
1113 13-01-2018 20:40:00 5.2 C 5.92 g/m*3 5.2 C 3.2 km/h
1114 13-01-2018 20:45:00 5.2 C 5.92 g/m*3 5.2 C 0 km/h
1115 13-01-2018 20:50:00 5.2 C 5.92 g/m*3 5.2 C 0 km/h
1116 13-01-2018 20:55:00 5.2 C 5.92 g/m*3 5.2 C 1.6 km/h
1117 13-01-2018 21:00:00 5.2 C 5.99 g/m*3 5.2 C 0 km/h
1118 13-01-2018 21:05:00 5.2 C 5.99 g/m*3 5.2 C 0 km/h
1119 13-01-2018 21:10:00 5.1 C 5.88 g/m*3 5.1 C 0 km/h
1120 13-01-2018 21:15:00 5.1 C 5.95 g/m*3 5.1 C 0 km/h
1121 13-01-2018 21:20:00 5.1 C 5.95 g/m*3 5.1 C 0 km/h
1122 13-01-2018 21:25:00 5.1 C 5.95 g/m*3 5.1 C 3.2 km/h
1123 13-01-2018 21:30:00 5.1 C 5.95 g/m*3 5.1 C 0 km/h
1124 13-01-2018 21:35:00 5 C 5.91 g/m*3 5 C 1.6 km/h
1125 13-01-2018 21:40:00 5 C 5.78 g/m*3 5 C 0 km/h
Sensor: Nr:Datum:Temp:Abs-Feuchte:Windchill:Wind:
Aussen-T/F 1126 13-01-2018 21:45:00 5 C 5.84 g/m*3 5 C 4.8 km/h
1127 13-01-2018 21:50:00 5.1 C 5.88 g/m*3 5.1 C 3.2 km/h
1128 13-01-2018 21:55:00 5.1 C 5.81 g/m*3 5.1 C 4.8 km/h
1129 13-01-2018 22:00:00 5.2 C 5.92 g/m*3 5.2 C 0 km/h
1130 13-01-2018 22:05:00 5.2 C 5.85 g/m*3 5.2 C 0 km/h
1131 13-01-2018 22:10:00 5.1 C 5.81 g/m*3 5.1 C 3.2 km/h
1132 13-01-2018 22:15:00 5.1 C 5.75 g/m*3 5.1 C 1.6 km/h
1133 13-01-2018 22:20:00 5.2 C 5.85 g/m*3 5.2 C 3.2 km/h
1134 13-01-2018 22:25:00 5.2 C 5.78 g/m*3 5.2 C 0 km/h
1135 13-01-2018 22:30:00 5.2 C 5.85 g/m*3 5.2 C 0 km/h
1136 13-01-2018 22:35:00 5.2 C 5.85 g/m*3 5.2 C 4.8 km/h
1137 13-01-2018 22:40:00 5.2 C 5.85 g/m*3 3.34 C 8.1 km/h
1138 13-01-2018 22:45:00 5.2 C 5.85 g/m*3 5.2 C 0 km/h
1139 13-01-2018 22:50:00 5.2 C 5.85 g/m*3 5.2 C 1.6 km/h
1140 13-01-2018 22:55:00 5.1 C 5.75 g/m*3 5.1 C 3.2 km/h
1141 13-01-2018 23:00:00 5.1 C 5.75 g/m*3 5.1 C 3.2 km/h
1142 13-01-2018 23:05:00 5.2 C 5.85 g/m*3 5.2 C 3.2 km/h
1143 13-01-2018 23:10:00 5.2 C 5.85 g/m*3 5.2 C 3.2 km/h
1144 13-01-2018 23:15:00 5.1 C 5.81 g/m*3 5.1 C 1.6 km/h
1145 13-01-2018 23:20:00 5.1 C 5.88 g/m*3 5.1 C 0 km/h
1146 13-01-2018 23:25:00 5.1 C 5.81 g/m*3 5.1 C 1.6 km/h
1147 13-01-2018 23:30:00 5.1 C 5.81 g/m*3 5.1 C 0 km/h
1148 13-01-2018 23:35:00 5 C 5.78 g/m*3 5 C 1.6 km/h
1149 13-01-2018 23:40:00 5 C 5.78 g/m*3 5 C 1.6 km/h
1150 13-01-2018 23:45:00 5 C 5.78 g/m*3 5 C 0 km/h
Sensor: Nr:Datum:Temp:Abs-Feuchte:Windchill:Wind:
Aussen-T/F 1151 13-01-2018 23:50:00 5 C 5.78 g/m*3 5 C 4.8 km/h
1152 13-01-2018 23:55:00 5.1 C 5.75 g/m*3 3.71 C 6.4 km/h
1153 14-01-2018 00:00:00 5.1 C 5.81 g/m*3 5.1 C 1.6 km/h
1154 14-01-2018 00:05:00 5.1 C 5.81 g/m*3 5.1 C 0 km/h
1155 14-01-2018 00:10:00 5.1 C 5.81 g/m*3 5.1 C 0 km/h
1156 14-01-2018 00:15:00 5 C 5.78 g/m*3 5 C 3.2 km/h
1157 14-01-2018 00:20:00 4.9 C 5.67 g/m*3 4.9 C 3.2 km/h
1158 14-01-2018 00:25:00 4.9 C 5.81 g/m*3 4.9 C 4.8 km/h
1159 14-01-2018 00:30:00 4.9 C 5.74 g/m*3 4.9 C 0 km/h
1160 14-01-2018 00:35:00 4.9 C 5.74 g/m*3 4.9 C 3.2 km/h
1161 14-01-2018 00:40:00 4.9 C 5.67 g/m*3 4.9 C 4.8 km/h
1162 14-01-2018 00:45:00 4.9 C 5.67 g/m*3 4.9 C 1.6 km/h
1163 14-01-2018 00:50:00 4.9 C 5.67 g/m*3 4.9 C 1.6 km/h
1164 14-01-2018 00:55:00 4.8 C 5.63 g/m*3 4.8 C 1.6 km/h
1165 14-01-2018 01:00:00 4.8 C 5.63 g/m*3 4.8 C 4.8 km/h
1166 14-01-2018 01:05:00 4.8 C 5.63 g/m*3 4.8 C 3.2 km/h
1167 14-01-2018 01:10:00 4.8 C 5.63 g/m*3 3.36 C 6.4 km/h
1168 14-01-2018 01:15:00 4.8 C 5.63 g/m*3 4.8 C 0 km/h
1169 14-01-2018 01:20:00 4.8 C 5.63 g/m*3 4.8 C 1.6 km/h
1170 14-01-2018 01:25:00 4.8 C 5.57 g/m*3 2.87 C 8.1 km/h
1171 14-01-2018 01:30:00 4.8 C 5.57 g/m*3 4.8 C 1.6 km/h
1172 14-01-2018 01:35:00 4.8 C 5.57 g/m*3 3.36 C 6.4 km/h
1173 14-01-2018 01:40:00 4.8 C 5.5 g/m*3 4.8 C 4.8 km/h
1174 14-01-2018 01:45:00 4.8 C 5.5 g/m*3 3.36 C 6.4 km/h
1175 14-01-2018 01:50:00 4.8 C 5.57 g/m*3 4.8 C 3.2 km/h
Sensor: Nr:Datum:Temp:Abs-Feuchte:Windchill:Wind:
Aussen-T/F 1176 14-01-2018 01:55:00 4.8 C 5.5 g/m*3 2.87 C 8.1 km/h
1177 14-01-2018 02:00:00 4.8 C 5.63 g/m*3 4.8 C 4.8 km/h
1178 14-01-2018 02:05:00 4.8 C 5.63 g/m*3 4.8 C 4.8 km/h
1179 14-01-2018 02:10:00 4.7 C 5.53 g/m*3 4.7 C 4.8 km/h
1180 14-01-2018 02:15:00 4.7 C 5.53 g/m*3 3.25 C 6.4 km/h
1181 14-01-2018 02:20:00 4.7 C 5.6 g/m*3 4.7 C 3.2 km/h
1182 14-01-2018 02:25:00 4.7 C 5.53 g/m*3 4.7 C 3.2 km/h
1183 14-01-2018 02:30:00 4.7 C 5.53 g/m*3 4.7 C 1.6 km/h
1184 14-01-2018 02:35:00 4.6 C 5.49 g/m*3 4.6 C 4.8 km/h
1185 14-01-2018 02:40:00 4.6 C 5.56 g/m*3 4.6 C 4.8 km/h
1186 14-01-2018 02:45:00 4.6 C 5.56 g/m*3 4.6 C 1.6 km/h
1187 14-01-2018 02:50:00 4.6 C 5.56 g/m*3 3.13 C 6.4 km/h
1188 14-01-2018 02:55:00 4.6 C 5.56 g/m*3 4.6 C 0 km/h
1189 14-01-2018 03:00:00 4.5 C 5.59 g/m*3 4.5 C 4.8 km/h
1190 14-01-2018 03:05:00 4.4 C 5.48 g/m*3 2.4 C 8.1 km/h
1191 14-01-2018 03:10:00 4.4 C 5.48 g/m*3 4.4 C 1.6 km/h
1192 14-01-2018 03:15:00 4.4 C 5.55 g/m*3 4.4 C 1.6 km/h
1193 14-01-2018 03:20:00 4.4 C 5.55 g/m*3 4.4 C 0 km/h
1194 14-01-2018 03:25:00 4.4 C 5.62 g/m*3 4.4 C 0 km/h
1195 14-01-2018 03:30:00 4.3 C 5.58 g/m*3 4.3 C 3.2 km/h
1196 14-01-2018 03:35:00 4.2 C 5.48 g/m*3 4.2 C 1.6 km/h
1197 14-01-2018 03:40:00 4.2 C 5.54 g/m*3 4.2 C 0 km/h
1198 14-01-2018 03:45:00 4.2 C 5.54 g/m*3 4.2 C 0 km/h
1199 14-01-2018 03:50:00 4.2 C 5.54 g/m*3 4.2 C 0 km/h
1200 14-01-2018 03:55:00 4.2 C 5.54 g/m*3 4.2 C 0 km/h
Sensor: Nr:Datum:Temp:Abs-Feuchte:Windchill:Wind:
Aussen-T/F 1201 14-01-2018 04:00:00 4.1 C 5.57 g/m*3 4.1 C 0 km/h
1202 14-01-2018 04:05:00 4.1 C 5.5 g/m*3 4.1 C 0 km/h
1203 14-01-2018 04:10:00 4.1 C 5.57 g/m*3 4.1 C 0 km/h
1204 14-01-2018 04:15:00 4.1 C 5.5 g/m*3 4.1 C 3.2 km/h
1205 14-01-2018 04:20:00 4.1 C 5.5 g/m*3 4.1 C 3.2 km/h
1206 14-01-2018 04:25:00 4.1 C 5.5 g/m*3 4.1 C 1.6 km/h
1207 14-01-2018 04:30:00 4.1 C 5.5 g/m*3 4.1 C 4.8 km/h
1208 14-01-2018 04:35:00 4.1 C 5.44 g/m*3 2.55 C 6.4 km/h
1209 14-01-2018 04:40:00 4.1 C 5.5 g/m*3 4.1 C 4.8 km/h
1210 14-01-2018 04:45:00 4.1 C 5.44 g/m*3 4.1 C 0 km/h
1211 14-01-2018 04:50:00 4.1 C 5.5 g/m*3 4.1 C 4.8 km/h
1212 14-01-2018 04:55:00 4.1 C 5.44 g/m*3 4.1 C 1.6 km/h
1213 14-01-2018 05:00:00 4 C 5.4 g/m*3 4 C 1.6 km/h
1214 14-01-2018 05:05:00 4 C 5.4 g/m*3 4 C 0 km/h
1215 14-01-2018 05:10:00 3.9 C 5.37 g/m*3 3.9 C 3.2 km/h
1216 14-01-2018 05:15:00 3.9 C 5.43 g/m*3 3.9 C 4.8 km/h
1217 14-01-2018 05:20:00 3.9 C 5.37 g/m*3 3.9 C 4.8 km/h
1218 14-01-2018 05:25:00 3.9 C 5.37 g/m*3 3.9 C 4.8 km/h
1219 14-01-2018 05:30:00 3.9 C 5.37 g/m*3 3.9 C 1.6 km/h
1220 14-01-2018 05:35:00 3.9 C 5.37 g/m*3 3.9 C 0 km/h
1221 14-01-2018 05:40:00 3.8 C 5.4 g/m*3 3.8 C 1.6 km/h
1222 14-01-2018 05:45:00 3.8 C 5.4 g/m*3 3.8 C 0 km/h
1223 14-01-2018 05:50:00 3.8 C 5.33 g/m*3 3.8 C 0 km/h
1224 14-01-2018 05:55:00 3.7 C 5.3 g/m*3 3.7 C 3.2 km/h
1225 14-01-2018 06:00:00 3.7 C 5.3 g/m*3 3.7 C 4.8 km/h
Sensor: Nr:Datum:Temp:Abs-Feuchte:Windchill:Wind:
Aussen-T/F 1226 14-01-2018 06:05:00 3.7 C 5.3 g/m*3 3.7 C 1.6 km/h
1227 14-01-2018 06:10:00 3.7 C 5.3 g/m*3 3.7 C 0 km/h
1228 14-01-2018 06:15:00 3.6 C 5.26 g/m*3 1.98 C 6.4 km/h
1229 14-01-2018 06:20:00 3.6 C 5.26 g/m*3 3.6 C 3.2 km/h
1230 14-01-2018 06:25:00 3.6 C 5.26 g/m*3 3.6 C 1.6 km/h
1231 14-01-2018 06:30:00 3.6 C 5.26 g/m*3 3.6 C 3.2 km/h
1232 14-01-2018 06:35:00 3.6 C 5.26 g/m*3 3.6 C 3.2 km/h
1233 14-01-2018 06:40:00 3.5 C 5.23 g/m*3 3.5 C 0 km/h
1234 14-01-2018 06:45:00 3.4 C 5.19 g/m*3 3.4 C 4.8 km/h
1235 14-01-2018 06:50:00 3.4 C 5.19 g/m*3 3.4 C 1.6 km/h
1236 14-01-2018 06:55:00 3.3 C 5.16 g/m*3 3.3 C 3.2 km/h
1237 14-01-2018 07:00:00 3.3 C 5.1 g/m*3 3.3 C 4.8 km/h
1238 14-01-2018 07:05:00 3.3 C 5.16 g/m*3 3.3 C 0 km/h
1239 14-01-2018 07:10:00 3.2 C 5.12 g/m*3 3.2 C 1.6 km/h
1240 14-01-2018 07:15:00 3.2 C 5.12 g/m*3 3.2 C 0 km/h
1241 14-01-2018 07:20:00 3.1 C 5.15 g/m*3 3.1 C 1.6 km/h
1242 14-01-2018 07:25:00 2.9 C 5.08 g/m*3 2.9 C 0 km/h
1243 14-01-2018 07:30:00 2.7 C 5.07 g/m*3 2.7 C 0 km/h
1244 14-01-2018 07:35:00 2.5 C 5 g/m*3 2.5 C 0 km/h
1245 14-01-2018 07:40:00 2.4 C 5.02 g/m*3 2.4 C 0 km/h
1246 14-01-2018 07:45:00 2.3 C 4.99 g/m*3 2.3 C 0 km/h
1247 14-01-2018 07:50:00 2.2 C 5.01 g/m*3 2.2 C 0 km/h
1248 14-01-2018 07:55:00 2.1 C 4.98 g/m*3 2.1 C 0 km/h
1249 14-01-2018 08:00:00 2 C 4.95 g/m*3 2 C 0 km/h
1250 14-01-2018 08:05:00 1.9 C 4.91 g/m*3 1.9 C 1.6 km/h
Sensor: Nr:Datum:Temp:Abs-Feuchte:Windchill:Wind:
Aussen-T/F 1251 14-01-2018 08:10:00 1.9 C 4.97 g/m*3 1.9 C 1.6 km/h
1252 14-01-2018 08:15:00 1.9 C 4.97 g/m*3 1.9 C 1.6 km/h
1253 14-01-2018 08:20:00 1.9 C 4.97 g/m*3 1.9 C 0 km/h
1254 14-01-2018 08:25:00 1.9 C 4.97 g/m*3 1.9 C 0 km/h
1255 14-01-2018 08:30:00 2 C 5 g/m*3 2 C 0 km/h
1256 14-01-2018 08:35:00 2 C 5.06 g/m*3 2 C 0 km/h
1257 14-01-2018 08:40:00 2.1 C 5.09 g/m*3 2.1 C 1.6 km/h
1258 14-01-2018 08:45:00 2.1 C 5.09 g/m*3 2.1 C 0 km/h
1259 14-01-2018 08:50:00 2.2 C 5.13 g/m*3 2.2 C 0 km/h
1260 14-01-2018 08:55:00 2.3 C 5.16 g/m*3 2.3 C 0 km/h
1261 14-01-2018 09:00:00 2.3 C 5.16 g/m*3 2.3 C 0 km/h
1262 14-01-2018 09:05:00 2.4 C 5.2 g/m*3 2.4 C 3.2 km/h
1263 14-01-2018 09:10:00 2.6 C 5.15 g/m*3 2.6 C 3.2 km/h
1264 14-01-2018 09:15:00 2.7 C 5.13 g/m*3 2.7 C 1.6 km/h
1265 14-01-2018 09:20:00 2.8 C 5.16 g/m*3 2.8 C 4.8 km/h
1266 14-01-2018 09:25:00 2.9 C 5.14 g/m*3 2.9 C 1.6 km/h
1267 14-01-2018 09:30:00 3 C 5.17 g/m*3 3 C 3.2 km/h
1268 14-01-2018 09:35:00 3.1 C 5.15 g/m*3 1.4 C 6.4 km/h
1269 14-01-2018 09:40:00 3.2 C 5.12 g/m*3 3.2 C 4.8 km/h
1270 14-01-2018 09:45:00 3.2 C 5.06 g/m*3 0.58 C 9.7 km/h
1271 14-01-2018 09:50:00 3.3 C 5.1 g/m*3 1.63 C 6.4 km/h
1272 14-01-2018 09:55:00 3.3 C 5.1 g/m*3 3.3 C 0 km/h
1273 14-01-2018 10:00:00 3.4 C 5.13 g/m*3 3.4 C 4.8 km/h
1274 14-01-2018 10:05:00 3.4 C 5.13 g/m*3 3.4 C 4.8 km/h
1275 14-01-2018 10:10:00 3.4 C 5.07 g/m*3 3.4 C 3.2 km/h
Sensor: Nr:Datum:Temp:Abs-Feuchte:Windchill:Wind:
Aussen-T/F 1276 14-01-2018 10:15:00 3.5 C 5.1 g/m*3 1.86 C 6.4 km/h
1277 14-01-2018 10:20:00 3.6 C 5.14 g/m*3 3.6 C 4.8 km/h
1278 14-01-2018 10:25:00 3.6 C 5.14 g/m*3 1.98 C 6.4 km/h
1279 14-01-2018 10:30:00 3.6 C 5.14 g/m*3 3.6 C 4.8 km/h
1280 14-01-2018 10:35:00 3.6 C 5.14 g/m*3 3.6 C 4.8 km/h
1281 14-01-2018 10:40:00 3.6 C 5.08 g/m*3 1.98 C 6.4 km/h
1282 14-01-2018 10:45:00 3.7 C 5.11 g/m*3 2.09 C 6.4 km/h
1283 14-01-2018 10:50:00 3.7 C 5.11 g/m*3 2.09 C 6.4 km/h
1284 14-01-2018 10:55:00 3.7 C 5.11 g/m*3 2.09 C 6.4 km/h
1285 14-01-2018 11:00:00 3.7 C 5.11 g/m*3 1.58 C 8.1 km/h
1286 14-01-2018 11:05:00 3.7 C 5.11 g/m*3 1.58 C 8.1 km/h
1287 14-01-2018 11:10:00 3.8 C 5.14 g/m*3 3.8 C 4.8 km/h
1288 14-01-2018 11:15:00 3.8 C 5.14 g/m*3 3.8 C 4.8 km/h
1289 14-01-2018 11:20:00 3.8 C 5.14 g/m*3 3.8 C 4.8 km/h
1290 14-01-2018 11:25:00 3.9 C 5.18 g/m*3 2.32 C 6.4 km/h
1291 14-01-2018 11:30:00 3.9 C 5.05 g/m*3 2.32 C 6.4 km/h
1292 14-01-2018 11:35:00 3.9 C 5.05 g/m*3 1.82 C 8.1 km/h
1293 14-01-2018 11:40:00 3.9 C 5.12 g/m*3 2.32 C 6.4 km/h
1294 14-01-2018 11:45:00 3.9 C 5.05 g/m*3 2.32 C 6.4 km/h
1295 14-01-2018 11:50:00 3.9 C 5.12 g/m*3 2.32 C 6.4 km/h
1296 14-01-2018 11:55:00 4 C 5.09 g/m*3 2.44 C 6.4 km/h
1297 14-01-2018 12:00:00 4 C 5.09 g/m*3 1.93 C 8.1 km/h
1298 14-01-2018 12:05:00 4 C 5.09 g/m*3 1.93 C 8.1 km/h
1299 14-01-2018 12:10:00 4.1 C 5.12 g/m*3 4.1 C 4.8 km/h
1300 14-01-2018 12:15:00 4.1 C 5.12 g/m*3 4.1 C 4.8 km/h
Sensor: Nr:Datum:Temp:Abs-Feuchte:Windchill:Wind:
Aussen-T/F 1301 14-01-2018 12:20:00 4.1 C 5.18 g/m*3 4.1 C 4.8 km/h
1302 14-01-2018 12:25:00 4.2 C 5.15 g/m*3 4.2 C 4.8 km/h
1303 14-01-2018 12:30:00 4.2 C 5.15 g/m*3 4.2 C 4.8 km/h
1304 14-01-2018 12:35:00 4.2 C 5.15 g/m*3 4.2 C 4.8 km/h
1305 14-01-2018 12:40:00 4.3 C 5.12 g/m*3 2.78 C 6.4 km/h
1306 14-01-2018 12:45:00 4.3 C 5.12 g/m*3 4.3 C 4.8 km/h
1307 14-01-2018 12:50:00 4.3 C 5.12 g/m*3 4.3 C 4.8 km/h
1308 14-01-2018 12:55:00 4.3 C 5.06 g/m*3 2.78 C 6.4 km/h
1309 14-01-2018 13:00:00 4.3 C 5.12 g/m*3 4.3 C 3.2 km/h
1310 14-01-2018 13:05:00 4.4 C 5.16 g/m*3 2.9 C 6.4 km/h
1311 14-01-2018 13:10:00 4.4 C 5.09 g/m*3 4.4 C 1.6 km/h
1312 14-01-2018 13:15:00 4.4 C 5.16 g/m*3 4.4 C 3.2 km/h
1313 14-01-2018 13:20:00 4.5 C 5.13 g/m*3 3.02 C 6.4 km/h
1314 14-01-2018 13:25:00 4.5 C 5.13 g/m*3 4.5 C 4.8 km/h
1315 14-01-2018 13:30:00 4.4 C 5.03 g/m*3 2.9 C 6.4 km/h
1316 14-01-2018 13:35:00 4.5 C 5.13 g/m*3 4.5 C 3.2 km/h
1317 14-01-2018 13:40:00 4.6 C 5.23 g/m*3 4.6 C 3.2 km/h
1318 14-01-2018 13:45:00 4.6 C 5.16 g/m*3 3.13 C 6.4 km/h
1319 14-01-2018 13:50:00 4.6 C 5.16 g/m*3 2.25 C 9.7 km/h
1320 14-01-2018 13:55:00 4.6 C 5.16 g/m*3 4.6 C 3.2 km/h
1321 14-01-2018 14:00:00 4.6 C 5.23 g/m*3 4.6 C 1.6 km/h
1322 14-01-2018 14:05:00 4.6 C 5.16 g/m*3 4.6 C 4.8 km/h
1323 14-01-2018 14:10:00 4.6 C 5.1 g/m*3 4.6 C 4.8 km/h
1324 14-01-2018 14:15:00 4.6 C 5.16 g/m*3 4.6 C 3.2 km/h
1325 14-01-2018 14:20:00 4.5 C 5.06 g/m*3 2.52 C 8.1 km/h
Sensor: Nr:Datum:Temp:Abs-Feuchte:Windchill:Wind:
Aussen-T/F 1326 14-01-2018 14:25:00 4.5 C 5.06 g/m*3 4.5 C 3.2 km/h
1327 14-01-2018 14:30:00 4.5 C 5.26 g/m*3 3.02 C 6.4 km/h
1328 14-01-2018 14:35:00 4.6 C 5.23 g/m*3 4.6 C 4.8 km/h
1329 14-01-2018 14:40:00 4.6 C 5.23 g/m*3 4.6 C 4.8 km/h
1330 14-01-2018 14:45:00 4.6 C 5.16 g/m*3 4.6 C 1.6 km/h
1331 14-01-2018 14:50:00 4.6 C 5.23 g/m*3 4.6 C 4.8 km/h
1332 14-01-2018 14:55:00 4.7 C 5.2 g/m*3 4.7 C 4.8 km/h
1333 14-01-2018 15:00:00 4.7 C 5.26 g/m*3 2.37 C 9.7 km/h
1334 14-01-2018 15:05:00 4.6 C 5.1 g/m*3 1.91 C 11.3 km/h
1335 14-01-2018 15:10:00 4.6 C 5.23 g/m*3 4.6 C 1.6 km/h
1336 14-01-2018 15:15:00 4.6 C 5.16 g/m*3 4.6 C 1.6 km/h
1337 14-01-2018 15:20:00 4.6 C 5.23 g/m*3 4.6 C 1.6 km/h
1338 14-01-2018 15:25:00 4.6 C 5.16 g/m*3 3.13 C 6.4 km/h
1339 14-01-2018 15:30:00 4.6 C 5.16 g/m*3 4.6 C 4.8 km/h
1340 14-01-2018 15:35:00 4.6 C 5.16 g/m*3 3.13 C 6.4 km/h
1341 14-01-2018 15:40:00 4.5 C 5.19 g/m*3 4.5 C 3.2 km/h
1342 14-01-2018 15:45:00 4.6 C 5.23 g/m*3 4.6 C 1.6 km/h
1343 14-01-2018 15:50:00 4.5 C 5.13 g/m*3 4.5 C 3.2 km/h
1344 14-01-2018 15:55:00 4.5 C 5.13 g/m*3 4.5 C 4.8 km/h
1345 14-01-2018 16:00:00 4.5 C 5.13 g/m*3 4.5 C 0 km/h
1346 14-01-2018 16:05:00 4.4 C 5.16 g/m*3 4.4 C 0 km/h
1347 14-01-2018 16:10:00 4.4 C 5.22 g/m*3 4.4 C 0 km/h
1348 14-01-2018 16:15:00 4.3 C 5.25 g/m*3 4.3 C 1.6 km/h
1349 14-01-2018 16:20:00 4.2 C 5.22 g/m*3 4.2 C 0 km/h
1350 14-01-2018 16:25:00 4.1 C 5.25 g/m*3 4.1 C 0 km/h
Sensor: Nr:Datum:Temp:Abs-Feuchte:Windchill:Wind:
Aussen-T/F 1351 14-01-2018 16:30:00 4 C 5.21 g/m*3 4 C 0 km/h
1352 14-01-2018 16:35:00 3.9 C 5.18 g/m*3 3.9 C 0 km/h
1353 14-01-2018 16:40:00 3.8 C 5.21 g/m*3 3.8 C 0 km/h
1354 14-01-2018 16:45:00 3.7 C 5.17 g/m*3 3.7 C 0 km/h
1355 14-01-2018 16:50:00 3.6 C 5.14 g/m*3 3.6 C 0 km/h
1356 14-01-2018 16:55:00 3.6 C 5.14 g/m*3 3.6 C 0 km/h
1357 14-01-2018 17:00:00 3.6 C 5.2 g/m*3 3.6 C 0 km/h
1358 14-01-2018 17:05:00 3.5 C 5.16 g/m*3 3.5 C 0 km/h
1359 14-01-2018 17:10:00 3.4 C 5.13 g/m*3 3.4 C 0 km/h
1360 14-01-2018 17:15:00 3.3 C 5.16 g/m*3 3.3 C 0 km/h
1361 14-01-2018 17:20:00 3.2 C 5.12 g/m*3 3.2 C 0 km/h
1362 14-01-2018 17:25:00 3.2 C 5.12 g/m*3 3.2 C 0 km/h
1363 14-01-2018 17:30:00 3.1 C 5.15 g/m*3 3.1 C 1.6 km/h
1364 14-01-2018 17:35:00 2.9 C 5.02 g/m*3 2.9 C 1.6 km/h
1365 14-01-2018 17:40:00 2.8 C 5.04 g/m*3 2.8 C 0 km/h
1366 14-01-2018 17:45:00 2.7 C 5.01 g/m*3 2.7 C 0 km/h
1367 14-01-2018 17:50:00 2.6 C 4.98 g/m*3 2.6 C 0 km/h
1368 14-01-2018 17:55:00 2.4 C 4.91 g/m*3 2.4 C 0 km/h
1369 14-01-2018 18:00:00 2.3 C 4.88 g/m*3 2.3 C 3.2 km/h
1370 14-01-2018 18:05:00 2.2 C 4.9 g/m*3 2.2 C 3.2 km/h
1371 14-01-2018 18:10:00 2 C 4.83 g/m*3 2 C 4.8 km/h
1372 14-01-2018 18:15:00 1.9 C 4.86 g/m*3 1.9 C 4.8 km/h
1373 14-01-2018 18:20:00 1.8 C 4.82 g/m*3 1.8 C 4.8 km/h
1374 14-01-2018 18:25:00 1.7 C 4.79 g/m*3 1.7 C 3.2 km/h
1375 14-01-2018 18:30:00 1.6 C 4.81 g/m*3 1.6 C 4.8 km/h
Sensor: Nr:Datum:Temp:Abs-Feuchte:Windchill:Wind:
Aussen-T/F 1376 14-01-2018 18:35:00 1.4 C 4.75 g/m*3 1.4 C 3.2 km/h
1377 14-01-2018 18:40:00 1.4 C 4.75 g/m*3 1.4 C 3.2 km/h
1378 14-01-2018 18:45:00 1.3 C 4.77 g/m*3 1.3 C 4.8 km/h
1379 14-01-2018 18:50:00 1.3 C 4.77 g/m*3 1.3 C 4.8 km/h
1380 14-01-2018 18:55:00 1.3 C 4.77 g/m*3 1.3 C 4.8 km/h
1381 14-01-2018 19:00:00 1.3 C 4.77 g/m*3 1.3 C 4.8 km/h
1382 14-01-2018 19:05:00 1.2 C 4.74 g/m*3 1.2 C 3.2 km/h
1383 14-01-2018 19:10:00 1.1 C 4.7 g/m*3 1.1 C 4.8 km/h
1384 14-01-2018 19:15:00 1.1 C 4.7 g/m*3 1.1 C 4.8 km/h
1385 14-01-2018 19:20:00 1.1 C 4.7 g/m*3 1.1 C 4.8 km/h
1386 14-01-2018 19:25:00 1 C 4.67 g/m*3 1 C 4.8 km/h
1387 14-01-2018 19:30:00 0.9 C 4.64 g/m*3 0.9 C 3.2 km/h
1388 14-01-2018 19:35:00 0.8 C 4.61 g/m*3 0.8 C 3.2 km/h
1389 14-01-2018 19:40:00 0.8 C 4.61 g/m*3 0.8 C 1.6 km/h
1390 14-01-2018 19:45:00 0.7 C 4.63 g/m*3 0.7 C 3.2 km/h
1391 14-01-2018 19:50:00 0.7 C 4.63 g/m*3 0.7 C 3.2 km/h
1392 14-01-2018 19:55:00 0.6 C 4.6 g/m*3 0.6 C 3.2 km/h
1393 14-01-2018 20:00:00 0.5 C 4.56 g/m*3 0.5 C 3.2 km/h
1394 14-01-2018 20:05:00 0.5 C 4.56 g/m*3 0.5 C 3.2 km/h
1395 14-01-2018 20:10:00 0.4 C 4.53 g/m*3 0.4 C 3.2 km/h
1396 14-01-2018 20:15:00 0.4 C 4.53 g/m*3 0.4 C 0 km/h
1397 14-01-2018 20:20:00 0.3 C 4.5 g/m*3 0.3 C 1.6 km/h
1398 14-01-2018 20:25:00 0.3 C 4.5 g/m*3 0.3 C 0 km/h
1399 14-01-2018 20:30:00 0.2 C 4.52 g/m*3 0.2 C 0 km/h
1400 14-01-2018 20:35:00 0.2 C 4.52 g/m*3 0.2 C 0 km/h
Sensor: Nr:Datum:Temp:Abs-Feuchte:Windchill:Wind:
Aussen-T/F 1401 14-01-2018 20:40:00 0.1 C 4.49 g/m*3 0.1 C 0 km/h
1402 14-01-2018 20:45:00 0 C 4.46 g/m*3 0 C 0 km/h
1403 14-01-2018 20:50:00 -0.1 C 4.43 g/m*3 -0.1 C 0 km/h
1404 14-01-2018 20:55:00 -0.2 C 4.4 g/m*3 -0.2 C 0 km/h
1405 14-01-2018 21:00:00 -0.3 C 4.37 g/m*3 -0.3 C 0 km/h
1406 14-01-2018 21:05:00 -0.3 C 4.37 g/m*3 -0.3 C 0 km/h
1407 14-01-2018 21:10:00 -0.4 C 4.34 g/m*3 -0.4 C 0 km/h
1408 14-01-2018 21:15:00 -0.4 C 4.38 g/m*3 -0.4 C 0 km/h
1409 14-01-2018 21:20:00 -0.4 C 4.38 g/m*3 -0.4 C 0 km/h
1410 14-01-2018 21:25:00 -0.4 C 4.38 g/m*3 -0.4 C 0 km/h
1411 14-01-2018 21:30:00 -0.4 C 4.38 g/m*3 -0.4 C 0 km/h
1412 14-01-2018 21:35:00 -0.4 C 4.38 g/m*3 -0.4 C 0 km/h
1413 14-01-2018 21:40:00 -0.4 C 4.38 g/m*3 -0.4 C 0 km/h
1414 14-01-2018 21:45:00 -0.5 C 4.35 g/m*3 -0.5 C 0 km/h
1415 14-01-2018 21:50:00 -0.6 C 4.32 g/m*3 -0.6 C 0 km/h
1416 14-01-2018 21:55:00 -0.6 C 4.32 g/m*3 -0.6 C 0 km/h
1417 14-01-2018 22:00:00 -0.6 C 4.32 g/m*3 -0.6 C 0 km/h
1418 14-01-2018 22:05:00 -0.7 C 4.29 g/m*3 -0.7 C 0 km/h
1419 14-01-2018 22:10:00 -0.7 C 4.29 g/m*3 -0.7 C 0 km/h
1420 14-01-2018 22:15:00 -0.7 C 4.34 g/m*3 -0.7 C 0 km/h
1421 14-01-2018 22:20:00 -0.7 C 4.34 g/m*3 -0.7 C 0 km/h
1422 14-01-2018 22:25:00 -0.7 C 4.34 g/m*3 -0.7 C 0 km/h
1423 14-01-2018 22:30:00 -0.7 C 4.34 g/m*3 -0.7 C 0 km/h
1424 14-01-2018 22:35:00 -0.7 C 4.34 g/m*3 -0.7 C 0 km/h
1425 14-01-2018 22:40:00 -0.8 C 4.31 g/m*3 -0.8 C 0 km/h
Sensor: Nr:Datum:Temp:Abs-Feuchte:Windchill:Wind:
Aussen-T/F 1426 14-01-2018 22:45:00 -0.8 C 4.31 g/m*3 -0.8 C 0 km/h
1427 14-01-2018 22:50:00 -0.9 C 4.28 g/m*3 -0.9 C 0 km/h
1428 14-01-2018 22:55:00 -0.9 C 4.28 g/m*3 -0.9 C 0 km/h
1429 14-01-2018 23:00:00 -1 C 4.25 g/m*3 -1 C 0 km/h
1430 14-01-2018 23:05:00 -1 C 4.25 g/m*3 -1 C 0 km/h
1431 14-01-2018 23:10:00 -1.1 C 4.22 g/m*3 -1.1 C 0 km/h
1432 14-01-2018 23:15:00 -1.1 C 4.22 g/m*3 -1.1 C 0 km/h
1433 14-01-2018 23:20:00 -1.1 C 4.22 g/m*3 -1.1 C 0 km/h
1434 14-01-2018 23:25:00 -1.1 C 4.22 g/m*3 -1.1 C 0 km/h
1435 14-01-2018 23:30:00 -1.2 C 4.19 g/m*3 -1.2 C 0 km/h
1436 14-01-2018 23:35:00 -1.2 C 4.19 g/m*3 -1.2 C 0 km/h
1437 14-01-2018 23:40:00 -1.2 C 4.19 g/m*3 -1.2 C 0 km/h
1438 14-01-2018 23:45:00 -1.2 C 4.19 g/m*3 -1.2 C 0 km/h
1439 14-01-2018 23:50:00 -1.2 C 4.19 g/m*3 -1.2 C 0 km/h
1440 14-01-2018 23:55:00 -1.2 C 4.19 g/m*3 -1.2 C 0 km/h
1441 15-01-2018 00:00:00 -1.1 C 4.26 g/m*3 -1.1 C 0 km/h
1442 15-01-2018 00:05:00 -0.9 C 4.32 g/m*3 -0.9 C 0 km/h
1443 15-01-2018 00:10:00 -0.8 C 4.35 g/m*3 -0.8 C 0 km/h
1444 15-01-2018 00:15:00 -0.8 C 4.35 g/m*3 -0.8 C 0 km/h
1445 15-01-2018 00:20:00 -0.7 C 4.39 g/m*3 -0.7 C 0 km/h
1446 15-01-2018 00:25:00 -0.6 C 4.42 g/m*3 -0.6 C 0 km/h
1447 15-01-2018 00:30:00 -0.6 C 4.42 g/m*3 -0.6 C 0 km/h
1448 15-01-2018 00:35:00 -0.6 C 4.42 g/m*3 -0.6 C 0 km/h
1449 15-01-2018 00:40:00 -0.6 C 4.42 g/m*3 -0.6 C 0 km/h
1450 15-01-2018 00:45:00 -0.6 C 4.42 g/m*3 -0.6 C 0 km/h
Sensor: Nr:Datum:Temp:Abs-Feuchte:Windchill:Wind:
Aussen-T/F 1451 15-01-2018 00:50:00 -0.7 C 4.39 g/m*3 -0.7 C 0 km/h
1452 15-01-2018 00:55:00 -0.7 C 4.39 g/m*3 -0.7 C 0 km/h
1453 15-01-2018 01:00:00 -0.8 C 4.35 g/m*3 -0.8 C 0 km/h
1454 15-01-2018 01:05:00 -0.8 C 4.35 g/m*3 -0.8 C 0 km/h
1455 15-01-2018 01:10:00 -0.9 C 4.32 g/m*3 -0.9 C 0 km/h
1456 15-01-2018 01:15:00 -1 C 4.29 g/m*3 -1 C 0 km/h
1457 15-01-2018 01:20:00 -1.1 C 4.26 g/m*3 -1.1 C 0 km/h
1458 15-01-2018 01:25:00 -1.1 C 4.26 g/m*3 -1.1 C 0 km/h
1459 15-01-2018 01:30:00 -1.1 C 4.26 g/m*3 -1.1 C 0 km/h
1460 15-01-2018 01:35:00 -1.1 C 4.26 g/m*3 -1.1 C 0 km/h
1461 15-01-2018 01:40:00 -0.9 C 4.32 g/m*3 -0.9 C 0 km/h
1462 15-01-2018 01:45:00 -0.8 C 4.35 g/m*3 -0.8 C 0 km/h
1463 15-01-2018 01:50:00 -0.8 C 4.35 g/m*3 -0.8 C 0 km/h
1464 15-01-2018 01:55:00 -0.8 C 4.35 g/m*3 -0.8 C 0 km/h
1465 15-01-2018 02:00:00 -0.8 C 4.35 g/m*3 -0.8 C 0 km/h
1466 15-01-2018 02:05:00 -0.7 C 4.39 g/m*3 -0.7 C 0 km/h
1467 15-01-2018 02:10:00 -0.7 C 4.39 g/m*3 -0.7 C 0 km/h
1468 15-01-2018 02:15:00 -0.7 C 4.39 g/m*3 -0.7 C 0 km/h
1469 15-01-2018 02:20:00 -0.7 C 4.39 g/m*3 -0.7 C 0 km/h
1470 15-01-2018 02:25:00 -0.7 C 4.39 g/m*3 -0.7 C 0 km/h
1471 15-01-2018 02:30:00 -0.6 C 4.42 g/m*3 -0.6 C 0 km/h
1472 15-01-2018 02:35:00 -0.6 C 4.42 g/m*3 -0.6 C 0 km/h
1473 15-01-2018 02:40:00 -0.5 C 4.45 g/m*3 -0.5 C 0 km/h
1474 15-01-2018 02:45:00 -0.4 C 4.52 g/m*3 -0.4 C 0 km/h
1475 15-01-2018 02:50:00 -0.3 C 4.56 g/m*3 -0.3 C 0 km/h
Sensor: Nr:Datum:Temp:Abs-Feuchte:Windchill:Wind:
Aussen-T/F 1476 15-01-2018 02:55:00 -0.2 C 4.59 g/m*3 -0.2 C 0 km/h
1477 15-01-2018 03:00:00 -0.2 C 4.59 g/m*3 -0.2 C 0 km/h
1478 15-01-2018 03:05:00 -0.1 C 4.62 g/m*3 -0.1 C 0 km/h
1479 15-01-2018 03:10:00 0 C 4.65 g/m*3 0 C 0 km/h
1480 15-01-2018 03:15:00 0.1 C 4.68 g/m*3 0.1 C 0 km/h
1481 15-01-2018 03:20:00 0.2 C 4.72 g/m*3 0.2 C 0 km/h
1482 15-01-2018 03:25:00 0.3 C 4.75 g/m*3 0.3 C 0 km/h
1483 15-01-2018 03:30:00 0.3 C 4.75 g/m*3 0.3 C 0 km/h
1484 15-01-2018 03:35:00 0.4 C 4.78 g/m*3 0.4 C 0 km/h
1485 15-01-2018 03:40:00 0.4 C 4.78 g/m*3 0.4 C 0 km/h
1486 15-01-2018 03:45:00 0.5 C 4.81 g/m*3 0.5 C 0 km/h
1487 15-01-2018 03:50:00 0.6 C 4.85 g/m*3 0.6 C 0 km/h
1488 15-01-2018 03:55:00 0.6 C 4.85 g/m*3 0.6 C 0 km/h
1489 15-01-2018 04:00:00 0.6 C 4.85 g/m*3 0.6 C 0 km/h
1490 15-01-2018 04:05:00 0.6 C 4.85 g/m*3 0.6 C 0 km/h
1491 15-01-2018 04:10:00 0.7 C 4.88 g/m*3 0.7 C 0 km/h
1492 15-01-2018 04:15:00 0.7 C 4.88 g/m*3 0.7 C 0 km/h
1493 15-01-2018 04:20:00 0.7 C 4.88 g/m*3 0.7 C 0 km/h
1494 15-01-2018 04:25:00 0.7 C 4.88 g/m*3 0.7 C 0 km/h
1495 15-01-2018 04:30:00 0.7 C 4.88 g/m*3 0.7 C 0 km/h
1496 15-01-2018 04:35:00 0.7 C 4.83 g/m*3 0.7 C 0 km/h
1497 15-01-2018 04:40:00 0.6 C 4.8 g/m*3 0.6 C 0 km/h
1498 15-01-2018 04:45:00 0.7 C 4.88 g/m*3 0.7 C 0 km/h
1499 15-01-2018 04:50:00 0.8 C 4.86 g/m*3 0.8 C 0 km/h
1500 15-01-2018 04:55:00 0.8 C 4.86 g/m*3 0.8 C 0 km/h
Sensor: Nr:Datum:Temp:Abs-Feuchte:Windchill:Wind:
Aussen-T/F 1501 15-01-2018 05:00:00 0.8 C 4.86 g/m*3 0.8 C 0 km/h
1502 15-01-2018 05:05:00 0.9 C 4.9 g/m*3 0.9 C 0 km/h
1503 15-01-2018 05:10:00 0.9 C 4.95 g/m*3 0.9 C 0 km/h
1504 15-01-2018 05:15:00 0.9 C 4.95 g/m*3 0.9 C 0 km/h
1505 15-01-2018 05:20:00 0.9 C 4.9 g/m*3 0.9 C 0 km/h
1506 15-01-2018 05:25:00 1 C 4.93 g/m*3 1 C 0 km/h
1507 15-01-2018 05:30:00 1.1 C 4.96 g/m*3 1.1 C 0 km/h
1508 15-01-2018 05:35:00 1.1 C 4.96 g/m*3 1.1 C 0 km/h
1509 15-01-2018 05:40:00 1.1 C 4.96 g/m*3 1.1 C 0 km/h
1510 15-01-2018 05:45:00 1.1 C 4.96 g/m*3 1.1 C 0 km/h
1511 15-01-2018 05:50:00 1.1 C 4.96 g/m*3 1.1 C 0 km/h
1512 15-01-2018 05:55:00 0.9 C 4.9 g/m*3 0.9 C 0 km/h
1513 15-01-2018 06:00:00 0.8 C 4.86 g/m*3 0.8 C 0 km/h
1514 15-01-2018 06:05:00 0.8 C 4.81 g/m*3 0.8 C 0 km/h
1515 15-01-2018 06:10:00 0.8 C 4.81 g/m*3 0.8 C 0 km/h
1516 15-01-2018 06:15:00 0.8 C 4.86 g/m*3 0.8 C 0 km/h
1517 15-01-2018 06:20:00 0.8 C 4.86 g/m*3 0.8 C 0 km/h
1518 15-01-2018 06:25:00 0.8 C 4.86 g/m*3 0.8 C 0 km/h
1519 15-01-2018 06:30:00 0.8 C 4.81 g/m*3 0.8 C 0 km/h
1520 15-01-2018 06:35:00 0.8 C 4.86 g/m*3 0.8 C 0 km/h
1521 15-01-2018 06:40:00 0.8 C 4.81 g/m*3 0.8 C 0 km/h
1522 15-01-2018 06:45:00 0.7 C 4.78 g/m*3 0.7 C 0 km/h
1523 15-01-2018 06:50:00 0.7 C 4.78 g/m*3 0.7 C 1.6 km/h
1524 15-01-2018 06:55:00 0.7 C 4.78 g/m*3 0.7 C 3.2 km/h
1525 15-01-2018 07:00:00 0.7 C 4.78 g/m*3 0.7 C 3.2 km/h
Sensor: Nr:Datum:Temp:Abs-Feuchte:Windchill:Wind:
Aussen-T/F 1526 15-01-2018 07:05:00 0.7 C 4.78 g/m*3 0.7 C 0 km/h
1527 15-01-2018 07:10:00 0.7 C 4.78 g/m*3 0.7 C 0 km/h
1528 15-01-2018 07:15:00 0.8 C 4.81 g/m*3 0.8 C 0 km/h
1529 15-01-2018 07:20:00 0.8 C 4.81 g/m*3 0.8 C 0 km/h
1530 15-01-2018 07:25:00 0.9 C 4.9 g/m*3 0.9 C 0 km/h
1531 15-01-2018 07:30:00 0.9 C 4.85 g/m*3 0.9 C 0 km/h
1532 15-01-2018 07:35:00 1 C 4.93 g/m*3 1 C 0 km/h
1533 15-01-2018 07:40:00 1.1 C 4.96 g/m*3 1.1 C 0 km/h
1534 15-01-2018 07:45:00 1.2 C 5 g/m*3 1.2 C 0 km/h
1535 15-01-2018 07:50:00 1.2 C 5 g/m*3 1.2 C 0 km/h
1536 15-01-2018 07:55:00 1.3 C 5.03 g/m*3 1.3 C 0 km/h
1537 15-01-2018 08:00:00 1.3 C 5.03 g/m*3 1.3 C 0 km/h
1538 15-01-2018 08:05:00 1.4 C 5.01 g/m*3 1.4 C 0 km/h
1539 15-01-2018 08:10:00 1.4 C 5.01 g/m*3 1.4 C 0 km/h
1540 15-01-2018 08:15:00 1.4 C 5.01 g/m*3 1.4 C 0 km/h
1541 15-01-2018 08:20:00 1.5 C 5.05 g/m*3 1.5 C 0 km/h
1542 15-01-2018 08:25:00 1.6 C 5.08 g/m*3 1.6 C 0 km/h
1543 15-01-2018 08:30:00 1.6 C 5.08 g/m*3 1.6 C 1.6 km/h
1544 15-01-2018 08:35:00 1.7 C 5.12 g/m*3 1.7 C 0 km/h
1545 15-01-2018 08:40:00 1.7 C 5.12 g/m*3 1.7 C 0 km/h
1546 15-01-2018 08:45:00 1.8 C 5.15 g/m*3 1.8 C 0 km/h
1547 15-01-2018 08:50:00 1.8 C 5.15 g/m*3 1.8 C 0 km/h
1548 15-01-2018 08:55:00 1.8 C 5.15 g/m*3 1.8 C 0 km/h
1549 15-01-2018 09:00:00 1.9 C 5.19 g/m*3 1.9 C 0 km/h
1550 15-01-2018 09:05:00 2 C 5.22 g/m*3 2 C 0 km/h
Sensor: Nr:Datum:Temp:Abs-Feuchte:Windchill:Wind:
Aussen-T/F 1551 15-01-2018 09:10:00 2.1 C 5.26 g/m*3 2.1 C 0 km/h
1552 15-01-2018 09:15:00 2.1 C 5.26 g/m*3 2.1 C 0 km/h
1553 15-01-2018 09:20:00 2.2 C 5.29 g/m*3 2.2 C 0 km/h
1554 15-01-2018 09:25:00 2.3 C 5.33 g/m*3 2.3 C 1.6 km/h
1555 15-01-2018 09:30:00 2.4 C 5.37 g/m*3 2.4 C 3.2 km/h
1556 15-01-2018 09:35:00 2.6 C 5.38 g/m*3 2.6 C 3.2 km/h
1557 15-01-2018 09:40:00 2.7 C 5.42 g/m*3 2.7 C 0 km/h
1558 15-01-2018 09:45:00 2.8 C 5.46 g/m*3 2.8 C 0 km/h
1559 15-01-2018 09:50:00 2.9 C 5.49 g/m*3 2.9 C 3.2 km/h
1560 15-01-2018 09:55:00 3.1 C 5.51 g/m*3 3.1 C 3.2 km/h
1561 15-01-2018 10:00:00 3.2 C 5.48 g/m*3 3.2 C 1.6 km/h
1562 15-01-2018 10:05:00 3.4 C 5.56 g/m*3 0.82 C 9.7 km/h
1563 15-01-2018 10:10:00 3.6 C 5.63 g/m*3 3.6 C 1.6 km/h
1564 15-01-2018 10:15:00 3.7 C 5.61 g/m*3 3.7 C 3.2 km/h
1565 15-01-2018 10:20:00 3.8 C 5.65 g/m*3 3.8 C 3.2 km/h
1566 15-01-2018 10:25:00 3.9 C 5.62 g/m*3 3.9 C 4.8 km/h
1567 15-01-2018 10:30:00 3.9 C 5.56 g/m*3 3.9 C 3.2 km/h
1568 15-01-2018 10:35:00 3.9 C 5.56 g/m*3 3.9 C 1.6 km/h
1569 15-01-2018 10:40:00 4 C 5.59 g/m*3 4 C 3.2 km/h
1570 15-01-2018 10:45:00 4.1 C 5.63 g/m*3 4.1 C 4.8 km/h
1571 15-01-2018 10:50:00 4.1 C 5.63 g/m*3 4.1 C 0 km/h
1572 15-01-2018 10:55:00 4.1 C 5.63 g/m*3 4.1 C 1.6 km/h
1573 15-01-2018 11:00:00 4.1 C 5.63 g/m*3 4.1 C 3.2 km/h
1574 15-01-2018 11:05:00 4.1 C 5.63 g/m*3 4.1 C 1.6 km/h
1575 15-01-2018 11:10:00 4.2 C 5.67 g/m*3 4.2 C 4.8 km/h
Sensor: Nr:Datum:Temp:Abs-Feuchte:Windchill:Wind:
Aussen-T/F 1576 15-01-2018 11:15:00 4.2 C 5.73 g/m*3 4.2 C 1.6 km/h
1577 15-01-2018 11:20:00 4.2 C 5.73 g/m*3 4.2 C 1.6 km/h
1578 15-01-2018 11:25:00 4.2 C 5.73 g/m*3 4.2 C 3.2 km/h
1579 15-01-2018 11:30:00 4.3 C 5.77 g/m*3 4.3 C 3.2 km/h
1580 15-01-2018 11:35:00 4.3 C 5.77 g/m*3 4.3 C 1.6 km/h
1581 15-01-2018 11:40:00 4.3 C 5.77 g/m*3 4.3 C 1.6 km/h
1582 15-01-2018 11:45:00 4.4 C 5.75 g/m*3 4.4 C 4.8 km/h
1583 15-01-2018 11:50:00 4.5 C 5.78 g/m*3 4.5 C 4.8 km/h
1584 15-01-2018 11:55:00 4.6 C 5.82 g/m*3 4.6 C 3.2 km/h
1585 15-01-2018 12:00:00 4.7 C 5.86 g/m*3 4.7 C 4.8 km/h
1586 15-01-2018 12:05:00 4.8 C 5.83 g/m*3 4.8 C 3.2 km/h
1587 15-01-2018 12:10:00 4.9 C 5.87 g/m*3 4.9 C 4.8 km/h
1588 15-01-2018 12:15:00 5.1 C 5.88 g/m*3 3.23 C 8.1 km/h
1589 15-01-2018 12:20:00 5.3 C 5.96 g/m*3 5.3 C 4.8 km/h
1590 15-01-2018 12:25:00 5.4 C 6 g/m*3 5.4 C 4.8 km/h
1591 15-01-2018 12:30:00 5.4 C 6 g/m*3 5.4 C 1.6 km/h
1592 15-01-2018 12:35:00 5.5 C 6.04 g/m*3 3.7 C 8.1 km/h
1593 15-01-2018 12:40:00 5.6 C 6.01 g/m*3 5.6 C 4.8 km/h
1594 15-01-2018 12:45:00 5.7 C 6.12 g/m*3 5.7 C 4.8 km/h
1595 15-01-2018 12:50:00 5.8 C 6.09 g/m*3 5.8 C 4.8 km/h
1596 15-01-2018 12:55:00 5.8 C 6.09 g/m*3 5.8 C 1.6 km/h
1597 15-01-2018 13:00:00 5.9 C 6.13 g/m*3 5.9 C 1.6 km/h
1598 15-01-2018 13:05:00 6 C 6.1 g/m*3 6 C 4.8 km/h
1599 15-01-2018 13:10:00 6.1 C 6.14 g/m*3 4.86 C 6.4 km/h
1600 15-01-2018 13:15:00 6.2 C 6.18 g/m*3 4.98 C 6.4 km/h
Sensor: Nr:Datum:Temp:Abs-Feuchte:Windchill:Wind:
Aussen-T/F 1601 15-01-2018 13:20:00 6.2 C 6.18 g/m*3 6.2 C 4.8 km/h
1602 15-01-2018 13:25:00 6.2 C 6.18 g/m*3 4.52 C 8.1 km/h
1603 15-01-2018 13:30:00 6.2 C 6.18 g/m*3 4.52 C 8.1 km/h
1604 15-01-2018 13:35:00 6.2 C 6.25 g/m*3 6.2 C 0 km/h
1605 15-01-2018 13:40:00 6.2 C 6.25 g/m*3 4.98 C 6.4 km/h
1606 15-01-2018 13:45:00 6.2 C 6.25 g/m*3 6.2 C 4.8 km/h
1607 15-01-2018 13:50:00 6.1 C 6.21 g/m*3 6.1 C 4.8 km/h
1608 15-01-2018 13:55:00 6.1 C 6.21 g/m*3 3.72 C 11.3 km/h
1609 15-01-2018 14:00:00 6.2 C 6.25 g/m*3 4.52 C 8.1 km/h
1610 15-01-2018 14:05:00 6.2 C 6.32 g/m*3 4.98 C 6.4 km/h
1611 15-01-2018 14:10:00 6.2 C 6.32 g/m*3 6.2 C 4.8 km/h
1612 15-01-2018 14:15:00 6.3 C 6.37 g/m*3 4.64 C 8.1 km/h
1613 15-01-2018 14:20:00 6.3 C 6.37 g/m*3 6.3 C 3.2 km/h
1614 15-01-2018 14:25:00 6.3 C 6.37 g/m*3 6.3 C 4.8 km/h
1615 15-01-2018 14:30:00 6.3 C 6.29 g/m*3 3.96 C 11.3 km/h
1616 15-01-2018 14:35:00 6.4 C 6.33 g/m*3 4.08 C 11.3 km/h
1617 15-01-2018 14:40:00 6.4 C 6.33 g/m*3 4.08 C 11.3 km/h
1618 15-01-2018 14:45:00 6.4 C 6.26 g/m*3 3.8 C 12.9 km/h
1619 15-01-2018 14:50:00 6.5 C 6.22 g/m*3 6.5 C 4.8 km/h
1620 15-01-2018 14:55:00 6.6 C 6.34 g/m*3 6.6 C 3.2 km/h
1621 15-01-2018 15:00:00 6.6 C 6.27 g/m*3 4.99 C 8.1 km/h
1622 15-01-2018 15:05:00 6.6 C 6.27 g/m*3 4.99 C 8.1 km/h
1623 15-01-2018 15:10:00 6.6 C 6.27 g/m*3 6.6 C 3.2 km/h
1624 15-01-2018 15:15:00 6.6 C 6.27 g/m*3 4.04 C 12.9 km/h
1625 15-01-2018 15:20:00 6.6 C 6.19 g/m*3 4.32 C 11.3 km/h
Sensor: Nr:Datum:Temp:Abs-Feuchte:Windchill:Wind:
Aussen-T/F 1626 15-01-2018 15:25:00 6.6 C 6.27 g/m*3 4.99 C 8.1 km/h
1627 15-01-2018 15:30:00 6.6 C 6.27 g/m*3 6.6 C 4.8 km/h
1628 15-01-2018 15:35:00 6.7 C 6.38 g/m*3 6.7 C 4.8 km/h
1629 15-01-2018 15:40:00 6.7 C 6.46 g/m*3 5.56 C 6.4 km/h
1630 15-01-2018 15:45:00 6.6 C 6.49 g/m*3 4.99 C 8.1 km/h
1631 15-01-2018 15:50:00 6.4 C 6.48 g/m*3 6.4 C 4.8 km/h
1632 15-01-2018 15:55:00 6.3 C 6.51 g/m*3 6.3 C 4.8 km/h
1633 15-01-2018 16:00:00 6.3 C 6.51 g/m*3 5.1 C 6.4 km/h
1634 15-01-2018 16:05:00 6.2 C 6.55 g/m*3 6.2 C 4.8 km/h
1635 15-01-2018 16:10:00 6.2 C 6.55 g/m*3 6.2 C 3.2 km/h
1636 15-01-2018 16:15:00 6.2 C 6.55 g/m*3 4.15 C 9.7 km/h
1637 15-01-2018 16:20:00 6.2 C 6.55 g/m*3 6.2 C 3.2 km/h
1638 15-01-2018 16:25:00 6.2 C 6.55 g/m*3 6.2 C 3.2 km/h
1639 15-01-2018 16:30:00 6.2 C 6.47 g/m*3 4.15 C 9.7 km/h
1640 15-01-2018 16:35:00 6.3 C 6.51 g/m*3 6.3 C 4.8 km/h
1641 15-01-2018 16:40:00 6.3 C 6.51 g/m*3 3.96 C 11.3 km/h
1642 15-01-2018 16:45:00 6.4 C 6.56 g/m*3 6.4 C 4.8 km/h
1643 15-01-2018 16:50:00 6.4 C 6.48 g/m*3 6.4 C 1.6 km/h
1644 15-01-2018 16:55:00 6.4 C 6.56 g/m*3 4.75 C 8.1 km/h
1645 15-01-2018 17:00:00 6.3 C 6.51 g/m*3 5.1 C 6.4 km/h
1646 15-01-2018 17:05:00 6.3 C 6.51 g/m*3 5.1 C 6.4 km/h
1647 15-01-2018 17:10:00 6.3 C 6.51 g/m*3 5.1 C 6.4 km/h
1648 15-01-2018 17:15:00 6.3 C 6.51 g/m*3 5.1 C 6.4 km/h
1649 15-01-2018 17:20:00 6.3 C 6.51 g/m*3 5.1 C 6.4 km/h
1650 15-01-2018 17:25:00 6.3 C 6.44 g/m*3 5.1 C 6.4 km/h
Sensor: Nr:Datum:Temp:Abs-Feuchte:Windchill:Wind:
Aussen-T/F 1651 15-01-2018 17:30:00 6.4 C 6.48 g/m*3 6.4 C 4.8 km/h
1652 15-01-2018 17:35:00 6.3 C 6.44 g/m*3 5.1 C 6.4 km/h
1653 15-01-2018 17:40:00 6.4 C 6.48 g/m*3 3.8 C 12.9 km/h
1654 15-01-2018 17:45:00 6.4 C 6.48 g/m*3 3.8 C 12.9 km/h
1655 15-01-2018 17:50:00 6.4 C 6.56 g/m*3 2.91 C 19.3 km/h
1656 15-01-2018 17:55:00 6.5 C 6.52 g/m*3 5.33 C 6.4 km/h
1657 15-01-2018 18:00:00 6.5 C 6.6 g/m*3 4.87 C 8.1 km/h
1658 15-01-2018 18:05:00 6.5 C 6.6 g/m*3 4.2 C 11.3 km/h
1659 15-01-2018 18:10:00 6.6 C 6.64 g/m*3 6.6 C 4.8 km/h
1660 15-01-2018 18:15:00 6.6 C 6.64 g/m*3 4.99 C 8.1 km/h
1661 15-01-2018 18:20:00 6.5 C 6.6 g/m*3 6.5 C 4.8 km/h
1662 15-01-2018 18:25:00 6.5 C 6.67 g/m*3 6.5 C 4.8 km/h
1663 15-01-2018 18:30:00 6.4 C 6.63 g/m*3 4.39 C 9.7 km/h
1664 15-01-2018 18:35:00 6.3 C 6.66 g/m*3 6.3 C 4.8 km/h
1665 15-01-2018 18:40:00 6.3 C 6.74 g/m*3 5.1 C 6.4 km/h
1666 15-01-2018 18:45:00 6.2 C 6.69 g/m*3 6.2 C 3.2 km/h
1667 15-01-2018 18:50:00 6.2 C 6.69 g/m*3 4.15 C 9.7 km/h
1668 15-01-2018 18:55:00 6.2 C 6.69 g/m*3 6.2 C 3.2 km/h
1669 15-01-2018 19:00:00 6.2 C 6.69 g/m*3 3.84 C 11.3 km/h
1670 15-01-2018 19:05:00 6.1 C 6.72 g/m*3 6.1 C 4.8 km/h
1671 15-01-2018 19:10:00 6.1 C 6.65 g/m*3 4.86 C 6.4 km/h
1672 15-01-2018 19:15:00 6.1 C 6.72 g/m*3 6.1 C 3.2 km/h
1673 15-01-2018 19:20:00 6 C 6.68 g/m*3 6 C 1.6 km/h
1674 15-01-2018 19:25:00 5.9 C 6.63 g/m*3 5.9 C 3.2 km/h
1675 15-01-2018 19:30:00 5.9 C 6.63 g/m*3 5.9 C 3.2 km/h
Sensor: Nr:Datum:Temp:Abs-Feuchte:Windchill:Wind:
Aussen-T/F 1676 15-01-2018 19:35:00 5.8 C 6.66 g/m*3 5.8 C 4.8 km/h
1677 15-01-2018 19:40:00 5.8 C 6.66 g/m*3 3.36 C 11.3 km/h
1678 15-01-2018 19:45:00 5.8 C 6.66 g/m*3 5.8 C 4.8 km/h
1679 15-01-2018 19:50:00 5.8 C 6.66 g/m*3 5.8 C 1.6 km/h
1680 15-01-2018 19:55:00 5.7 C 6.62 g/m*3 4.4 C 6.4 km/h
1681 15-01-2018 20:00:00 5.7 C 6.62 g/m*3 5.7 C 3.2 km/h
1682 15-01-2018 20:05:00 5.7 C 6.62 g/m*3 4.4 C 6.4 km/h
1683 15-01-2018 20:10:00 5.7 C 6.62 g/m*3 5.7 C 3.2 km/h
1684 15-01-2018 20:15:00 5.7 C 6.62 g/m*3 5.7 C 4.8 km/h
1685 15-01-2018 20:20:00 5.7 C 6.62 g/m*3 3.93 C 8.1 km/h
1686 15-01-2018 20:25:00 5.6 C 6.5 g/m*3 3.11 C 11.3 km/h
1687 15-01-2018 20:30:00 5.6 C 6.5 g/m*3 2.83 C 12.9 km/h
1688 15-01-2018 20:35:00 5.6 C 6.5 g/m*3 2.83 C 12.9 km/h
1689 15-01-2018 20:40:00 5.6 C 6.5 g/m*3 2.57 C 14.5 km/h
1690 15-01-2018 20:45:00 5.6 C 6.5 g/m*3 2.83 C 12.9 km/h
1691 15-01-2018 20:50:00 5.6 C 6.5 g/m*3 2.33 C 16.1 km/h
1692 15-01-2018 20:55:00 5.6 C 6.43 g/m*3 1.91 C 19.3 km/h
1693 15-01-2018 21:00:00 5.7 C 6.48 g/m*3 1.85 C 20.9 km/h
1694 15-01-2018 21:05:00 5.7 C 6.48 g/m*3 1.67 C 22.5 km/h
1695 15-01-2018 21:10:00 5.7 C 6.4 g/m*3 2.24 C 17.7 km/h
1696 15-01-2018 21:15:00 5.7 C 6.4 g/m*3 2.03 C 19.3 km/h
1697 15-01-2018 21:20:00 5.7 C 6.4 g/m*3 2.24 C 17.7 km/h
1698 15-01-2018 21:25:00 5.7 C 6.4 g/m*3 2.69 C 14.5 km/h
1699 15-01-2018 21:30:00 5.7 C 6.4 g/m*3 2.24 C 17.7 km/h
1700 15-01-2018 21:35:00 5.7 C 6.4 g/m*3 2.69 C 14.5 km/h
Sensor: Nr:Datum:Temp:Abs-Feuchte:Windchill:Wind:
Aussen-T/F 1701 15-01-2018 21:40:00 5.8 C 6.45 g/m*3 2.81 C 14.5 km/h
1702 15-01-2018 21:45:00 5.9 C 6.49 g/m*3 2.29 C 19.3 km/h
1703 15-01-2018 21:50:00 5.9 C 6.49 g/m*3 2.93 C 14.5 km/h
1704 15-01-2018 21:55:00 5.9 C 6.49 g/m*3 2.93 C 14.5 km/h
1705 15-01-2018 22:00:00 6 C 6.53 g/m*3 2.41 C 19.3 km/h
1706 15-01-2018 22:05:00 6.1 C 6.58 g/m*3 3.18 C 14.5 km/h
1707 15-01-2018 22:10:00 6.1 C 6.58 g/m*3 2.35 C 20.9 km/h
1708 15-01-2018 22:15:00 6.2 C 6.62 g/m*3 3.3 C 14.5 km/h
1709 15-01-2018 22:20:00 6.3 C 6.66 g/m*3 2.61 C 20.9 km/h
1710 15-01-2018 22:25:00 6.4 C 6.71 g/m*3 2.91 C 19.3 km/h
1711 15-01-2018 22:30:00 6.4 C 6.63 g/m*3 3.11 C 17.7 km/h
1712 15-01-2018 22:35:00 6.6 C 6.72 g/m*3 3.17 C 19.3 km/h
1713 15-01-2018 22:40:00 6.6 C 6.79 g/m*3 3.79 C 14.5 km/h
1714 15-01-2018 22:45:00 6.6 C 6.79 g/m*3 3.17 C 19.3 km/h
1715 15-01-2018 22:50:00 6.6 C 6.79 g/m*3 3.36 C 17.7 km/h
1716 15-01-2018 22:55:00 6.7 C 6.84 g/m*3 3.48 C 17.7 km/h
1717 15-01-2018 23:00:00 6.7 C 6.84 g/m*3 3.92 C 14.5 km/h
1718 15-01-2018 23:05:00 6.8 C 6.88 g/m*3 4.56 C 11.3 km/h
1719 15-01-2018 23:10:00 6.8 C 6.96 g/m*3 4.04 C 14.5 km/h
1720 15-01-2018 23:15:00 6.9 C 7.01 g/m*3 4.16 C 14.5 km/h
1721 15-01-2018 23:20:00 7.1 C 7.1 g/m*3 4.41 C 14.5 km/h
1722 15-01-2018 23:25:00 7.2 C 7.14 g/m*3 4.11 C 17.7 km/h
1723 15-01-2018 23:30:00 7.3 C 7.19 g/m*3 5.16 C 11.3 km/h
1724 15-01-2018 23:35:00 7.3 C 7.19 g/m*3 4.66 C 14.5 km/h
1725 15-01-2018 23:40:00 7.4 C 7.24 g/m*3 5.02 C 12.9 km/h
Sensor: Nr:Datum:Temp:Abs-Feuchte:Windchill:Wind:
Aussen-T/F 1726 15-01-2018 23:45:00 7.4 C 7.24 g/m*3 4.56 C 16.1 km/h
1727 15-01-2018 23:50:00 7.5 C 7.36 g/m*3 4.48 C 17.7 km/h
1728 15-01-2018 23:55:00 7.5 C 7.36 g/m*3 4.68 C 16.1 km/h
1729 16-01-2018 00:00:00 7.6 C 7.41 g/m*3 5.02 C 14.5 km/h
1730 16-01-2018 00:05:00 7.6 C 7.41 g/m*3 5.53 C 11.3 km/h
1731 16-01-2018 00:10:00 7.6 C 7.25 g/m*3 5.26 C 12.9 km/h
1732 16-01-2018 00:15:00 7.7 C 7.22 g/m*3 4.73 C 17.7 km/h
1733 16-01-2018 00:20:00 7.7 C 7.22 g/m*3 5.65 C 11.3 km/h
1734 16-01-2018 00:25:00 7.7 C 7.22 g/m*3 4.93 C 16.1 km/h
1735 16-01-2018 00:30:00 7.7 C 7.22 g/m*3 5.65 C 11.3 km/h
1736 16-01-2018 00:35:00 7.6 C 7.17 g/m*3 5.82 C 9.7 km/h
1737 16-01-2018 00:40:00 7.6 C 7.17 g/m*3 5.53 C 11.3 km/h
1738 16-01-2018 00:45:00 7.6 C 7.09 g/m*3 4.81 C 16.1 km/h
1739 16-01-2018 00:50:00 7.7 C 7.22 g/m*3 5.94 C 9.7 km/h
1740 16-01-2018 00:55:00 7.6 C 7.25 g/m*3 5.02 C 14.5 km/h
1741 16-01-2018 01:00:00 7.6 C 7.25 g/m*3 5.26 C 12.9 km/h
1742 16-01-2018 01:05:00 7.6 C 7.33 g/m*3 5.02 C 14.5 km/h
1743 16-01-2018 01:10:00 7.5 C 7.36 g/m*3 5.41 C 11.3 km/h
1744 16-01-2018 01:15:00 7.4 C 7.32 g/m*3 6.37 C 6.4 km/h
1745 16-01-2018 01:20:00 7.4 C 7.32 g/m*3 4.78 C 14.5 km/h
1746 16-01-2018 01:25:00 7.3 C 7.27 g/m*3 4.66 C 14.5 km/h
1747 16-01-2018 01:30:00 7.3 C 7.27 g/m*3 5.81 C 8.1 km/h
1748 16-01-2018 01:35:00 7.2 C 7.22 g/m*3 5.04 C 11.3 km/h
1749 16-01-2018 01:40:00 7.1 C 7.18 g/m*3 4.19 C 16.1 km/h
1750 16-01-2018 01:45:00 7.1 C 7.1 g/m*3 4.65 C 12.9 km/h
Sensor: Nr:Datum:Temp:Abs-Feuchte:Windchill:Wind:
Aussen-T/F 1751 16-01-2018 01:50:00 7 C 7.05 g/m*3 4.06 C 16.1 km/h
1752 16-01-2018 01:55:00 7 C 6.97 g/m*3 4.8 C 11.3 km/h
1753 16-01-2018 02:00:00 6.9 C 6.93 g/m*3 5.79 C 6.4 km/h
1754 16-01-2018 02:05:00 7 C 6.97 g/m*3 4.8 C 11.3 km/h
1755 16-01-2018 02:10:00 7.1 C 7.02 g/m*3 5.23 C 9.7 km/h
1756 16-01-2018 02:15:00 7.3 C 7.03 g/m*3 4.44 C 16.1 km/h
1757 16-01-2018 02:20:00 7.3 C 7.03 g/m*3 4.44 C 16.1 km/h
1758 16-01-2018 02:25:00 7.4 C 7 g/m*3 5.58 C 9.7 km/h
1759 16-01-2018 02:30:00 7.5 C 7.04 g/m*3 5.41 C 11.3 km/h
1760 16-01-2018 02:35:00 7.4 C 7 g/m*3 5.28 C 11.3 km/h
1761 16-01-2018 02:40:00 7.4 C 7.08 g/m*3 5.93 C 8.1 km/h
1762 16-01-2018 02:45:00 7.2 C 6.99 g/m*3 5.35 C 9.7 km/h
1763 16-01-2018 02:50:00 7.1 C 7.02 g/m*3 7.1 C 4.8 km/h
1764 16-01-2018 02:55:00 6.9 C 6.93 g/m*3 5.34 C 8.1 km/h
1765 16-01-2018 03:00:00 6.9 C 6.93 g/m*3 4.68 C 11.3 km/h
1766 16-01-2018 03:05:00 6.9 C 6.93 g/m*3 4.68 C 11.3 km/h
1767 16-01-2018 03:10:00 6.9 C 6.85 g/m*3 5.34 C 8.1 km/h
1768 16-01-2018 03:15:00 7 C 6.82 g/m*3 4.29 C 14.5 km/h
1769 16-01-2018 03:20:00 7.1 C 6.86 g/m*3 4.92 C 11.3 km/h
1770 16-01-2018 03:25:00 7.1 C 6.79 g/m*3 4.41 C 14.5 km/h
1771 16-01-2018 03:30:00 7.1 C 6.79 g/m*3 4.41 C 14.5 km/h
1772 16-01-2018 03:35:00 7 C 6.66 g/m*3 5.9 C 6.4 km/h
1773 16-01-2018 03:40:00 6.9 C 6.62 g/m*3 5.34 C 8.1 km/h
1774 16-01-2018 03:45:00 6.9 C 6.62 g/m*3 4.41 C 12.9 km/h
1775 16-01-2018 03:50:00 6.9 C 6.62 g/m*3 3.54 C 19.3 km/h
Sensor: Nr:Datum:Temp:Abs-Feuchte:Windchill:Wind:
Aussen-T/F 1776 16-01-2018 03:55:00 6.9 C 6.62 g/m*3 4.99 C 9.7 km/h
1777 16-01-2018 04:00:00 6.9 C 6.62 g/m*3 4.16 C 14.5 km/h
1778 16-01-2018 04:05:00 6.9 C 6.62 g/m*3 4.16 C 14.5 km/h
1779 16-01-2018 04:10:00 6.9 C 6.62 g/m*3 4.99 C 9.7 km/h
1780 16-01-2018 04:15:00 6.9 C 6.62 g/m*3 4.68 C 11.3 km/h
1781 16-01-2018 04:20:00 6.9 C 6.62 g/m*3 5.34 C 8.1 km/h
1782 16-01-2018 04:25:00 6.9 C 6.62 g/m*3 4.99 C 9.7 km/h
1783 16-01-2018 04:30:00 7 C 6.66 g/m*3 5.11 C 9.7 km/h
1784 16-01-2018 04:35:00 7 C 6.66 g/m*3 7 C 4.8 km/h
1785 16-01-2018 04:40:00 6.9 C 6.7 g/m*3 6.9 C 1.6 km/h
1786 16-01-2018 04:45:00 6.9 C 6.7 g/m*3 6.9 C 3.2 km/h
1787 16-01-2018 04:50:00 6.8 C 6.65 g/m*3 3.61 C 17.7 km/h
1788 16-01-2018 04:55:00 6.9 C 6.7 g/m*3 4.68 C 11.3 km/h
1789 16-01-2018 05:00:00 6.9 C 6.7 g/m*3 4.41 C 12.9 km/h
1790 16-01-2018 05:05:00 6.9 C 6.7 g/m*3 3.73 C 17.7 km/h
1791 16-01-2018 05:10:00 7 C 6.82 g/m*3 4.53 C 12.9 km/h
1792 16-01-2018 05:15:00 6.9 C 6.85 g/m*3 3.37 C 20.9 km/h
1793 16-01-2018 05:20:00 6.8 C 6.88 g/m*3 4.87 C 9.7 km/h
1794 16-01-2018 05:25:00 6.7 C 6.84 g/m*3 5.11 C 8.1 km/h
1795 16-01-2018 05:30:00 6.6 C 6.87 g/m*3 4.99 C 8.1 km/h
1796 16-01-2018 05:35:00 6.4 C 6.78 g/m*3 4.08 C 11.3 km/h
1797 16-01-2018 05:40:00 6.3 C 6.81 g/m*3 4.27 C 9.7 km/h
1798 16-01-2018 05:45:00 6.3 C 6.81 g/m*3 5.1 C 6.4 km/h
1799 16-01-2018 05:50:00 6.2 C 6.77 g/m*3 4.15 C 9.7 km/h
1800 16-01-2018 05:55:00 6.1 C 6.79 g/m*3 4.86 C 6.4 km/h
Sensor: Nr:Datum:Temp:Abs-Feuchte:Windchill:Wind:
Aussen-T/F 1801 16-01-2018 06:00:00 6.1 C 6.79 g/m*3 4.86 C 6.4 km/h
1802 16-01-2018 06:05:00 6.1 C 6.79 g/m*3 3.72 C 11.3 km/h
1803 16-01-2018 06:10:00 6.1 C 6.79 g/m*3 6.1 C 3.2 km/h
1804 16-01-2018 06:15:00 6.1 C 6.87 g/m*3 4.86 C 6.4 km/h
1805 16-01-2018 06:20:00 6.1 C 6.87 g/m*3 3.72 C 11.3 km/h
1806 16-01-2018 06:25:00 6.1 C 6.87 g/m*3 3.18 C 14.5 km/h
1807 16-01-2018 06:30:00 6 C 6.75 g/m*3 3.31 C 12.9 km/h
1808 16-01-2018 06:35:00 5.9 C 6.71 g/m*3 3.19 C 12.9 km/h
1809 16-01-2018 06:40:00 5.9 C 6.71 g/m*3 4.17 C 8.1 km/h
1810 16-01-2018 06:45:00 5.9 C 6.71 g/m*3 5.9 C 4.8 km/h
1811 16-01-2018 06:50:00 5.8 C 6.66 g/m*3 4.52 C 6.4 km/h
1812 16-01-2018 06:55:00 5.8 C 6.66 g/m*3 5.8 C 4.8 km/h
1813 16-01-2018 07:00:00 5.8 C 6.66 g/m*3 3.68 C 9.7 km/h
1814 16-01-2018 07:05:00 5.7 C 6.55 g/m*3 4.4 C 6.4 km/h
1815 16-01-2018 07:10:00 5.6 C 6.5 g/m*3 4.29 C 6.4 km/h
1816 16-01-2018 07:15:00 5.4 C 6.42 g/m*3 4.06 C 6.4 km/h
1817 16-01-2018 07:20:00 5.4 C 6.49 g/m*3 2.87 C 11.3 km/h
1818 16-01-2018 07:25:00 5.6 C 6.57 g/m*3 2.57 C 14.5 km/h
1819 16-01-2018 07:30:00 5.6 C 6.57 g/m*3 3.44 C 9.7 km/h
1820 16-01-2018 07:35:00 5.6 C 6.57 g/m*3 3.44 C 9.7 km/h
1821 16-01-2018 07:40:00 5.7 C 6.62 g/m*3 3.93 C 8.1 km/h
1822 16-01-2018 07:45:00 5.6 C 6.57 g/m*3 4.29 C 6.4 km/h
1823 16-01-2018 07:50:00 5.6 C 6.57 g/m*3 5.6 C 1.6 km/h
1824 16-01-2018 07:55:00 5.5 C 6.53 g/m*3 5.5 C 3.2 km/h
1825 16-01-2018 08:00:00 5.5 C 6.53 g/m*3 5.5 C 4.8 km/h
Sensor: Nr:Datum:Temp:Abs-Feuchte:Windchill:Wind:
Aussen-T/F 1826 16-01-2018 08:05:00 5.5 C 6.53 g/m*3 4.17 C 6.4 km/h
1827 16-01-2018 08:10:00 5.6 C 6.57 g/m*3 5.6 C 3.2 km/h
1828 16-01-2018 08:15:00 5.7 C 6.62 g/m*3 3.23 C 11.3 km/h
1829 16-01-2018 08:20:00 5.9 C 6.63 g/m*3 3.8 C 9.7 km/h
1830 16-01-2018 08:25:00 6 C 6.68 g/m*3 3.31 C 12.9 km/h
1831 16-01-2018 08:30:00 6.2 C 6.69 g/m*3 3.84 C 11.3 km/h
1832 16-01-2018 08:35:00 6.3 C 6.66 g/m*3 3.43 C 14.5 km/h
1833 16-01-2018 08:40:00 6.4 C 6.71 g/m*3 4.39 C 9.7 km/h
1834 16-01-2018 08:45:00 6.4 C 6.71 g/m*3 3.55 C 14.5 km/h
1835 16-01-2018 08:50:00 6.4 C 6.71 g/m*3 4.39 C 9.7 km/h
1836 16-01-2018 08:55:00 6.5 C 6.75 g/m*3 3.92 C 12.9 km/h
1837 16-01-2018 09:00:00 6.5 C 6.75 g/m*3 5.33 C 6.4 km/h
1838 16-01-2018 09:05:00 6.5 C 6.75 g/m*3 6.5 C 4.8 km/h
1839 16-01-2018 09:10:00 6.5 C 6.75 g/m*3 3.44 C 16.1 km/h
1840 16-01-2018 09:15:00 6.5 C 6.75 g/m*3 3.67 C 14.5 km/h
1841 16-01-2018 09:20:00 6.6 C 6.79 g/m*3 3.79 C 14.5 km/h
1842 16-01-2018 09:25:00 6.7 C 6.76 g/m*3 4.17 C 12.9 km/h
1843 16-01-2018 09:30:00 6.7 C 6.69 g/m*3 4.17 C 12.9 km/h
1844 16-01-2018 09:35:00 6.8 C 6.65 g/m*3 3.42 C 19.3 km/h
1845 16-01-2018 09:40:00 6.9 C 6.7 g/m*3 3.2 C 22.5 km/h
1846 16-01-2018 09:45:00 6.9 C 6.7 g/m*3 3.04 C 24.1 km/h
1847 16-01-2018 09:50:00 6.9 C 6.62 g/m*3 3.37 C 20.9 km/h
1848 16-01-2018 09:55:00 6.9 C 6.54 g/m*3 3.04 C 24.1 km/h
1849 16-01-2018 10:00:00 7 C 6.59 g/m*3 4.29 C 14.5 km/h
1850 16-01-2018 10:05:00 7 C 6.59 g/m*3 3.86 C 17.7 km/h
Sensor: Nr:Datum:Temp:Abs-Feuchte:Windchill:Wind:
Aussen-T/F 1851 16-01-2018 10:10:00 7 C 6.59 g/m*3 4.8 C 11.3 km/h
1852 16-01-2018 10:15:00 6.9 C 6.62 g/m*3 4.41 C 12.9 km/h
1853 16-01-2018 10:20:00 6.9 C 6.62 g/m*3 3.2 C 22.5 km/h
1854 16-01-2018 10:25:00 6.8 C 6.58 g/m*3 4.04 C 14.5 km/h
1855 16-01-2018 10:30:00 6.8 C 6.58 g/m*3 4.04 C 14.5 km/h
1856 16-01-2018 10:35:00 6.8 C 6.58 g/m*3 3.82 C 16.1 km/h
1857 16-01-2018 10:40:00 6.8 C 6.65 g/m*3 4.56 C 11.3 km/h
1858 16-01-2018 10:45:00 6.8 C 6.65 g/m*3 3.61 C 17.7 km/h
1859 16-01-2018 10:50:00 6.8 C 6.65 g/m*3 4.87 C 9.7 km/h
1860 16-01-2018 10:55:00 6.8 C 6.65 g/m*3 4.29 C 12.9 km/h
1861 16-01-2018 11:00:00 6.8 C 6.73 g/m*3 5.22 C 8.1 km/h
1862 16-01-2018 11:05:00 6.8 C 6.73 g/m*3 5.67 C 6.4 km/h
1863 16-01-2018 11:10:00 6.8 C 6.73 g/m*3 3.82 C 16.1 km/h
1864 16-01-2018 11:15:00 6.8 C 6.73 g/m*3 3.82 C 16.1 km/h
1865 16-01-2018 11:20:00 6.9 C 6.62 g/m*3 3.2 C 22.5 km/h
1866 16-01-2018 11:25:00 7.1 C 6.71 g/m*3 4.19 C 16.1 km/h
1867 16-01-2018 11:30:00 7.2 C 6.67 g/m*3 4.53 C 14.5 km/h
1868 16-01-2018 11:35:00 7.2 C 6.75 g/m*3 4.11 C 17.7 km/h
1869 16-01-2018 11:40:00 7.4 C 6.84 g/m*3 5.28 C 11.3 km/h
1870 16-01-2018 11:45:00 7.5 C 6.8 g/m*3 6.48 C 6.4 km/h
1871 16-01-2018 11:50:00 7.6 C 6.77 g/m*3 4.09 C 22.5 km/h
1872 16-01-2018 11:55:00 7.6 C 6.53 g/m*3 3.94 C 24.1 km/h
1873 16-01-2018 12:00:00 7.6 C 6.36 g/m*3 3.52 C 29 km/h
1874 16-01-2018 12:05:00 7.6 C 6.28 g/m*3 4.42 C 19.3 km/h
1875 16-01-2018 12:10:00 7.7 C 6.32 g/m*3 3.65 C 29 km/h
Sensor: Nr:Datum:Temp:Abs-Feuchte:Windchill:Wind:
Aussen-T/F 1876 16-01-2018 12:15:00 7.8 C 6.28 g/m*3 4.68 C 19.3 km/h
1877 16-01-2018 12:20:00 7.7 C 6.16 g/m*3 4.07 C 24.1 km/h
1878 16-01-2018 12:25:00 7.7 C 6.08 g/m*3 5.15 C 14.5 km/h
1879 16-01-2018 12:30:00 7.7 C 6.08 g/m*3 4.07 C 24.1 km/h
1880 16-01-2018 12:35:00 7.7 C 6.08 g/m*3 3.41 C 32.2 km/h
1881 16-01-2018 12:40:00 7.7 C 6.08 g/m*3 3.41 C 32.2 km/h
1882 16-01-2018 12:45:00 7.9 C 6.16 g/m*3 4.63 C 20.9 km/h
1883 16-01-2018 12:50:00 7.9 C 6 g/m*3 4.04 C 27.4 km/h
1884 16-01-2018 12:55:00 7.8 C 5.96 g/m*3 3.91 C 27.4 km/h
1885 16-01-2018 13:00:00 7.8 C 5.96 g/m*3 4.2 C 24.1 km/h
1886 16-01-2018 13:05:00 7.8 C 5.96 g/m*3 4.35 C 22.5 km/h
1887 16-01-2018 13:10:00 7.8 C 6.04 g/m*3 4.68 C 19.3 km/h
1888 16-01-2018 13:15:00 7.9 C 5.91 g/m*3 4.18 C 25.7 km/h
1889 16-01-2018 13:20:00 7.9 C 5.83 g/m*3 4.63 C 20.9 km/h
1890 16-01-2018 13:25:00 7.9 C 5.83 g/m*3 4.98 C 17.7 km/h
1891 16-01-2018 13:30:00 7.9 C 5.75 g/m*3 5.18 C 16.1 km/h
1892 16-01-2018 13:35:00 7.9 C 5.75 g/m*3 4.63 C 20.9 km/h
1893 16-01-2018 13:40:00 7.9 C 5.75 g/m*3 4.8 C 19.3 km/h
1894 16-01-2018 13:45:00 7.9 C 5.83 g/m*3 4.18 C 25.7 km/h
1895 16-01-2018 13:50:00 8 C 5.79 g/m*3 4.76 C 20.9 km/h
1896 16-01-2018 13:55:00 7.9 C 5.67 g/m*3 4.18 C 25.7 km/h
1897 16-01-2018 14:00:00 7.9 C 5.83 g/m*3 4.18 C 25.7 km/h
1898 16-01-2018 14:05:00 7.9 C 5.83 g/m*3 3.91 C 29 km/h
1899 16-01-2018 14:10:00 7.9 C 5.83 g/m*3 4.32 C 24.1 km/h
1900 16-01-2018 14:15:00 7.8 C 5.63 g/m*3 4.35 C 22.5 km/h
Sensor: Nr:Datum:Temp:Abs-Feuchte:Windchill:Wind:
Aussen-T/F 1901 16-01-2018 14:20:00 7.8 C 5.71 g/m*3 4.35 C 22.5 km/h
1902 16-01-2018 14:25:00 7.8 C 5.63 g/m*3 4.2 C 24.1 km/h
1903 16-01-2018 14:30:00 7.8 C 5.47 g/m*3 3.91 C 27.4 km/h
1904 16-01-2018 14:35:00 7.8 C 5.55 g/m*3 5.27 C 14.5 km/h
1905 16-01-2018 14:40:00 7.7 C 5.59 g/m*3 3.65 C 29 km/h
1906 16-01-2018 14:45:00 7.7 C 5.68 g/m*3 4.93 C 16.1 km/h
1907 16-01-2018 14:50:00 7.6 C 5.64 g/m*3 3.94 C 24.1 km/h
1908 16-01-2018 14:55:00 7.6 C 5.72 g/m*3 4.09 C 22.5 km/h
1909 16-01-2018 15:00:00 7.5 C 5.76 g/m*3 4.48 C 17.7 km/h
1910 16-01-2018 15:05:00 7.6 C 5.64 g/m*3 4.25 C 20.9 km/h
1911 16-01-2018 15:10:00 7.6 C 5.56 g/m*3 4.61 C 17.7 km/h
1912 16-01-2018 15:15:00 7.7 C 5.59 g/m*3 5.15 C 14.5 km/h
1913 16-01-2018 15:20:00 7.7 C 5.68 g/m*3 5.15 C 14.5 km/h
1914 16-01-2018 15:25:00 7.8 C 5.79 g/m*3 5.06 C 16.1 km/h
1915 16-01-2018 15:30:00 7.7 C 5.84 g/m*3 5.65 C 11.3 km/h
1916 16-01-2018 15:35:00 7.7 C 5.76 g/m*3 4.73 C 17.7 km/h
1917 16-01-2018 15:40:00 7.7 C 5.59 g/m*3 4.55 C 19.3 km/h
1918 16-01-2018 15:45:00 7.7 C 5.68 g/m*3 5.15 C 14.5 km/h
1919 16-01-2018 15:50:00 7.7 C 5.59 g/m*3 4.55 C 19.3 km/h
1920 16-01-2018 15:55:00 7.8 C 5.55 g/m*3 4.05 C 25.7 km/h
1921 16-01-2018 16:00:00 7.8 C 5.71 g/m*3 4.86 C 17.7 km/h
1922 16-01-2018 16:05:00 7.8 C 5.79 g/m*3 6.83 C 6.4 km/h
1923 16-01-2018 16:10:00 7.7 C 5.76 g/m*3 4.38 C 20.9 km/h
1924 16-01-2018 16:15:00 7.6 C 5.64 g/m*3 4.42 C 19.3 km/h
1925 16-01-2018 16:20:00 7.3 C 5.45 g/m*3 3.41 C 25.7 km/h
Sensor: Nr:Datum:Temp:Abs-Feuchte:Windchill:Wind:
Aussen-T/F 1926 16-01-2018 16:25:00 6.6 C 5.66 g/m*3 2.82 C 22.5 km/h
1927 16-01-2018 16:30:00 5.9 C 5.77 g/m*3 3.19 C 12.9 km/h
1928 16-01-2018 16:35:00 5.5 C 5.76 g/m*3 2.7 C 12.9 km/h
1929 16-01-2018 16:40:00 5.2 C 5.78 g/m*3 1.83 C 16.1 km/h
1930 16-01-2018 16:45:00 5.1 C 5.81 g/m*3 1.28 C 19.3 km/h
1931 16-01-2018 16:50:00 5.1 C 5.88 g/m*3 1.49 C 17.7 km/h
1932 16-01-2018 16:55:00 5.2 C 5.92 g/m*3 2.34 C 12.9 km/h
1933 16-01-2018 17:00:00 5.1 C 5.95 g/m*3 3.23 C 8.1 km/h
1934 16-01-2018 17:05:00 5.1 C 6.02 g/m*3 5.1 C 3.2 km/h
1935 16-01-2018 17:10:00 5 C 5.98 g/m*3 5 C 4.8 km/h
1936 16-01-2018 17:15:00 4.9 C 6.01 g/m*3 4.9 C 3.2 km/h
1937 16-01-2018 17:20:00 4.8 C 6.04 g/m*3 4.8 C 1.6 km/h
1938 16-01-2018 17:25:00 4.7 C 6 g/m*3 4.7 C 0 km/h
1939 16-01-2018 17:30:00 4.7 C 6.06 g/m*3 4.7 C 4.8 km/h
1940 16-01-2018 17:35:00 4.6 C 6.02 g/m*3 4.6 C 1.6 km/h
1941 16-01-2018 17:40:00 4.6 C 6.09 g/m*3 4.6 C 3.2 km/h
1942 16-01-2018 17:45:00 4.5 C 6.05 g/m*3 4.5 C 4.8 km/h
1943 16-01-2018 17:50:00 4.5 C 6.05 g/m*3 4.5 C 1.6 km/h
1944 16-01-2018 17:55:00 4.4 C 6.07 g/m*3 4.4 C 1.6 km/h
1945 16-01-2018 18:00:00 4.3 C 6.03 g/m*3 4.3 C 3.2 km/h
1946 16-01-2018 18:05:00 4.3 C 6.03 g/m*3 4.3 C 4.8 km/h
1947 16-01-2018 18:10:00 4.3 C 6.03 g/m*3 4.3 C 4.8 km/h
1948 16-01-2018 18:15:00 4.2 C 6.06 g/m*3 4.2 C 3.2 km/h
1949 16-01-2018 18:20:00 4.2 C 6.06 g/m*3 4.2 C 0 km/h
1950 16-01-2018 18:25:00 4.1 C 5.95 g/m*3 4.1 C 4.8 km/h
Sensor: Nr:Datum:Temp:Abs-Feuchte:Windchill:Wind:
Aussen-T/F 1951 16-01-2018 18:30:00 3.9 C 5.87 g/m*3 3.9 C 3.2 km/h
1952 16-01-2018 18:35:00 3.8 C 5.83 g/m*3 2.21 C 6.4 km/h
1953 16-01-2018 18:40:00 3.7 C 5.8 g/m*3 1.58 C 8.1 km/h
1954 16-01-2018 18:45:00 3.7 C 5.8 g/m*3 0.51 C 12.9 km/h
1955 16-01-2018 18:50:00 3.7 C 5.73 g/m*3 1.18 C 9.7 km/h
1956 16-01-2018 18:55:00 3.7 C 5.73 g/m*3 1.58 C 8.1 km/h
1957 16-01-2018 19:00:00 3.7 C 5.67 g/m*3 0.82 C 11.3 km/h
1958 16-01-2018 19:05:00 3.8 C 5.65 g/m*3 3.8 C 4.8 km/h
1959 16-01-2018 19:10:00 3.9 C 5.68 g/m*3 3.9 C 3.2 km/h
1960 16-01-2018 19:15:00 3.8 C 5.65 g/m*3 3.8 C 3.2 km/h
1961 16-01-2018 19:20:00 3.8 C 5.65 g/m*3 3.8 C 4.8 km/h
1962 16-01-2018 19:25:00 3.8 C 5.65 g/m*3 1.29 C 9.7 km/h
1963 16-01-2018 19:30:00 3.9 C 5.62 g/m*3 1.41 C 9.7 km/h
1964 16-01-2018 19:35:00 4.2 C 5.67 g/m*3 2.67 C 6.4 km/h
1965 16-01-2018 19:40:00 4.2 C 5.73 g/m*3 2.67 C 6.4 km/h
1966 16-01-2018 19:45:00 4.3 C 5.58 g/m*3 0.97 C 14.5 km/h
1967 16-01-2018 19:50:00 4.6 C 5.56 g/m*3 1.34 C 14.5 km/h
1968 16-01-2018 19:55:00 4.7 C 5.66 g/m*3 4.7 C 3.2 km/h
1969 16-01-2018 20:00:00 4.8 C 5.77 g/m*3 4.8 C 3.2 km/h
1970 16-01-2018 20:05:00 4.8 C 5.83 g/m*3 4.8 C 0 km/h
1971 16-01-2018 20:10:00 4.7 C 5.8 g/m*3 4.7 C 1.6 km/h
1972 16-01-2018 20:15:00 4.7 C 5.8 g/m*3 2.37 C 9.7 km/h
1973 16-01-2018 20:20:00 4.7 C 5.66 g/m*3 1.46 C 14.5 km/h
1974 16-01-2018 20:25:00 4.7 C 5.6 g/m*3 1.21 C 16.1 km/h
1975 16-01-2018 20:30:00 4.8 C 5.7 g/m*3 1.58 C 14.5 km/h
Sensor: Nr:Datum:Temp:Abs-Feuchte:Windchill:Wind:
Aussen-T/F 1976 16-01-2018 20:35:00 4.8 C 5.7 g/m*3 2.15 C 11.3 km/h
1977 16-01-2018 20:40:00 4.9 C 5.74 g/m*3 4.9 C 3.2 km/h
1978 16-01-2018 20:45:00 4.9 C 5.74 g/m*3 4.9 C 4.8 km/h
1979 16-01-2018 20:50:00 4.9 C 5.81 g/m*3 2.27 C 11.3 km/h
1980 16-01-2018 20:55:00 4.7 C 5.73 g/m*3 4.7 C 3.2 km/h
1981 16-01-2018 21:00:00 4.6 C 5.69 g/m*3 4.6 C 3.2 km/h
1982 16-01-2018 21:05:00 4.4 C 5.68 g/m*3 4.4 C 3.2 km/h
1983 16-01-2018 21:10:00 4.3 C 5.64 g/m*3 4.3 C 1.6 km/h
1984 16-01-2018 21:15:00 4.2 C 5.61 g/m*3 4.2 C 1.6 km/h
1985 16-01-2018 21:20:00 4 C 5.59 g/m*3 4 C 0 km/h
1986 16-01-2018 21:25:00 3.8 C 5.46 g/m*3 3.8 C 0 km/h
1987 16-01-2018 21:30:00 3.5 C 5.41 g/m*3 3.5 C 0 km/h
1988 16-01-2018 21:35:00 3.3 C 5.4 g/m*3 3.3 C 0 km/h
1989 16-01-2018 21:40:00 3.2 C 5.42 g/m*3 3.2 C 0 km/h
1990 16-01-2018 21:45:00 3.2 C 5.48 g/m*3 3.2 C 1.6 km/h
1991 16-01-2018 21:50:00 3.2 C 5.48 g/m*3 3.2 C 0 km/h
1992 16-01-2018 21:55:00 3.1 C 5.45 g/m*3 3.1 C 0 km/h
1993 16-01-2018 22:00:00 3 C 5.41 g/m*3 1.28 C 6.4 km/h
1994 16-01-2018 22:05:00 3 C 5.47 g/m*3 3 C 3.2 km/h
1995 16-01-2018 22:10:00 3.1 C 5.51 g/m*3 3.1 C 4.8 km/h
1996 16-01-2018 22:15:00 3.2 C 5.48 g/m*3 0.22 C 11.3 km/h
1997 16-01-2018 22:20:00 3.3 C 5.52 g/m*3 0.7 C 9.7 km/h
1998 16-01-2018 22:25:00 3.4 C 5.5 g/m*3 0.82 C 9.7 km/h
1999 16-01-2018 22:30:00 3.7 C 5.55 g/m*3 0.23 C 14.5 km/h
2000 16-01-2018 22:35:00 3.8 C 5.58 g/m*3 0.94 C 11.3 km/h
Sensor: Nr:Datum:Temp:Abs-Feuchte:Windchill:Wind:
Aussen-T/F 2001 16-01-2018 22:40:00 3.9 C 5.56 g/m*3 1.82 C 8.1 km/h
2002 16-01-2018 22:45:00 4 C 5.53 g/m*3 1.53 C 9.7 km/h
2003 16-01-2018 22:50:00 4.1 C 5.57 g/m*3 1.31 C 11.3 km/h
2004 16-01-2018 22:55:00 4.1 C 5.57 g/m*3 2.55 C 6.4 km/h
2005 16-01-2018 23:00:00 4.2 C 5.61 g/m*3 2.17 C 8.1 km/h
2006 16-01-2018 23:05:00 4.2 C 5.61 g/m*3 4.2 C 4.8 km/h
2007 16-01-2018 23:10:00 4.2 C 5.61 g/m*3 1.77 C 9.7 km/h
2008 16-01-2018 23:15:00 4.1 C 5.57 g/m*3 1.31 C 11.3 km/h
2009 16-01-2018 23:20:00 4.1 C 5.57 g/m*3 1.31 C 11.3 km/h
2010 16-01-2018 23:25:00 4.2 C 5.61 g/m*3 4.2 C 4.8 km/h
2011 16-01-2018 23:30:00 4.2 C 5.61 g/m*3 2.17 C 8.1 km/h
2012 16-01-2018 23:35:00 4.2 C 5.61 g/m*3 1.43 C 11.3 km/h
2013 16-01-2018 23:40:00 4.3 C 5.64 g/m*3 1.55 C 11.3 km/h
2014 16-01-2018 23:45:00 4.3 C 5.64 g/m*3 4.3 C 3.2 km/h
2015 16-01-2018 23:50:00 4.4 C 5.68 g/m*3 0.61 C 17.7 km/h
2016 16-01-2018 23:55:00 4.5 C 5.72 g/m*3 1.48 C 12.9 km/h
2017 17-01-2018 00:00:00 4.6 C 5.76 g/m*3 1.91 C 11.3 km/h
2018 17-01-2018 00:05:00 4.7 C 5.73 g/m*3 1.21 C 16.1 km/h
2019 17-01-2018 00:10:00 4.7 C 5.73 g/m*3 2.03 C 11.3 km/h
2020 17-01-2018 00:15:00 4.7 C 5.73 g/m*3 3.25 C 6.4 km/h
2021 17-01-2018 00:20:00 4.6 C 5.69 g/m*3 3.13 C 6.4 km/h
2022 17-01-2018 00:25:00 4.5 C 5.65 g/m*3 3.02 C 6.4 km/h
2023 17-01-2018 00:30:00 4.4 C 5.68 g/m*3 2.9 C 6.4 km/h
2024 17-01-2018 00:35:00 4.4 C 5.68 g/m*3 4.4 C 1.6 km/h
2025 17-01-2018 00:40:00 4.3 C 5.64 g/m*3 4.3 C 1.6 km/h
Sensor: Nr:Datum:Temp:Abs-Feuchte:Windchill:Wind:
Aussen-T/F 2026 17-01-2018 00:45:00 4.3 C 5.71 g/m*3 4.3 C 4.8 km/h
2027 17-01-2018 00:50:00 4.3 C 5.71 g/m*3 2.29 C 8.1 km/h
2028 17-01-2018 00:55:00 4.3 C 5.77 g/m*3 4.3 C 4.8 km/h
2029 17-01-2018 01:00:00 4.3 C 5.77 g/m*3 4.3 C 4.8 km/h
2030 17-01-2018 01:05:00 4.3 C 5.84 g/m*3 1.55 C 11.3 km/h
2031 17-01-2018 01:10:00 4.3 C 5.84 g/m*3 2.29 C 8.1 km/h
2032 17-01-2018 01:15:00 4.3 C 5.84 g/m*3 0.27 C 19.3 km/h
2033 17-01-2018 01:20:00 4.2 C 5.8 g/m*3 0.15 C 19.3 km/h
2034 17-01-2018 01:25:00 4.1 C 5.82 g/m*3 -0.37 C 22.5 km/h
2035 17-01-2018 01:30:00 4 C 5.79 g/m*3 -0.31 C 20.9 km/h
2036 17-01-2018 01:35:00 3.9 C 5.75 g/m*3 1.06 C 11.3 km/h
2037 17-01-2018 01:40:00 3.8 C 5.77 g/m*3 3.8 C 3.2 km/h
2038 17-01-2018 01:45:00 3.7 C 5.73 g/m*3 3.7 C 3.2 km/h
2039 17-01-2018 01:50:00 3.7 C 5.73 g/m*3 3.7 C 3.2 km/h
2040 17-01-2018 01:55:00 3.7 C 5.73 g/m*3 3.7 C 3.2 km/h
2041 17-01-2018 02:00:00 3.6 C 5.76 g/m*3 1.46 C 8.1 km/h
2042 17-01-2018 02:05:00 3.6 C 5.76 g/m*3 3.6 C 4.8 km/h
2043 17-01-2018 02:10:00 3.6 C 5.76 g/m*3 1.46 C 8.1 km/h
2044 17-01-2018 02:15:00 3.6 C 5.76 g/m*3 1.46 C 8.1 km/h
2045 17-01-2018 02:20:00 3.7 C 5.8 g/m*3 1.58 C 8.1 km/h
2046 17-01-2018 02:25:00 3.7 C 5.8 g/m*3 3.7 C 3.2 km/h
2047 17-01-2018 02:30:00 3.7 C 5.8 g/m*3 3.7 C 4.8 km/h
2048 17-01-2018 02:35:00 3.7 C 5.8 g/m*3 2.09 C 6.4 km/h
2049 17-01-2018 02:40:00 3.7 C 5.8 g/m*3 1.58 C 8.1 km/h
2050 17-01-2018 02:45:00 3.7 C 5.8 g/m*3 1.18 C 9.7 km/h
Sensor: Nr:Datum:Temp:Abs-Feuchte:Windchill:Wind:
Aussen-T/F 2051 17-01-2018 02:50:00 3.6 C 5.76 g/m*3 0.7 C 11.3 km/h
2052 17-01-2018 02:55:00 3.5 C 5.72 g/m*3 3.5 C 4.8 km/h
2053 17-01-2018 03:00:00 3.4 C 5.68 g/m*3 1.23 C 8.1 km/h
2054 17-01-2018 03:05:00 3.4 C 5.68 g/m*3 3.4 C 4.8 km/h
2055 17-01-2018 03:10:00 3.4 C 5.68 g/m*3 3.4 C 3.2 km/h
2056 17-01-2018 03:15:00 3.5 C 5.72 g/m*3 3.5 C 4.8 km/h
2057 17-01-2018 03:20:00 3.6 C 5.82 g/m*3 1.98 C 6.4 km/h
2058 17-01-2018 03:25:00 3.6 C 5.76 g/m*3 0.7 C 11.3 km/h
2059 17-01-2018 03:30:00 3.6 C 5.76 g/m*3 0.11 C 14.5 km/h
2060 17-01-2018 03:35:00 3.5 C 5.66 g/m*3 0.58 C 11.3 km/h
2061 17-01-2018 03:40:00 3.4 C 5.62 g/m*3 3.4 C 4.8 km/h
2062 17-01-2018 03:45:00 3.4 C 5.62 g/m*3 3.4 C 1.6 km/h
2063 17-01-2018 03:50:00 3.4 C 5.68 g/m*3 3.4 C 0 km/h
2064 17-01-2018 03:55:00 3.3 C 5.58 g/m*3 3.3 C 0 km/h
2065 17-01-2018 04:00:00 3.1 C 5.51 g/m*3 3.1 C 1.6 km/h
2066 17-01-2018 04:05:00 2.9 C 5.43 g/m*3 2.9 C 1.6 km/h
2067 17-01-2018 04:10:00 2.8 C 5.4 g/m*3 2.8 C 0 km/h
2068 17-01-2018 04:15:00 2.8 C 5.46 g/m*3 2.8 C 0 km/h
2069 17-01-2018 04:20:00 2.8 C 5.51 g/m*3 2.8 C 1.6 km/h
2070 17-01-2018 04:25:00 2.9 C 5.55 g/m*3 2.9 C 1.6 km/h
2071 17-01-2018 04:30:00 2.9 C 5.55 g/m*3 2.9 C 4.8 km/h
2072 17-01-2018 04:35:00 2.8 C 5.51 g/m*3 2.8 C 3.2 km/h
2073 17-01-2018 04:40:00 2.8 C 5.51 g/m*3 2.8 C 4.8 km/h
2074 17-01-2018 04:45:00 2.7 C 5.48 g/m*3 2.7 C 3.2 km/h
2075 17-01-2018 04:50:00 2.7 C 5.48 g/m*3 2.7 C 4.8 km/h
Sensor: Nr:Datum:Temp:Abs-Feuchte:Windchill:Wind:
Aussen-T/F 2076 17-01-2018 04:55:00 2.8 C 5.51 g/m*3 2.8 C 3.2 km/h
2077 17-01-2018 05:00:00 2.8 C 5.51 g/m*3 2.8 C 1.6 km/h
2078 17-01-2018 05:05:00 2.8 C 5.51 g/m*3 2.8 C 3.2 km/h
2079 17-01-2018 05:10:00 2.8 C 5.51 g/m*3 2.8 C 3.2 km/h
2080 17-01-2018 05:15:00 2.8 C 5.51 g/m*3 2.8 C 3.2 km/h
2081 17-01-2018 05:20:00 2.8 C 5.51 g/m*3 2.8 C 3.2 km/h
2082 17-01-2018 05:25:00 2.8 C 5.51 g/m*3 2.8 C 4.8 km/h
2083 17-01-2018 05:30:00 2.8 C 5.46 g/m*3 1.05 C 6.4 km/h
2084 17-01-2018 05:35:00 2.7 C 5.36 g/m*3 2.7 C 4.8 km/h
2085 17-01-2018 05:40:00 2.8 C 5.34 g/m*3 0.1 C 9.7 km/h
2086 17-01-2018 05:45:00 2.9 C 5.37 g/m*3 2.9 C 1.6 km/h
2087 17-01-2018 05:50:00 2.9 C 5.37 g/m*3 2.9 C 1.6 km/h
2088 17-01-2018 05:55:00 2.9 C 5.37 g/m*3 2.9 C 1.6 km/h
2089 17-01-2018 06:00:00 2.9 C 5.37 g/m*3 2.9 C 4.8 km/h
2090 17-01-2018 06:05:00 2.9 C 5.37 g/m*3 2.9 C 3.2 km/h
2091 17-01-2018 06:10:00 2.8 C 5.34 g/m*3 2.8 C 3.2 km/h
2092 17-01-2018 06:15:00 2.8 C 5.28 g/m*3 2.8 C 1.6 km/h
2093 17-01-2018 06:20:00 2.8 C 5.28 g/m*3 2.8 C 1.6 km/h
2094 17-01-2018 06:25:00 2.7 C 5.24 g/m*3 2.7 C 1.6 km/h
2095 17-01-2018 06:30:00 2.7 C 5.24 g/m*3 2.7 C 3.2 km/h
2096 17-01-2018 06:35:00 2.8 C 5.28 g/m*3 2.8 C 1.6 km/h
2097 17-01-2018 06:40:00 2.8 C 5.28 g/m*3 2.8 C 3.2 km/h
2098 17-01-2018 06:45:00 2.8 C 5.34 g/m*3 2.8 C 3.2 km/h
2099 17-01-2018 06:50:00 2.8 C 5.28 g/m*3 1.05 C 6.4 km/h
2100 17-01-2018 06:55:00 2.8 C 5.28 g/m*3 1.05 C 6.4 km/h
Sensor: Nr:Datum:Temp:Abs-Feuchte:Windchill:Wind:
Aussen-T/F 2101 17-01-2018 07:00:00 2.9 C 5.32 g/m*3 0.64 C 8.1 km/h
2102 17-01-2018 07:05:00 3.1 C 5.27 g/m*3 -0.22 C 12.9 km/h
2103 17-01-2018 07:10:00 3.2 C 5.3 g/m*3 0.99 C 8.1 km/h
2104 17-01-2018 07:15:00 3.2 C 5.3 g/m*3 -0.39 C 14.5 km/h
2105 17-01-2018 07:20:00 3.2 C 5.3 g/m*3 0.99 C 8.1 km/h
2106 17-01-2018 07:25:00 3.1 C 5.27 g/m*3 -0.77 C 16.1 km/h
2107 17-01-2018 07:30:00 3.1 C 5.27 g/m*3 -0.51 C 14.5 km/h
2108 17-01-2018 07:35:00 3 C 5.29 g/m*3 -0.34 C 12.9 km/h
2109 17-01-2018 07:40:00 3 C 5.29 g/m*3 -0.9 C 16.1 km/h
2110 17-01-2018 07:45:00 2.8 C 5.16 g/m*3 -2.39 C 25.7 km/h
2111 17-01-2018 07:50:00 2.5 C 5.12 g/m*3 -2.77 C 25.7 km/h
2112 17-01-2018 07:55:00 2.2 C 5.07 g/m*3 0.36 C 6.4 km/h
2113 17-01-2018 08:00:00 2 C 5.06 g/m*3 0.13 C 6.4 km/h
2114 17-01-2018 08:05:00 1.8 C 4.99 g/m*3 1.8 C 4.8 km/h
2115 17-01-2018 08:10:00 1.7 C 5.01 g/m*3 1.7 C 1.6 km/h
2116 17-01-2018 08:15:00 1.6 C 4.97 g/m*3 1.6 C 1.6 km/h
2117 17-01-2018 08:20:00 1.6 C 5.03 g/m*3 1.6 C 3.2 km/h
2118 17-01-2018 08:25:00 1.5 C 4.99 g/m*3 1.5 C 4.8 km/h
2119 17-01-2018 08:30:00 1.4 C 4.96 g/m*3 1.4 C 1.6 km/h
2120 17-01-2018 08:35:00 1.4 C 4.96 g/m*3 1.4 C 4.8 km/h
2121 17-01-2018 08:40:00 1.4 C 5.01 g/m*3 1.4 C 3.2 km/h
2122 17-01-2018 08:45:00 1.5 C 5.05 g/m*3 1.5 C 3.2 km/h
2123 17-01-2018 08:50:00 1.5 C 5.05 g/m*3 1.5 C 4.8 km/h
2124 17-01-2018 08:55:00 1.6 C 5.08 g/m*3 1.6 C 3.2 km/h
2125 17-01-2018 09:00:00 1.6 C 5.08 g/m*3 1.6 C 4.8 km/h
Sensor: Nr:Datum:Temp:Abs-Feuchte:Windchill:Wind:
Aussen-T/F 2126 17-01-2018 09:05:00 1.6 C 5.08 g/m*3 1.6 C 4.8 km/h
2127 17-01-2018 09:10:00 1.6 C 5.08 g/m*3 1.6 C 3.2 km/h
2128 17-01-2018 09:15:00 1.7 C 5.12 g/m*3 -2.23 C 14.5 km/h
2129 17-01-2018 09:20:00 1.8 C 5.1 g/m*3 -1.8 C 12.9 km/h
2130 17-01-2018 09:25:00 1.9 C 5.08 g/m*3 -0.54 C 8.1 km/h
2131 17-01-2018 09:30:00 2 C 5.11 g/m*3 0.13 C 6.4 km/h
2132 17-01-2018 09:35:00 2.1 C 5.15 g/m*3 0.24 C 6.4 km/h
2133 17-01-2018 09:40:00 2.2 C 5.18 g/m*3 0.36 C 6.4 km/h
2134 17-01-2018 09:45:00 2.3 C 5.16 g/m*3 -0.07 C 8.1 km/h
2135 17-01-2018 09:50:00 2.4 C 5.2 g/m*3 0.05 C 8.1 km/h
2136 17-01-2018 09:55:00 2.4 C 5.2 g/m*3 2.4 C 3.2 km/h
2137 17-01-2018 10:00:00 2.4 C 5.14 g/m*3 2.4 C 4.8 km/h
2138 17-01-2018 10:05:00 2.4 C 5.14 g/m*3 2.4 C 3.2 km/h
2139 17-01-2018 10:10:00 2.4 C 5.2 g/m*3 2.4 C 3.2 km/h
2140 17-01-2018 10:15:00 2.4 C 5.25 g/m*3 2.4 C 1.6 km/h
2141 17-01-2018 10:20:00 2.4 C 5.25 g/m*3 2.4 C 1.6 km/h
2142 17-01-2018 10:25:00 2.5 C 5.29 g/m*3 2.5 C 3.2 km/h
2143 17-01-2018 10:30:00 2.5 C 5.23 g/m*3 2.5 C 3.2 km/h
2144 17-01-2018 10:35:00 2.4 C 5.2 g/m*3 0.59 C 6.4 km/h
2145 17-01-2018 10:40:00 2.5 C 5.17 g/m*3 2.5 C 4.8 km/h
2146 17-01-2018 10:45:00 2.6 C 5.09 g/m*3 -0.83 C 12.9 km/h
2147 17-01-2018 10:50:00 2.8 C 5.04 g/m*3 -0.59 C 12.9 km/h
2148 17-01-2018 10:55:00 2.9 C 5.14 g/m*3 0.22 C 9.7 km/h
2149 17-01-2018 11:00:00 3.1 C 5.15 g/m*3 -1.45 C 20.9 km/h
2150 17-01-2018 11:05:00 3.2 C 5.12 g/m*3 -1.11 C 19.3 km/h
Sensor: Nr:Datum:Temp:Abs-Feuchte:Windchill:Wind:
Aussen-T/F 2151 17-01-2018 11:10:00 3.3 C 5.16 g/m*3 0.7 C 9.7 km/h
2152 17-01-2018 11:15:00 3.3 C 5.1 g/m*3 -0.76 C 17.7 km/h
2153 17-01-2018 11:20:00 3.4 C 5.13 g/m*3 0.46 C 11.3 km/h
2154 17-01-2018 11:25:00 3.5 C 5.16 g/m*3 -0.02 C 14.5 km/h
2155 17-01-2018 11:30:00 3.6 C 5.14 g/m*3 0.11 C 14.5 km/h
2156 17-01-2018 11:35:00 3.7 C 5.23 g/m*3 -0.03 C 16.1 km/h
2157 17-01-2018 11:40:00 3.8 C 5.14 g/m*3 -0.56 C 20.9 km/h
2158 17-01-2018 11:45:00 3.9 C 5.18 g/m*3 -0.01 C 17.7 km/h
2159 17-01-2018 11:50:00 3.8 C 5.14 g/m*3 -1.1 C 25.7 km/h
2160 17-01-2018 11:55:00 3.7 C 5.23 g/m*3 -0.26 C 17.7 km/h
2161 17-01-2018 12:00:00 3.5 C 5.16 g/m*3 -0.94 C 20.9 km/h
2162 17-01-2018 12:05:00 3.4 C 5.25 g/m*3 -2.09 C 30.6 km/h
2163 17-01-2018 12:10:00 3.3 C 5.22 g/m*3 -2.22 C 30.6 km/h
2164 17-01-2018 12:15:00 3.3 C 5.28 g/m*3 -0.26 C 14.5 km/h
2165 17-01-2018 12:20:00 3.4 C 5.25 g/m*3 -0.4 C 16.1 km/h
2166 17-01-2018 12:25:00 3.6 C 5.26 g/m*3 -0.15 C 16.1 km/h
2167 17-01-2018 12:30:00 3.6 C 5.26 g/m*3 -1.01 C 22.5 km/h
2168 17-01-2018 12:35:00 3.6 C 5.2 g/m*3 -0.61 C 19.3 km/h
2169 17-01-2018 12:40:00 3.7 C 5.23 g/m*3 -0.48 C 19.3 km/h
2170 17-01-2018 12:45:00 3.7 C 5.23 g/m*3 -0.03 C 16.1 km/h
2171 17-01-2018 12:50:00 3.6 C 5.32 g/m*3 -0.81 C 20.9 km/h
2172 17-01-2018 12:55:00 3.4 C 5.37 g/m*3 -0.14 C 14.5 km/h
2173 17-01-2018 13:00:00 3.3 C 5.34 g/m*3 0.34 C 11.3 km/h
2174 17-01-2018 13:05:00 3.3 C 5.4 g/m*3 -0.26 C 14.5 km/h
2175 17-01-2018 13:10:00 3.2 C 5.36 g/m*3 0.99 C 8.1 km/h
Sensor: Nr:Datum:Temp:Abs-Feuchte:Windchill:Wind:
Aussen-T/F 2176 17-01-2018 13:15:00 3.2 C 5.36 g/m*3 -0.89 C 17.7 km/h
2177 17-01-2018 13:20:00 3.3 C 5.46 g/m*3 1.11 C 8.1 km/h
2178 17-01-2018 13:25:00 3.3 C 5.4 g/m*3 1.11 C 8.1 km/h
2179 17-01-2018 13:30:00 3.3 C 5.4 g/m*3 1.11 C 8.1 km/h
2180 17-01-2018 13:35:00 3.4 C 5.37 g/m*3 0.82 C 9.7 km/h
2181 17-01-2018 13:40:00 3.5 C 5.41 g/m*3 -0.73 C 19.3 km/h
2182 17-01-2018 13:45:00 3.7 C 5.42 g/m*3 -1.23 C 25.7 km/h
2183 17-01-2018 13:50:00 3.8 C 5.46 g/m*3 -0.36 C 19.3 km/h
2184 17-01-2018 13:55:00 3.8 C 5.46 g/m*3 0.94 C 11.3 km/h
2185 17-01-2018 14:00:00 3.9 C 5.43 g/m*3 0.47 C 14.5 km/h
2186 17-01-2018 14:05:00 3.9 C 5.43 g/m*3 0.22 C 16.1 km/h
2187 17-01-2018 14:10:00 4.1 C 5.44 g/m*3 1 C 12.9 km/h
2188 17-01-2018 14:15:00 4.2 C 5.48 g/m*3 0.15 C 19.3 km/h
2189 17-01-2018 14:20:00 4.2 C 5.41 g/m*3 0.59 C 16.1 km/h
2190 17-01-2018 14:25:00 4.2 C 5.41 g/m*3 -0.24 C 22.5 km/h
2191 17-01-2018 14:30:00 4.3 C 5.45 g/m*3 0.27 C 19.3 km/h
2192 17-01-2018 14:35:00 4.3 C 5.45 g/m*3 1.24 C 12.9 km/h
2193 17-01-2018 14:40:00 4.2 C 5.48 g/m*3 0.36 C 17.7 km/h
2194 17-01-2018 14:45:00 4.3 C 5.51 g/m*3 2.29 C 8.1 km/h
2195 17-01-2018 14:50:00 4.3 C 5.45 g/m*3 0.07 C 20.9 km/h
2196 17-01-2018 14:55:00 4.3 C 5.38 g/m*3 0.07 C 20.9 km/h
2197 17-01-2018 15:00:00 4.4 C 5.42 g/m*3 0.2 C 20.9 km/h
2198 17-01-2018 15:05:00 4.4 C 5.42 g/m*3 0.4 C 19.3 km/h
2199 17-01-2018 15:10:00 4.5 C 5.46 g/m*3 0.96 C 16.1 km/h
2200 17-01-2018 15:15:00 4.4 C 5.48 g/m*3 -0.16 C 24.1 km/h
Sensor: Nr:Datum:Temp:Abs-Feuchte:Windchill:Wind:
Aussen-T/F 2201 17-01-2018 15:20:00 4.4 C 5.48 g/m*3 0.84 C 16.1 km/h
2202 17-01-2018 15:25:00 4.3 C 5.45 g/m*3 0.07 C 20.9 km/h
2203 17-01-2018 15:30:00 4.2 C 5.54 g/m*3 0.15 C 19.3 km/h
2204 17-01-2018 15:35:00 4 C 5.53 g/m*3 1.18 C 11.3 km/h
2205 17-01-2018 15:40:00 3.9 C 5.49 g/m*3 1.41 C 9.7 km/h
2206 17-01-2018 15:45:00 3.8 C 5.52 g/m*3 0.94 C 11.3 km/h
2207 17-01-2018 15:50:00 3.7 C 5.48 g/m*3 0.82 C 11.3 km/h
2208 17-01-2018 15:55:00 3.7 C 5.42 g/m*3 0.82 C 11.3 km/h
2209 17-01-2018 16:00:00 3.8 C 5.52 g/m*3 0.1 C 16.1 km/h
2210 17-01-2018 16:05:00 3.8 C 5.46 g/m*3 0.35 C 14.5 km/h
2211 17-01-2018 16:10:00 3.9 C 5.49 g/m*3 1.06 C 11.3 km/h
2212 17-01-2018 16:15:00 3.9 C 5.49 g/m*3 1.82 C 8.1 km/h
2213 17-01-2018 16:20:00 4 C 5.47 g/m*3 -0.84 C 25.7 km/h
2214 17-01-2018 16:25:00 4.1 C 5.5 g/m*3 0.47 C 16.1 km/h
2215 17-01-2018 16:30:00 4.1 C 5.5 g/m*3 0.02 C 19.3 km/h
2216 17-01-2018 16:35:00 4.1 C 5.5 g/m*3 0.72 C 14.5 km/h
2217 17-01-2018 16:40:00 4.1 C 5.44 g/m*3 0.72 C 14.5 km/h
2218 17-01-2018 16:45:00 4.1 C 5.44 g/m*3 0.47 C 16.1 km/h
2219 17-01-2018 16:50:00 4 C 5.4 g/m*3 0.11 C 17.7 km/h
2220 17-01-2018 16:55:00 4 C 5.4 g/m*3 0.11 C 17.7 km/h
2221 17-01-2018 17:00:00 3.9 C 5.37 g/m*3 0.75 C 12.9 km/h
2222 17-01-2018 17:05:00 3.9 C 5.37 g/m*3 0.22 C 16.1 km/h
2223 17-01-2018 17:10:00 3.9 C 5.37 g/m*3 0.75 C 12.9 km/h
2224 17-01-2018 17:15:00 4 C 5.4 g/m*3 -0.11 C 19.3 km/h
2225 17-01-2018 17:20:00 4 C 5.34 g/m*3 0.6 C 14.5 km/h
Sensor: Nr:Datum:Temp:Abs-Feuchte:Windchill:Wind:
Aussen-T/F 2226 17-01-2018 17:25:00 4 C 5.34 g/m*3 1.18 C 11.3 km/h
2227 17-01-2018 17:30:00 3.9 C 5.24 g/m*3 -0.23 C 19.3 km/h
2228 17-01-2018 17:35:00 3.9 C 5.24 g/m*3 0.22 C 16.1 km/h
2229 17-01-2018 17:40:00 4 C 5.21 g/m*3 -0.5 C 22.5 km/h
2230 17-01-2018 17:45:00 4 C 5.21 g/m*3 1.18 C 11.3 km/h
2231 17-01-2018 17:50:00 4.1 C 5.18 g/m*3 0.72 C 14.5 km/h
2232 17-01-2018 17:55:00 4.1 C 5.12 g/m*3 0.47 C 16.1 km/h
2233 17-01-2018 18:00:00 4.1 C 5.12 g/m*3 1.65 C 9.7 km/h
2234 17-01-2018 18:05:00 4.1 C 5.12 g/m*3 1.31 C 11.3 km/h
2235 17-01-2018 18:10:00 4.2 C 5.15 g/m*3 0.36 C 17.7 km/h
2236 17-01-2018 18:15:00 4.3 C 5.12 g/m*3 0.49 C 17.7 km/h
2237 17-01-2018 18:20:00 4.4 C 5.16 g/m*3 1.67 C 11.3 km/h
2238 17-01-2018 18:25:00 4.4 C 5.09 g/m*3 1.09 C 14.5 km/h
2239 17-01-2018 18:30:00 4.4 C 5.09 g/m*3 1.09 C 14.5 km/h
2240 17-01-2018 18:35:00 4.5 C 5.13 g/m*3 1.79 C 11.3 km/h
2241 17-01-2018 18:40:00 4.5 C 5.13 g/m*3 2.13 C 9.7 km/h
2242 17-01-2018 18:45:00 4.5 C 5.13 g/m*3 2.52 C 8.1 km/h
2243 17-01-2018 18:50:00 4.5 C 5.06 g/m*3 1.79 C 11.3 km/h
2244 17-01-2018 18:55:00 4.4 C 5.03 g/m*3 2.01 C 9.7 km/h
2245 17-01-2018 19:00:00 4.4 C 5.03 g/m*3 1.67 C 11.3 km/h
2246 17-01-2018 19:05:00 4.3 C 4.99 g/m*3 0.27 C 19.3 km/h
2247 17-01-2018 19:10:00 4.3 C 4.99 g/m*3 1.55 C 11.3 km/h
2248 17-01-2018 19:15:00 4.2 C 4.96 g/m*3 1.12 C 12.9 km/h
2249 17-01-2018 19:20:00 4.1 C 4.93 g/m*3 1.65 C 9.7 km/h
2250 17-01-2018 19:25:00 4 C 5.02 g/m*3 2.44 C 6.4 km/h
Sensor: Nr:Datum:Temp:Abs-Feuchte:Windchill:Wind:
Aussen-T/F 2251 17-01-2018 19:30:00 3.8 C 4.96 g/m*3 2.21 C 6.4 km/h
2252 17-01-2018 19:35:00 3.8 C 4.96 g/m*3 2.21 C 6.4 km/h
2253 17-01-2018 19:40:00 3.7 C 4.92 g/m*3 0.82 C 11.3 km/h
2254 17-01-2018 19:45:00 3.7 C 4.99 g/m*3 2.09 C 6.4 km/h
2255 17-01-2018 19:50:00 3.7 C 4.99 g/m*3 1.18 C 9.7 km/h
2256 17-01-2018 19:55:00 3.7 C 4.92 g/m*3 2.09 C 6.4 km/h
2257 17-01-2018 20:00:00 3.8 C 4.96 g/m*3 1.29 C 9.7 km/h
2258 17-01-2018 20:05:00 3.8 C 4.96 g/m*3 0.63 C 12.9 km/h
2259 17-01-2018 20:10:00 3.9 C 4.99 g/m*3 0.47 C 14.5 km/h
2260 17-01-2018 20:15:00 3.9 C 4.99 g/m*3 1.06 C 11.3 km/h
2261 17-01-2018 20:20:00 3.9 C 4.99 g/m*3 1.82 C 8.1 km/h
2262 17-01-2018 20:25:00 3.9 C 4.99 g/m*3 1.06 C 11.3 km/h
2263 17-01-2018 20:30:00 3.9 C 4.99 g/m*3 1.82 C 8.1 km/h
2264 17-01-2018 20:35:00 3.9 C 4.99 g/m*3 1.41 C 9.7 km/h
2265 17-01-2018 20:40:00 3.9 C 4.93 g/m*3 0.75 C 12.9 km/h
2266 17-01-2018 20:45:00 3.9 C 4.99 g/m*3 1.82 C 8.1 km/h
2267 17-01-2018 20:50:00 3.9 C 4.99 g/m*3 0.75 C 12.9 km/h
2268 17-01-2018 20:55:00 3.9 C 4.93 g/m*3 1.06 C 11.3 km/h
2269 17-01-2018 21:00:00 4 C 4.96 g/m*3 1.53 C 9.7 km/h
2270 17-01-2018 21:05:00 3.9 C 4.93 g/m*3 2.32 C 6.4 km/h
2271 17-01-2018 21:10:00 3.8 C 4.96 g/m*3 3.8 C 4.8 km/h
2272 17-01-2018 21:15:00 3.7 C 4.99 g/m*3 3.7 C 4.8 km/h
2273 17-01-2018 21:20:00 3.6 C 4.95 g/m*3 1.06 C 9.7 km/h
2274 17-01-2018 21:25:00 3.4 C 4.95 g/m*3 1.75 C 6.4 km/h
2275 17-01-2018 21:30:00 3.4 C 4.95 g/m*3 0.82 C 9.7 km/h
Sensor: Nr:Datum:Temp:Abs-Feuchte:Windchill:Wind:
Aussen-T/F 2276 17-01-2018 21:35:00 3.6 C 5.01 g/m*3 1.46 C 8.1 km/h
2277 17-01-2018 21:40:00 3.7 C 5.05 g/m*3 0.23 C 14.5 km/h
2278 17-01-2018 21:45:00 3.6 C 5.01 g/m*3 1.46 C 8.1 km/h
2279 17-01-2018 21:50:00 3.7 C 5.05 g/m*3 0.51 C 12.9 km/h
2280 17-01-2018 21:55:00 3.7 C 4.99 g/m*3 1.18 C 9.7 km/h
2281 17-01-2018 22:00:00 3.8 C 5.02 g/m*3 0.35 C 14.5 km/h
2282 17-01-2018 22:05:00 3.8 C 4.96 g/m*3 0.94 C 11.3 km/h
2283 17-01-2018 22:10:00 3.8 C 5.02 g/m*3 0.1 C 16.1 km/h
2284 17-01-2018 22:15:00 3.8 C 5.02 g/m*3 1.29 C 9.7 km/h
2285 17-01-2018 22:20:00 3.8 C 5.02 g/m*3 0.35 C 14.5 km/h
2286 17-01-2018 22:25:00 3.9 C 5.12 g/m*3 1.82 C 8.1 km/h
2287 17-01-2018 22:30:00 4 C 5.15 g/m*3 0.88 C 12.9 km/h
2288 17-01-2018 22:35:00 4 C 5.15 g/m*3 1.93 C 8.1 km/h
2289 17-01-2018 22:40:00 4 C 5.15 g/m*3 0.88 C 12.9 km/h
2290 17-01-2018 22:45:00 3.9 C 5.12 g/m*3 2.32 C 6.4 km/h
2291 17-01-2018 22:50:00 3.9 C 5.18 g/m*3 1.41 C 9.7 km/h
2292 17-01-2018 22:55:00 3.9 C 5.18 g/m*3 1.82 C 8.1 km/h
2293 17-01-2018 23:00:00 3.8 C 5.14 g/m*3 0.94 C 11.3 km/h
2294 17-01-2018 23:05:00 3.7 C 5.17 g/m*3 2.09 C 6.4 km/h
2295 17-01-2018 23:10:00 3.7 C 5.17 g/m*3 2.09 C 6.4 km/h
2296 17-01-2018 23:15:00 3.6 C 5.2 g/m*3 3.6 C 4.8 km/h
2297 17-01-2018 23:20:00 3.4 C 5.19 g/m*3 1.75 C 6.4 km/h
2298 17-01-2018 23:25:00 3.4 C 5.19 g/m*3 1.75 C 6.4 km/h
2299 17-01-2018 23:30:00 3.3 C 5.22 g/m*3 3.3 C 3.2 km/h
2300 17-01-2018 23:35:00 3.3 C 5.22 g/m*3 3.3 C 4.8 km/h
Sensor: Nr:Datum:Temp:Abs-Feuchte:Windchill:Wind:
Aussen-T/F 2301 17-01-2018 23:40:00 3.2 C 5.18 g/m*3 3.2 C 3.2 km/h
2302 17-01-2018 23:45:00 3.2 C 5.24 g/m*3 -0.39 C 14.5 km/h
2303 17-01-2018 23:50:00 3.2 C 5.24 g/m*3 0.58 C 9.7 km/h
2304 17-01-2018 23:55:00 3.2 C 5.24 g/m*3 1.51 C 6.4 km/h
2305 18-01-2018 00:00:00 3.3 C 5.28 g/m*3 1.11 C 8.1 km/h
2306 18-01-2018 00:05:00 3.3 C 5.34 g/m*3 1.11 C 8.1 km/h
2307 18-01-2018 00:10:00 3.4 C 5.31 g/m*3 3.4 C 4.8 km/h
2308 18-01-2018 00:15:00 3.4 C 5.31 g/m*3 0.82 C 9.7 km/h
2309 18-01-2018 00:20:00 3.4 C 5.31 g/m*3 0.46 C 11.3 km/h
2310 18-01-2018 00:25:00 3.4 C 5.31 g/m*3 3.4 C 3.2 km/h
2311 18-01-2018 00:30:00 3.3 C 5.34 g/m*3 3.3 C 4.8 km/h
2312 18-01-2018 00:35:00 3.3 C 5.34 g/m*3 0.7 C 9.7 km/h
2313 18-01-2018 00:40:00 3.4 C 5.37 g/m*3 0.82 C 9.7 km/h
2314 18-01-2018 00:45:00 3.4 C 5.37 g/m*3 0.82 C 9.7 km/h
2315 18-01-2018 00:50:00 3.6 C 5.39 g/m*3 -0.61 C 19.3 km/h
2316 18-01-2018 00:55:00 3.7 C 5.42 g/m*3 -0.48 C 19.3 km/h
2317 18-01-2018 01:00:00 3.7 C 5.42 g/m*3 0.82 C 11.3 km/h
2318 18-01-2018 01:05:00 3.8 C 5.46 g/m*3 1.7 C 8.1 km/h
2319 18-01-2018 01:10:00 3.8 C 5.46 g/m*3 1.29 C 9.7 km/h
2320 18-01-2018 01:15:00 3.8 C 5.46 g/m*3 0.94 C 11.3 km/h
2321 18-01-2018 01:20:00 3.8 C 5.46 g/m*3 1.7 C 8.1 km/h
2322 18-01-2018 01:25:00 3.8 C 5.46 g/m*3 1.29 C 9.7 km/h
2323 18-01-2018 01:30:00 3.8 C 5.4 g/m*3 1.29 C 9.7 km/h
2324 18-01-2018 01:35:00 3.8 C 5.46 g/m*3 1.7 C 8.1 km/h
2325 18-01-2018 01:40:00 3.9 C 5.43 g/m*3 1.82 C 8.1 km/h
Sensor: Nr:Datum:Temp:Abs-Feuchte:Windchill:Wind:
Aussen-T/F 2326 18-01-2018 01:45:00 3.9 C 5.49 g/m*3 0.47 C 14.5 km/h
2327 18-01-2018 01:50:00 3.9 C 5.49 g/m*3 1.06 C 11.3 km/h
2328 18-01-2018 01:55:00 3.9 C 5.49 g/m*3 1.41 C 9.7 km/h
2329 18-01-2018 02:00:00 4 C 5.53 g/m*3 1.93 C 8.1 km/h
2330 18-01-2018 02:05:00 4 C 5.53 g/m*3 1.93 C 8.1 km/h
2331 18-01-2018 02:10:00 4 C 5.53 g/m*3 1.93 C 8.1 km/h
2332 18-01-2018 02:15:00 4 C 5.53 g/m*3 0.88 C 12.9 km/h
2333 18-01-2018 02:20:00 4.1 C 5.57 g/m*3 1.65 C 9.7 km/h
2334 18-01-2018 02:25:00 4.1 C 5.63 g/m*3 1 C 12.9 km/h
2335 18-01-2018 02:30:00 4.1 C 5.63 g/m*3 1.65 C 9.7 km/h
2336 18-01-2018 02:35:00 4.1 C 5.63 g/m*3 2.05 C 8.1 km/h
2337 18-01-2018 02:40:00 4 C 5.59 g/m*3 1.53 C 9.7 km/h
2338 18-01-2018 02:45:00 4.1 C 5.63 g/m*3 1.31 C 11.3 km/h
2339 18-01-2018 02:50:00 4.1 C 5.63 g/m*3 1.31 C 11.3 km/h
2340 18-01-2018 02:55:00 4.1 C 5.63 g/m*3 2.55 C 6.4 km/h
2341 18-01-2018 03:00:00 4.1 C 5.63 g/m*3 4.1 C 4.8 km/h
2342 18-01-2018 03:05:00 4.1 C 5.63 g/m*3 2.05 C 8.1 km/h
2343 18-01-2018 03:10:00 4.1 C 5.63 g/m*3 2.55 C 6.4 km/h
2344 18-01-2018 03:15:00 4.1 C 5.63 g/m*3 2.05 C 8.1 km/h
2345 18-01-2018 03:20:00 4.1 C 5.63 g/m*3 2.05 C 8.1 km/h
2346 18-01-2018 03:25:00 4.2 C 5.67 g/m*3 1.43 C 11.3 km/h
2347 18-01-2018 03:30:00 4.2 C 5.73 g/m*3 0.84 C 14.5 km/h
2348 18-01-2018 03:35:00 4.2 C 5.73 g/m*3 2.17 C 8.1 km/h
2349 18-01-2018 03:40:00 4.3 C 5.77 g/m*3 2.29 C 8.1 km/h
2350 18-01-2018 03:45:00 4.3 C 5.77 g/m*3 1.24 C 12.9 km/h
Sensor: Nr:Datum:Temp:Abs-Feuchte:Windchill:Wind:
Aussen-T/F 2351 18-01-2018 03:50:00 4.3 C 5.77 g/m*3 2.29 C 8.1 km/h
2352 18-01-2018 03:55:00 4.4 C 5.81 g/m*3 2.01 C 9.7 km/h
2353 18-01-2018 04:00:00 4.5 C 5.78 g/m*3 0.52 C 19.3 km/h
2354 18-01-2018 04:05:00 4.6 C 5.82 g/m*3 1.91 C 11.3 km/h
2355 18-01-2018 04:10:00 4.7 C 5.86 g/m*3 1.21 C 16.1 km/h
2356 18-01-2018 04:15:00 4.8 C 5.83 g/m*3 1.58 C 14.5 km/h
2357 18-01-2018 04:20:00 4.9 C 5.87 g/m*3 2.27 C 11.3 km/h
2358 18-01-2018 04:25:00 5 C 5.91 g/m*3 2.39 C 11.3 km/h
2359 18-01-2018 04:30:00 5 C 5.91 g/m*3 1.83 C 14.5 km/h
2360 18-01-2018 04:35:00 5.1 C 5.95 g/m*3 2.51 C 11.3 km/h
2361 18-01-2018 04:40:00 5.1 C 5.95 g/m*3 3.23 C 8.1 km/h
2362 18-01-2018 04:45:00 5.1 C 5.95 g/m*3 2.51 C 11.3 km/h
2363 18-01-2018 04:50:00 5.1 C 6.02 g/m*3 2.84 C 9.7 km/h
2364 18-01-2018 04:55:00 5.1 C 6.02 g/m*3 2.51 C 11.3 km/h
2365 18-01-2018 05:00:00 5.1 C 6.02 g/m*3 3.23 C 8.1 km/h
2366 18-01-2018 05:05:00 5 C 5.98 g/m*3 5 C 3.2 km/h
2367 18-01-2018 05:10:00 4.9 C 6.01 g/m*3 3.48 C 6.4 km/h
2368 18-01-2018 05:15:00 4.8 C 5.97 g/m*3 4.8 C 3.2 km/h
2369 18-01-2018 05:20:00 4.7 C 6 g/m*3 4.7 C 3.2 km/h
2370 18-01-2018 05:25:00 4.7 C 6 g/m*3 4.7 C 3.2 km/h
2371 18-01-2018 05:30:00 4.6 C 5.96 g/m*3 2.64 C 8.1 km/h
2372 18-01-2018 05:35:00 4.6 C 5.96 g/m*3 3.13 C 6.4 km/h
2373 18-01-2018 05:40:00 4.5 C 5.98 g/m*3 4.5 C 4.8 km/h
2374 18-01-2018 05:45:00 4.4 C 5.94 g/m*3 4.4 C 4.8 km/h
2375 18-01-2018 05:50:00 4.4 C 5.94 g/m*3 4.4 C 4.8 km/h
Sensor: Nr:Datum:Temp:Abs-Feuchte:Windchill:Wind:
Aussen-T/F 2376 18-01-2018 05:55:00 4.3 C 5.9 g/m*3 2.29 C 8.1 km/h
2377 18-01-2018 06:00:00 4.3 C 5.97 g/m*3 1.24 C 12.9 km/h
2378 18-01-2018 06:05:00 4.3 C 5.97 g/m*3 1.24 C 12.9 km/h
2379 18-01-2018 06:10:00 4.3 C 5.97 g/m*3 0.49 C 17.7 km/h
2380 18-01-2018 06:15:00 4.3 C 5.97 g/m*3 0.07 C 20.9 km/h
2381 18-01-2018 06:20:00 4.2 C 5.93 g/m*3 -0.24 C 22.5 km/h
2382 18-01-2018 06:25:00 4.2 C 5.93 g/m*3 0.15 C 19.3 km/h
2383 18-01-2018 06:30:00 4.2 C 5.93 g/m*3 0.15 C 19.3 km/h
2384 18-01-2018 06:35:00 4.2 C 5.93 g/m*3 0.15 C 19.3 km/h
2385 18-01-2018 06:40:00 4.3 C 5.97 g/m*3 -0.11 C 22.5 km/h
2386 18-01-2018 06:45:00 4.3 C 5.97 g/m*3 -0.11 C 22.5 km/h
2387 18-01-2018 06:50:00 4.4 C 6.01 g/m*3 0.4 C 19.3 km/h
2388 18-01-2018 06:55:00 4.5 C 6.05 g/m*3 -0.2 C 25.7 km/h
2389 18-01-2018 07:00:00 4.5 C 5.98 g/m*3 0.52 C 19.3 km/h
2390 18-01-2018 07:05:00 4.6 C 6.02 g/m*3 -0.23 C 27.4 km/h
2391 18-01-2018 07:10:00 4.6 C 6.02 g/m*3 0.1 C 24.1 km/h
2392 18-01-2018 07:15:00 4.6 C 6.02 g/m*3 -0.79 C 33.8 km/h
2393 18-01-2018 07:20:00 4.7 C 6.06 g/m*3 -0.66 C 33.8 km/h
2394 18-01-2018 07:25:00 4.7 C 6.06 g/m*3 -0.25 C 29 km/h
2395 18-01-2018 07:30:00 4.7 C 6.06 g/m*3 -0.39 C 30.6 km/h
2396 18-01-2018 07:35:00 4.7 C 6.06 g/m*3 0.4 C 22.5 km/h
2397 18-01-2018 07:40:00 4.8 C 6.1 g/m*3 0.71 C 20.9 km/h
2398 18-01-2018 07:45:00 4.8 C 6.1 g/m*3 -0.12 C 29 km/h
2399 18-01-2018 07:50:00 4.9 C 6.08 g/m*3 0.83 C 20.9 km/h
2400 18-01-2018 07:55:00 4.9 C 6.08 g/m*3 0.65 C 22.5 km/h
Sensor: Nr:Datum:Temp:Abs-Feuchte:Windchill:Wind:
Aussen-T/F 2401 18-01-2018 08:00:00 5 C 6.12 g/m*3 1.58 C 16.1 km/h
2402 18-01-2018 08:05:00 5 C 6.18 g/m*3 2.09 C 12.9 km/h
2403 18-01-2018 08:10:00 5.1 C 6.22 g/m*3 1.71 C 16.1 km/h
2404 18-01-2018 08:15:00 5.1 C 6.22 g/m*3 1.71 C 16.1 km/h
2405 18-01-2018 08:20:00 5.2 C 6.27 g/m*3 1.4 C 19.3 km/h
2406 18-01-2018 08:25:00 5.2 C 6.27 g/m*3 1.83 C 16.1 km/h
2407 18-01-2018 08:30:00 5.3 C 6.31 g/m*3 1.96 C 16.1 km/h
2408 18-01-2018 08:35:00 5.5 C 6.39 g/m*3 1.59 C 20.9 km/h
2409 18-01-2018 08:40:00 5.6 C 6.43 g/m*3 2.57 C 14.5 km/h
2410 18-01-2018 08:45:00 5.7 C 6.48 g/m*3 3.56 C 9.7 km/h
2411 18-01-2018 08:50:00 5.8 C 6.52 g/m*3 3.07 C 12.9 km/h
2412 18-01-2018 08:55:00 5.9 C 6.56 g/m*3 3.48 C 11.3 km/h
2413 18-01-2018 09:00:00 6.1 C 6.65 g/m*3 4.4 C 8.1 km/h
2414 18-01-2018 09:05:00 6.1 C 6.65 g/m*3 3.43 C 12.9 km/h
2415 18-01-2018 09:10:00 6.3 C 6.74 g/m*3 4.27 C 9.7 km/h
2416 18-01-2018 09:15:00 6.4 C 6.78 g/m*3 3.55 C 14.5 km/h
2417 18-01-2018 09:20:00 6.6 C 6.95 g/m*3 3.79 C 14.5 km/h
2418 18-01-2018 09:25:00 6.7 C 6.99 g/m*3 4.17 C 12.9 km/h
2419 18-01-2018 09:30:00 6.7 C 6.99 g/m*3 2.94 C 22.5 km/h
2420 18-01-2018 09:35:00 6.8 C 7.04 g/m*3 3.61 C 17.7 km/h
2421 18-01-2018 09:40:00 7.1 C 7.18 g/m*3 3.8 C 19.3 km/h
2422 18-01-2018 09:45:00 7.2 C 7.22 g/m*3 4.11 C 17.7 km/h
2423 18-01-2018 09:50:00 7.3 C 7.27 g/m*3 4.44 C 16.1 km/h
2424 18-01-2018 09:55:00 7.5 C 7.28 g/m*3 5.14 C 12.9 km/h
2425 18-01-2018 10:00:00 7.6 C 7.41 g/m*3 4.61 C 17.7 km/h
Sensor: Nr:Datum:Temp:Abs-Feuchte:Windchill:Wind:
Aussen-T/F 2426 18-01-2018 10:05:00 7.7 C 7.46 g/m*3 4.55 C 19.3 km/h
2427 18-01-2018 10:10:00 7.8 C 7.43 g/m*3 3.91 C 27.4 km/h
2428 18-01-2018 10:15:00 8 C 7.52 g/m*3 4.76 C 20.9 km/h
2429 18-01-2018 10:20:00 8.3 C 7.67 g/m*3 4.84 C 24.1 km/h
2430 18-01-2018 10:25:00 8.5 C 7.68 g/m*3 5.92 C 16.1 km/h
2431 18-01-2018 10:30:00 8.7 C 7.7 g/m*3 5.49 C 22.5 km/h
2432 18-01-2018 10:35:00 9 C 7.76 g/m*3 5.46 C 27.4 km/h
2433 18-01-2018 10:40:00 9.2 C 7.77 g/m*3 6.28 C 20.9 km/h
2434 18-01-2018 10:45:00 9.3 C 7.82 g/m*3 5.98 C 25.7 km/h
2435 18-01-2018 10:50:00 9.3 C 7.91 g/m*3 6.41 C 20.9 km/h
2436 18-01-2018 10:55:00 9.2 C 7.86 g/m*3 6.13 C 22.5 km/h
2437 18-01-2018 11:00:00 9.2 C 7.86 g/m*3 6.44 C 19.3 km/h
2438 18-01-2018 11:05:00 9.3 C 7.82 g/m*3 6.73 C 17.7 km/h
2439 18-01-2018 11:10:00 9.3 C 7.73 g/m*3 6.41 C 20.9 km/h
2440 18-01-2018 11:15:00 9.4 C 7.69 g/m*3 5.98 C 27.4 km/h
2441 18-01-2018 11:20:00 9.6 C 7.69 g/m*3 6.5 C 24.1 km/h
2442 18-01-2018 11:25:00 9.7 C 7.56 g/m*3 6.25 C 29 km/h
2443 18-01-2018 11:30:00 9.9 C 7.56 g/m*3 6.89 C 24.1 km/h
2444 18-01-2018 11:35:00 10 C 7.52 g/m*3 6.23 C 35.4 km/h
2445 18-01-2018 11:40:00 10.2 C 7.52 g/m*3 6.5 C 35.4 km/h
2446 18-01-2018 11:45:00 10.3 C 7.37 g/m*3 7.03 C 29 km/h
2447 18-01-2018 11:50:00 10.4 C 7.42 g/m*3 7.4 C 25.7 km/h
2448 18-01-2018 11:55:00 10.6 C 7.32 g/m*3 7.12 C 33.8 km/h
2449 18-01-2018 12:00:00 10.8 C 7.22 g/m*3 7.2 C 37 km/h
2450 18-01-2018 12:05:00 10.9 C 6.86 g/m*3 7.81 C 29 km/h
Sensor: Nr:Datum:Temp:Abs-Feuchte:Windchill:Wind:
Aussen-T/F 2451 18-01-2018 12:10:00 11 C 6.71 g/m*3 7.3 C 40.2 km/h
2452 18-01-2018 12:15:00 11.1 C 6.65 g/m*3 11.1 C 27.4 km/h
2453 18-01-2018 12:20:00 11.1 C 6.65 g/m*3 11.1 C 35.4 km/h
2454 18-01-2018 12:25:00 11.1 C 6.65 g/m*3 11.1 C 27.4 km/h
2455 18-01-2018 12:30:00 11.1 C 6.55 g/m*3 11.1 C 30.6 km/h
2456 18-01-2018 12:35:00 11.1 C 6.35 g/m*3 11.1 C 33.8 km/h
2457 18-01-2018 12:40:00 11 C 6.31 g/m*3 7.65 C 33.8 km/h
2458 18-01-2018 12:45:00 10.9 C 6.07 g/m*3 7.42 C 35.4 km/h
2459 18-01-2018 12:50:00 10.8 C 5.83 g/m*3 7.03 C 40.2 km/h
2460 18-01-2018 12:55:00 10.7 C 5.7 g/m*3 6.9 C 40.2 km/h
2461 18-01-2018 13:00:00 10.5 C 5.63 g/m*3 6.8 C 37 km/h
2462 18-01-2018 13:05:00 10.4 C 5.59 g/m*3 6.42 C 41.8 km/h
2463 18-01-2018 13:10:00 10.4 C 5.59 g/m*3 6.76 C 35.4 km/h
2464 18-01-2018 13:15:00 10.4 C 5.59 g/m*3 7.28 C 27.4 km/h
2465 18-01-2018 13:20:00 10.3 C 5.65 g/m*3 7.53 C 22.5 km/h
2466 18-01-2018 13:25:00 10.1 C 6.24 g/m*3 6.36 C 35.4 km/h
2467 18-01-2018 13:30:00 9.2 C 6.34 g/m*3 5.27 C 33.8 km/h
2468 18-01-2018 13:35:00 8.4 C 6.11 g/m*3 4.22 C 33.8 km/h
2469 18-01-2018 13:40:00 8.1 C 6.07 g/m*3 4.44 C 25.7 km/h
2470 18-01-2018 13:45:00 7.9 C 6 g/m*3 4.32 C 24.1 km/h
2471 18-01-2018 13:50:00 7.9 C 6 g/m*3 3.79 C 30.6 km/h
2472 18-01-2018 13:55:00 7.9 C 5.83 g/m*3 4.32 C 24.1 km/h
2473 18-01-2018 14:00:00 8.1 C 5.82 g/m*3 4.3 C 27.4 km/h
2474 18-01-2018 14:05:00 8.1 C 5.74 g/m*3 4.58 C 24.1 km/h
2475 18-01-2018 14:10:00 8.1 C 5.74 g/m*3 3.72 C 35.4 km/h
Sensor: Nr:Datum:Temp:Abs-Feuchte:Windchill:Wind:
Aussen-T/F 2476 18-01-2018 14:15:00 8.1 C 5.74 g/m*3 5.23 C 17.7 km/h
2477 18-01-2018 14:20:00 8 C 5.79 g/m*3 4.93 C 19.3 km/h
2478 18-01-2018 14:25:00 7.9 C 5.67 g/m*3 4.8 C 19.3 km/h
2479 18-01-2018 14:30:00 7.9 C 5.67 g/m*3 4.98 C 17.7 km/h
2480 18-01-2018 14:35:00 7.9 C 5.59 g/m*3 4.63 C 20.9 km/h
2481 18-01-2018 14:40:00 7.9 C 5.59 g/m*3 4.63 C 20.9 km/h
2482 18-01-2018 14:45:00 7.9 C 5.59 g/m*3 5.18 C 16.1 km/h
2483 18-01-2018 14:50:00 7.9 C 5.59 g/m*3 4.47 C 22.5 km/h
2484 18-01-2018 14:55:00 7.9 C 5.59 g/m*3 5.18 C 16.1 km/h
2485 18-01-2018 15:00:00 7.9 C 5.67 g/m*3 5.89 C 11.3 km/h
2486 18-01-2018 15:05:00 7.9 C 5.59 g/m*3 5.18 C 16.1 km/h
2487 18-01-2018 15:10:00 7.9 C 5.67 g/m*3 5.63 C 12.9 km/h
2488 18-01-2018 15:15:00 7.9 C 5.59 g/m*3 4.32 C 24.1 km/h
2489 18-01-2018 15:20:00 8.1 C 5.57 g/m*3 5.05 C 19.3 km/h
2490 18-01-2018 15:25:00 8.3 C 5.39 g/m*3 4.31 C 30.6 km/h
2491 18-01-2018 15:30:00 8.6 C 5.41 g/m*3 5.52 C 20.9 km/h
2492 18-01-2018 15:35:00 8.7 C 5.36 g/m*3 5.49 C 22.5 km/h
2493 18-01-2018 15:40:00 8.6 C 5.33 g/m*3 5.37 C 22.5 km/h
2494 18-01-2018 15:45:00 8.4 C 5.26 g/m*3 5.43 C 19.3 km/h
2495 18-01-2018 15:50:00 8.4 C 5.26 g/m*3 5.61 C 17.7 km/h
2496 18-01-2018 15:55:00 8.3 C 5.31 g/m*3 5.31 C 19.3 km/h
2497 18-01-2018 16:00:00 8.2 C 5.19 g/m*3 4.71 C 24.1 km/h
2498 18-01-2018 16:05:00 8.2 C 5.19 g/m*3 4.86 C 22.5 km/h
2499 18-01-2018 16:10:00 8.1 C 5.24 g/m*3 4.44 C 25.7 km/h
2500 18-01-2018 16:15:00 8 C 5.21 g/m*3 5.11 C 17.7 km/h
Sensor: Nr:Datum:Temp:Abs-Feuchte:Windchill:Wind:
Aussen-T/F 2501 18-01-2018 16:20:00 7.9 C 5.17 g/m*3 4.18 C 25.7 km/h
2502 18-01-2018 16:25:00 7.9 C 5.34 g/m*3 4.98 C 17.7 km/h
2503 18-01-2018 16:30:00 7.8 C 5.22 g/m*3 4.68 C 19.3 km/h
2504 18-01-2018 16:35:00 7.8 C 5.3 g/m*3 5.51 C 12.9 km/h
2505 18-01-2018 16:40:00 7.7 C 5.35 g/m*3 4.73 C 17.7 km/h
2506 18-01-2018 16:45:00 7.6 C 5.32 g/m*3 4.81 C 16.1 km/h
2507 18-01-2018 16:50:00 7.5 C 5.28 g/m*3 4.9 C 14.5 km/h
2508 18-01-2018 16:55:00 7.4 C 5.25 g/m*3 4.36 C 17.7 km/h
2509 18-01-2018 17:00:00 7.4 C 5.25 g/m*3 4.56 C 16.1 km/h
2510 18-01-2018 17:05:00 7.3 C 5.21 g/m*3 5.16 C 11.3 km/h
2511 18-01-2018 17:10:00 7.2 C 5.18 g/m*3 5.04 C 11.3 km/h
2512 18-01-2018 17:15:00 7.1 C 5.23 g/m*3 4.41 C 14.5 km/h
2513 18-01-2018 17:20:00 7.1 C 5.23 g/m*3 5.58 C 8.1 km/h
2514 18-01-2018 17:25:00 6.9 C 5.16 g/m*3 4.68 C 11.3 km/h
2515 18-01-2018 17:30:00 6.8 C 5.2 g/m*3 5.22 C 8.1 km/h
2516 18-01-2018 17:35:00 6.7 C 5.17 g/m*3 4.44 C 11.3 km/h
2517 18-01-2018 17:40:00 6.6 C 5.21 g/m*3 4.32 C 11.3 km/h
2518 18-01-2018 17:45:00 6.6 C 5.21 g/m*3 4.63 C 9.7 km/h
2519 18-01-2018 17:50:00 6.5 C 5.17 g/m*3 4.87 C 8.1 km/h
2520 18-01-2018 17:55:00 6.4 C 5.22 g/m*3 4.08 C 11.3 km/h
2521 18-01-2018 18:00:00 6.4 C 5.22 g/m*3 4.75 C 8.1 km/h
2522 18-01-2018 18:05:00 6.3 C 5.26 g/m*3 5.1 C 6.4 km/h
2523 18-01-2018 18:10:00 6.1 C 5.19 g/m*3 4.4 C 8.1 km/h
2524 18-01-2018 18:15:00 6 C 5.23 g/m*3 3.31 C 12.9 km/h
2525 18-01-2018 18:20:00 6 C 5.23 g/m*3 6 C 4.8 km/h
Sensor: Nr:Datum:Temp:Abs-Feuchte:Windchill:Wind:
Aussen-T/F 2526 18-01-2018 18:25:00 5.9 C 5.19 g/m*3 5.9 C 4.8 km/h
2527 18-01-2018 18:30:00 5.8 C 5.3 g/m*3 3.07 C 12.9 km/h
2528 18-01-2018 18:35:00 5.8 C 5.23 g/m*3 4.52 C 6.4 km/h
2529 18-01-2018 18:40:00 5.9 C 5.34 g/m*3 5.9 C 4.8 km/h
2530 18-01-2018 18:45:00 5.9 C 5.34 g/m*3 5.9 C 4.8 km/h
2531 18-01-2018 18:50:00 5.8 C 5.23 g/m*3 5.8 C 3.2 km/h
2532 18-01-2018 18:55:00 5.7 C 5.34 g/m*3 5.7 C 4.8 km/h
2533 18-01-2018 19:00:00 5.5 C 5.34 g/m*3 5.5 C 4.8 km/h
2534 18-01-2018 19:05:00 5.3 C 5.34 g/m*3 5.3 C 1.6 km/h
2535 18-01-2018 19:10:00 5.1 C 5.34 g/m*3 5.1 C 4.8 km/h
2536 18-01-2018 19:15:00 4.9 C 5.33 g/m*3 4.9 C 4.8 km/h
2537 18-01-2018 19:20:00 4.7 C 5.33 g/m*3 4.7 C 4.8 km/h
2538 18-01-2018 19:25:00 4.4 C 5.29 g/m*3 4.4 C 4.8 km/h
2539 18-01-2018 19:30:00 4.3 C 5.25 g/m*3 2.78 C 6.4 km/h
2540 18-01-2018 19:35:00 4.3 C 5.32 g/m*3 4.3 C 4.8 km/h
2541 18-01-2018 19:40:00 4.2 C 5.35 g/m*3 4.2 C 4.8 km/h
2542 18-01-2018 19:45:00 4.2 C 5.35 g/m*3 4.2 C 4.8 km/h
2543 18-01-2018 19:50:00 4.1 C 5.31 g/m*3 4.1 C 3.2 km/h
2544 18-01-2018 19:55:00 3.9 C 5.24 g/m*3 3.9 C 1.6 km/h
2545 18-01-2018 20:00:00 3.7 C 5.23 g/m*3 3.7 C 3.2 km/h
2546 18-01-2018 20:05:00 3.5 C 5.23 g/m*3 3.5 C 3.2 km/h
2547 18-01-2018 20:10:00 3.3 C 5.16 g/m*3 3.3 C 3.2 km/h
2548 18-01-2018 20:15:00 3.3 C 5.22 g/m*3 3.3 C 3.2 km/h
2549 18-01-2018 20:20:00 3.3 C 5.28 g/m*3 3.3 C 4.8 km/h
2550 18-01-2018 20:25:00 3.5 C 5.35 g/m*3 1.86 C 6.4 km/h
Sensor: Nr:Datum:Temp:Abs-Feuchte:Windchill:Wind:
Aussen-T/F 2551 18-01-2018 20:30:00 3.7 C 5.36 g/m*3 3.7 C 3.2 km/h
2552 18-01-2018 20:35:00 3.8 C 5.4 g/m*3 2.21 C 6.4 km/h
2553 18-01-2018 20:40:00 4.1 C 5.44 g/m*3 4.1 C 4.8 km/h
2554 18-01-2018 20:45:00 4.2 C 5.48 g/m*3 2.67 C 6.4 km/h
2555 18-01-2018 20:50:00 4.3 C 5.51 g/m*3 4.3 C 3.2 km/h
2556 18-01-2018 20:55:00 4.3 C 5.45 g/m*3 4.3 C 0 km/h
2557 18-01-2018 21:00:00 4.3 C 5.45 g/m*3 4.3 C 1.6 km/h
2558 18-01-2018 21:05:00 4.2 C 5.48 g/m*3 4.2 C 4.8 km/h
2559 18-01-2018 21:10:00 4.1 C 5.5 g/m*3 4.1 C 4.8 km/h
2560 18-01-2018 21:15:00 4.1 C 5.5 g/m*3 4.1 C 0 km/h
2561 18-01-2018 21:20:00 4.1 C 5.57 g/m*3 4.1 C 0 km/h
2562 18-01-2018 21:25:00 4.1 C 5.57 g/m*3 4.1 C 0 km/h
2563 18-01-2018 21:30:00 4.2 C 5.67 g/m*3 4.2 C 0 km/h
2564 18-01-2018 21:35:00 4.2 C 5.67 g/m*3 4.2 C 1.6 km/h
2565 18-01-2018 21:40:00 4.2 C 5.67 g/m*3 4.2 C 0 km/h
2566 18-01-2018 21:45:00 4.2 C 5.67 g/m*3 4.2 C 3.2 km/h
2567 18-01-2018 21:50:00 4.2 C 5.61 g/m*3 4.2 C 0 km/h
2568 18-01-2018 21:55:00 4.2 C 5.61 g/m*3 4.2 C 1.6 km/h
2569 18-01-2018 22:00:00 4.2 C 5.67 g/m*3 4.2 C 0 km/h
2570 18-01-2018 22:05:00 4.1 C 5.57 g/m*3 4.1 C 0 km/h
2571 18-01-2018 22:10:00 4.1 C 5.57 g/m*3 4.1 C 0 km/h
2572 18-01-2018 22:15:00 4 C 5.53 g/m*3 4 C 0 km/h
2573 18-01-2018 22:20:00 3.9 C 5.49 g/m*3 3.9 C 0 km/h
2574 18-01-2018 22:25:00 3.9 C 5.56 g/m*3 3.9 C 0 km/h
2575 18-01-2018 22:30:00 3.9 C 5.56 g/m*3 3.9 C 0 km/h
Sensor: Nr:Datum:Temp:Abs-Feuchte:Windchill:Wind:
Aussen-T/F 2576 18-01-2018 22:35:00 3.9 C 5.56 g/m*3 3.9 C 1.6 km/h
2577 18-01-2018 22:40:00 3.9 C 5.62 g/m*3 3.9 C 1.6 km/h
2578 18-01-2018 22:45:00 3.9 C 5.68 g/m*3 3.9 C 0 km/h
2579 18-01-2018 22:50:00 4.1 C 5.82 g/m*3 2.55 C 6.4 km/h
2580 18-01-2018 22:55:00 4.3 C 5.97 g/m*3 1.55 C 11.3 km/h
2581 18-01-2018 23:00:00 4.4 C 6.01 g/m*3 4.4 C 1.6 km/h
2582 18-01-2018 23:05:00 4.4 C 6.01 g/m*3 4.4 C 3.2 km/h
2583 18-01-2018 23:10:00 4.4 C 6.01 g/m*3 4.4 C 4.8 km/h
2584 18-01-2018 23:15:00 4.4 C 6.07 g/m*3 4.4 C 4.8 km/h
2585 18-01-2018 23:20:00 4.4 C 6.07 g/m*3 4.4 C 3.2 km/h
2586 18-01-2018 23:25:00 4.4 C 6.07 g/m*3 4.4 C 3.2 km/h
2587 18-01-2018 23:30:00 4.4 C 6.07 g/m*3 2.9 C 6.4 km/h
2588 18-01-2018 23:35:00 4.3 C 6.03 g/m*3 4.3 C 1.6 km/h
2589 18-01-2018 23:40:00 4.3 C 6.03 g/m*3 4.3 C 3.2 km/h
2590 18-01-2018 23:45:00 4.3 C 6.03 g/m*3 4.3 C 0 km/h
2591 18-01-2018 23:50:00 4.3 C 6.03 g/m*3 4.3 C 0 km/h
2592 18-01-2018 23:55:00 4.3 C 6.03 g/m*3 4.3 C 0 km/h
2593 19-01-2018 00:00:00 4.3 C 6.03 g/m*3 4.3 C 1.6 km/h
2594 19-01-2018 00:05:00 4.2 C 5.99 g/m*3 4.2 C 1.6 km/h
2595 19-01-2018 00:10:00 4.2 C 6.06 g/m*3 4.2 C 1.6 km/h
2596 19-01-2018 00:15:00 4.2 C 6.06 g/m*3 4.2 C 3.2 km/h
2597 19-01-2018 00:20:00 4.2 C 6.06 g/m*3 4.2 C 4.8 km/h
2598 19-01-2018 00:25:00 4.2 C 6.06 g/m*3 4.2 C 1.6 km/h
2599 19-01-2018 00:30:00 4.2 C 6.06 g/m*3 4.2 C 3.2 km/h
2600 19-01-2018 00:35:00 4.3 C 6.1 g/m*3 2.29 C 8.1 km/h
Sensor: Nr:Datum:Temp:Abs-Feuchte:Windchill:Wind:
Aussen-T/F 2601 19-01-2018 00:40:00 4.3 C 6.1 g/m*3 2.29 C 8.1 km/h
2602 19-01-2018 00:45:00 4.3 C 6.1 g/m*3 1.55 C 11.3 km/h
2603 19-01-2018 00:50:00 4.4 C 6.14 g/m*3 1.09 C 14.5 km/h
2604 19-01-2018 00:55:00 4.4 C 6.07 g/m*3 1.09 C 14.5 km/h
2605 19-01-2018 01:00:00 4.5 C 6.11 g/m*3 1.79 C 11.3 km/h
2606 19-01-2018 01:05:00 4.4 C 6.07 g/m*3 1.36 C 12.9 km/h
2607 19-01-2018 01:10:00 4.4 C 6.07 g/m*3 1.36 C 12.9 km/h
2608 19-01-2018 01:15:00 4.4 C 6.07 g/m*3 1.67 C 11.3 km/h
2609 19-01-2018 01:20:00 4.4 C 6.07 g/m*3 0.84 C 16.1 km/h
2610 19-01-2018 01:25:00 4.3 C 5.97 g/m*3 0.72 C 16.1 km/h
2611 19-01-2018 01:30:00 4.2 C 5.93 g/m*3 1.77 C 9.7 km/h
2612 19-01-2018 01:35:00 4.2 C 5.93 g/m*3 2.67 C 6.4 km/h
2613 19-01-2018 01:40:00 4.1 C 5.89 g/m*3 2.05 C 8.1 km/h
2614 19-01-2018 01:45:00 4.1 C 5.89 g/m*3 1.31 C 11.3 km/h
2615 19-01-2018 01:50:00 4 C 5.85 g/m*3 4 C 4.8 km/h
2616 19-01-2018 01:55:00 3.9 C 5.81 g/m*3 3.9 C 3.2 km/h
2617 19-01-2018 02:00:00 3.9 C 5.81 g/m*3 3.9 C 4.8 km/h
2618 19-01-2018 02:05:00 3.9 C 5.81 g/m*3 3.9 C 1.6 km/h
2619 19-01-2018 02:10:00 3.9 C 5.81 g/m*3 3.9 C 3.2 km/h
2620 19-01-2018 02:15:00 3.9 C 5.81 g/m*3 3.9 C 3.2 km/h
2621 19-01-2018 02:20:00 3.8 C 5.77 g/m*3 3.8 C 0 km/h
2622 19-01-2018 02:25:00 3.8 C 5.77 g/m*3 3.8 C 0 km/h
2623 19-01-2018 02:30:00 3.7 C 5.73 g/m*3 3.7 C 0 km/h
2624 19-01-2018 02:35:00 3.7 C 5.8 g/m*3 3.7 C 0 km/h
2625 19-01-2018 02:40:00 3.6 C 5.76 g/m*3 3.6 C 0 km/h
Sensor: Nr:Datum:Temp:Abs-Feuchte:Windchill:Wind:
Aussen-T/F 2626 19-01-2018 02:45:00 3.6 C 5.76 g/m*3 3.6 C 0 km/h
2627 19-01-2018 02:50:00 3.6 C 5.76 g/m*3 3.6 C 0 km/h
2628 19-01-2018 02:55:00 3.6 C 5.76 g/m*3 3.6 C 3.2 km/h
2629 19-01-2018 03:00:00 3.6 C 5.82 g/m*3 3.6 C 3.2 km/h
2630 19-01-2018 03:05:00 3.6 C 5.82 g/m*3 3.6 C 1.6 km/h
2631 19-01-2018 03:10:00 3.6 C 5.82 g/m*3 3.6 C 3.2 km/h
2632 19-01-2018 03:15:00 3.6 C 5.82 g/m*3 3.6 C 1.6 km/h
2633 19-01-2018 03:20:00 3.6 C 5.82 g/m*3 3.6 C 3.2 km/h
2634 19-01-2018 03:25:00 3.6 C 5.82 g/m*3 3.6 C 4.8 km/h
2635 19-01-2018 03:30:00 3.6 C 5.82 g/m*3 3.6 C 3.2 km/h
2636 19-01-2018 03:35:00 3.6 C 5.76 g/m*3 3.6 C 4.8 km/h
2637 19-01-2018 03:40:00 3.5 C 5.72 g/m*3 1.34 C 8.1 km/h
2638 19-01-2018 03:45:00 3.5 C 5.72 g/m*3 3.5 C 1.6 km/h
2639 19-01-2018 03:50:00 3.4 C 5.68 g/m*3 3.4 C 1.6 km/h
2640 19-01-2018 03:55:00 3.4 C 5.68 g/m*3 3.4 C 3.2 km/h
2641 19-01-2018 04:00:00 3.3 C 5.64 g/m*3 3.3 C 3.2 km/h
2642 19-01-2018 04:05:00 3.2 C 5.6 g/m*3 3.2 C 1.6 km/h
2643 19-01-2018 04:10:00 3.2 C 5.6 g/m*3 3.2 C 4.8 km/h
2644 19-01-2018 04:15:00 3.3 C 5.64 g/m*3 3.3 C 3.2 km/h
2645 19-01-2018 04:20:00 3.3 C 5.64 g/m*3 3.3 C 3.2 km/h
2646 19-01-2018 04:25:00 3.4 C 5.68 g/m*3 3.4 C 4.8 km/h
2647 19-01-2018 04:30:00 3.4 C 5.68 g/m*3 0.46 C 11.3 km/h
2648 19-01-2018 04:35:00 3.5 C 5.72 g/m*3 3.5 C 4.8 km/h
2649 19-01-2018 04:40:00 3.5 C 5.66 g/m*3 1.86 C 6.4 km/h
2650 19-01-2018 04:45:00 3.5 C 5.66 g/m*3 1.34 C 8.1 km/h
Sensor: Nr:Datum:Temp:Abs-Feuchte:Windchill:Wind:
Aussen-T/F 2651 19-01-2018 04:50:00 3.5 C 5.6 g/m*3 3.5 C 4.8 km/h
2652 19-01-2018 04:55:00 3.5 C 5.6 g/m*3 3.5 C 4.8 km/h
2653 19-01-2018 05:00:00 3.6 C 5.63 g/m*3 1.46 C 8.1 km/h
2654 19-01-2018 05:05:00 3.6 C 5.63 g/m*3 1.06 C 9.7 km/h
2655 19-01-2018 05:10:00 3.6 C 5.63 g/m*3 1.98 C 6.4 km/h
2656 19-01-2018 05:15:00 3.6 C 5.63 g/m*3 1.98 C 6.4 km/h
2657 19-01-2018 05:20:00 3.7 C 5.61 g/m*3 2.09 C 6.4 km/h
2658 19-01-2018 05:25:00 3.7 C 5.67 g/m*3 2.09 C 6.4 km/h
2659 19-01-2018 05:30:00 3.8 C 5.65 g/m*3 0.63 C 12.9 km/h
2660 19-01-2018 05:35:00 3.8 C 5.65 g/m*3 1.7 C 8.1 km/h
2661 19-01-2018 05:40:00 3.9 C 5.68 g/m*3 -0.23 C 19.3 km/h
2662 19-01-2018 05:45:00 3.9 C 5.62 g/m*3 0.75 C 12.9 km/h
2663 19-01-2018 05:50:00 3.9 C 5.62 g/m*3 1.41 C 9.7 km/h
2664 19-01-2018 05:55:00 3.9 C 5.68 g/m*3 3.9 C 3.2 km/h
2665 19-01-2018 06:00:00 3.8 C 5.65 g/m*3 1.29 C 9.7 km/h
2666 19-01-2018 06:05:00 3.8 C 5.65 g/m*3 3.8 C 3.2 km/h
2667 19-01-2018 06:10:00 3.8 C 5.65 g/m*3 1.29 C 9.7 km/h
2668 19-01-2018 06:15:00 3.8 C 5.58 g/m*3 0.94 C 11.3 km/h
2669 19-01-2018 06:20:00 3.7 C 5.55 g/m*3 2.09 C 6.4 km/h
2670 19-01-2018 06:25:00 3.7 C 5.55 g/m*3 1.18 C 9.7 km/h
2671 19-01-2018 06:30:00 3.7 C 5.55 g/m*3 1.58 C 8.1 km/h
2672 19-01-2018 06:35:00 3.7 C 5.55 g/m*3 1.58 C 8.1 km/h
2673 19-01-2018 06:40:00 3.7 C 5.55 g/m*3 2.09 C 6.4 km/h
2674 19-01-2018 06:45:00 3.7 C 5.48 g/m*3 1.18 C 9.7 km/h
2675 19-01-2018 06:50:00 3.6 C 5.45 g/m*3 1.06 C 9.7 km/h
Sensor: Nr:Datum:Temp:Abs-Feuchte:Windchill:Wind:
Aussen-T/F 2676 19-01-2018 06:55:00 3.5 C 5.41 g/m*3 0.58 C 11.3 km/h
2677 19-01-2018 07:00:00 3.4 C 5.37 g/m*3 0.14 C 12.9 km/h
2678 19-01-2018 07:05:00 3.4 C 5.37 g/m*3 0.46 C 11.3 km/h
2679 19-01-2018 07:10:00 3.4 C 5.37 g/m*3 0.46 C 11.3 km/h
2680 19-01-2018 07:15:00 3.6 C 5.45 g/m*3 1.46 C 8.1 km/h
2681 19-01-2018 07:20:00 3.7 C 5.48 g/m*3 -0.03 C 16.1 km/h
2682 19-01-2018 07:25:00 3.7 C 5.48 g/m*3 1.18 C 9.7 km/h
2683 19-01-2018 07:30:00 3.8 C 5.46 g/m*3 0.63 C 12.9 km/h
2684 19-01-2018 07:35:00 3.8 C 5.46 g/m*3 0.1 C 16.1 km/h
2685 19-01-2018 07:40:00 3.8 C 5.46 g/m*3 1.29 C 9.7 km/h
2686 19-01-2018 07:45:00 3.8 C 5.46 g/m*3 1.7 C 8.1 km/h
2687 19-01-2018 07:50:00 3.8 C 5.52 g/m*3 1.29 C 9.7 km/h
2688 19-01-2018 07:55:00 3.8 C 5.52 g/m*3 0.63 C 12.9 km/h
2689 19-01-2018 08:00:00 3.8 C 5.52 g/m*3 2.21 C 6.4 km/h
2690 19-01-2018 08:05:00 3.8 C 5.52 g/m*3 1.29 C 9.7 km/h
2691 19-01-2018 08:10:00 3.8 C 5.52 g/m*3 0.35 C 14.5 km/h
2692 19-01-2018 08:15:00 3.8 C 5.58 g/m*3 1.29 C 9.7 km/h
2693 19-01-2018 08:20:00 3.8 C 5.58 g/m*3 1.29 C 9.7 km/h
2694 19-01-2018 08:25:00 3.7 C 5.55 g/m*3 1.18 C 9.7 km/h
2695 19-01-2018 08:30:00 3.7 C 5.61 g/m*3 2.09 C 6.4 km/h
2696 19-01-2018 08:35:00 3.6 C 5.57 g/m*3 1.06 C 9.7 km/h
2697 19-01-2018 08:40:00 3.6 C 5.57 g/m*3 0.39 C 12.9 km/h
2698 19-01-2018 08:45:00 3.6 C 5.57 g/m*3 1.98 C 6.4 km/h
2699 19-01-2018 08:50:00 3.6 C 5.57 g/m*3 1.98 C 6.4 km/h
2700 19-01-2018 08:55:00 3.6 C 5.57 g/m*3 1.06 C 9.7 km/h
Sensor: Nr:Datum:Temp:Abs-Feuchte:Windchill:Wind:
Aussen-T/F 2701 19-01-2018 09:00:00 3.7 C 5.61 g/m*3 1.18 C 9.7 km/h
2702 19-01-2018 09:05:00 3.7 C 5.61 g/m*3 0.51 C 12.9 km/h
2703 19-01-2018 09:10:00 3.7 C 5.61 g/m*3 3.7 C 4.8 km/h
2704 19-01-2018 09:15:00 3.7 C 5.55 g/m*3 1.58 C 8.1 km/h
2705 19-01-2018 09:20:00 3.8 C 5.58 g/m*3 -0.36 C 19.3 km/h
2706 19-01-2018 09:25:00 3.8 C 5.58 g/m*3 0.1 C 16.1 km/h
2707 19-01-2018 09:30:00 3.8 C 5.65 g/m*3 3.8 C 4.8 km/h
2708 19-01-2018 09:35:00 3.9 C 5.68 g/m*3 3.9 C 4.8 km/h
2709 19-01-2018 09:40:00 3.9 C 5.68 g/m*3 1.06 C 11.3 km/h
2710 19-01-2018 09:45:00 3.9 C 5.68 g/m*3 2.32 C 6.4 km/h
2711 19-01-2018 09:50:00 4 C 5.66 g/m*3 2.44 C 6.4 km/h
2712 19-01-2018 09:55:00 4 C 5.66 g/m*3 1.18 C 11.3 km/h
2713 19-01-2018 10:00:00 4.1 C 5.63 g/m*3 2.05 C 8.1 km/h
2714 19-01-2018 10:05:00 4.1 C 5.57 g/m*3 0.02 C 19.3 km/h
2715 19-01-2018 10:10:00 4.1 C 5.5 g/m*3 1.31 C 11.3 km/h
2716 19-01-2018 10:15:00 4.1 C 5.5 g/m*3 2.05 C 8.1 km/h
2717 19-01-2018 10:20:00 4 C 5.4 g/m*3 1.18 C 11.3 km/h
2718 19-01-2018 10:25:00 3.9 C 5.37 g/m*3 1.41 C 9.7 km/h
2719 19-01-2018 10:30:00 3.9 C 5.37 g/m*3 0.75 C 12.9 km/h
2720 19-01-2018 10:35:00 3.9 C 5.37 g/m*3 1.06 C 11.3 km/h
2721 19-01-2018 10:40:00 3.9 C 5.37 g/m*3 1.06 C 11.3 km/h
2722 19-01-2018 10:45:00 4 C 5.34 g/m*3 0.88 C 12.9 km/h
2723 19-01-2018 10:50:00 4 C 5.34 g/m*3 1.18 C 11.3 km/h
2724 19-01-2018 10:55:00 4 C 5.4 g/m*3 1.93 C 8.1 km/h
2725 19-01-2018 11:00:00 4.1 C 5.38 g/m*3 2.55 C 6.4 km/h
Sensor: Nr:Datum:Temp:Abs-Feuchte:Windchill:Wind:
Aussen-T/F 2726 19-01-2018 11:05:00 4.1 C 5.38 g/m*3 1.65 C 9.7 km/h
2727 19-01-2018 11:10:00 4.2 C 5.41 g/m*3 1.43 C 11.3 km/h
2728 19-01-2018 11:15:00 4.3 C 5.45 g/m*3 1.89 C 9.7 km/h
2729 19-01-2018 11:20:00 4.4 C 5.48 g/m*3 2.01 C 9.7 km/h
2730 19-01-2018 11:25:00 4.6 C 5.56 g/m*3 1.09 C 16.1 km/h
2731 19-01-2018 11:30:00 4.6 C 5.49 g/m*3 1.34 C 14.5 km/h
2732 19-01-2018 11:35:00 4.6 C 5.49 g/m*3 1.91 C 11.3 km/h
2733 19-01-2018 11:40:00 4.6 C 5.43 g/m*3 1.91 C 11.3 km/h
2734 19-01-2018 11:45:00 4.6 C 5.43 g/m*3 1.34 C 14.5 km/h
2735 19-01-2018 11:50:00 4.6 C 5.43 g/m*3 0.86 C 17.7 km/h
2736 19-01-2018 11:55:00 4.7 C 5.46 g/m*3 1.21 C 16.1 km/h
2737 19-01-2018 12:00:00 4.7 C 5.46 g/m*3 2.03 C 11.3 km/h
2738 19-01-2018 12:05:00 4.7 C 5.4 g/m*3 1.21 C 16.1 km/h
2739 19-01-2018 12:10:00 4.7 C 5.4 g/m*3 1.73 C 12.9 km/h
2740 19-01-2018 12:15:00 4.7 C 5.4 g/m*3 2.03 C 11.3 km/h
2741 19-01-2018 12:20:00 4.7 C 5.4 g/m*3 1.21 C 16.1 km/h
2742 19-01-2018 12:25:00 4.6 C 5.36 g/m*3 1.91 C 11.3 km/h
2743 19-01-2018 12:30:00 4.6 C 5.36 g/m*3 1.09 C 16.1 km/h
2744 19-01-2018 12:35:00 4.6 C 5.29 g/m*3 1.61 C 12.9 km/h
2745 19-01-2018 12:40:00 4.7 C 5.33 g/m*3 2.03 C 11.3 km/h
2746 19-01-2018 12:45:00 4.7 C 5.33 g/m*3 1.73 C 12.9 km/h
2747 19-01-2018 12:50:00 4.7 C 5.33 g/m*3 1.21 C 16.1 km/h
2748 19-01-2018 12:55:00 4.7 C 5.33 g/m*3 1.21 C 16.1 km/h
2749 19-01-2018 13:00:00 4.8 C 5.43 g/m*3 2.49 C 9.7 km/h
2750 19-01-2018 13:05:00 4.8 C 5.5 g/m*3 2.87 C 8.1 km/h
Sensor: Nr:Datum:Temp:Abs-Feuchte:Windchill:Wind:
Aussen-T/F 2751 19-01-2018 13:10:00 4.9 C 5.54 g/m*3 2.99 C 8.1 km/h
2752 19-01-2018 13:15:00 5.1 C 5.61 g/m*3 2.84 C 9.7 km/h
2753 19-01-2018 13:20:00 5.3 C 5.61 g/m*3 3.46 C 8.1 km/h
2754 19-01-2018 13:25:00 5.4 C 5.58 g/m*3 2.58 C 12.9 km/h
2755 19-01-2018 13:30:00 5.4 C 5.58 g/m*3 5.4 C 4.8 km/h
2756 19-01-2018 13:35:00 5.6 C 5.66 g/m*3 4.29 C 6.4 km/h
2757 19-01-2018 13:40:00 5.6 C 5.59 g/m*3 3.81 C 8.1 km/h
2758 19-01-2018 13:45:00 5.6 C 5.51 g/m*3 2.83 C 12.9 km/h
2759 19-01-2018 13:50:00 5.6 C 5.44 g/m*3 3.11 C 11.3 km/h
2760 19-01-2018 13:55:00 5.6 C 5.51 g/m*3 3.81 C 8.1 km/h
2761 19-01-2018 14:00:00 5.6 C 5.51 g/m*3 3.81 C 8.1 km/h
2762 19-01-2018 14:05:00 5.6 C 5.51 g/m*3 4.29 C 6.4 km/h
2763 19-01-2018 14:10:00 5.6 C 5.51 g/m*3 3.81 C 8.1 km/h
2764 19-01-2018 14:15:00 5.6 C 5.59 g/m*3 3.81 C 8.1 km/h
2765 19-01-2018 14:20:00 5.6 C 5.59 g/m*3 5.6 C 1.6 km/h
2766 19-01-2018 14:25:00 5.6 C 5.59 g/m*3 5.6 C 4.8 km/h
2767 19-01-2018 14:30:00 5.6 C 5.59 g/m*3 5.6 C 3.2 km/h
2768 19-01-2018 14:35:00 5.6 C 5.51 g/m*3 5.6 C 4.8 km/h
2769 19-01-2018 14:40:00 5.6 C 5.59 g/m*3 5.6 C 3.2 km/h
2770 19-01-2018 14:45:00 5.6 C 5.51 g/m*3 5.6 C 3.2 km/h
2771 19-01-2018 14:50:00 5.7 C 5.55 g/m*3 5.7 C 1.6 km/h
2772 19-01-2018 14:55:00 5.8 C 5.73 g/m*3 4.52 C 6.4 km/h
2773 19-01-2018 15:00:00 5.9 C 5.48 g/m*3 4.17 C 8.1 km/h
2774 19-01-2018 15:05:00 6.1 C 5.33 g/m*3 2.95 C 16.1 km/h
2775 19-01-2018 15:10:00 6.1 C 5.33 g/m*3 3.72 C 11.3 km/h
Sensor: Nr:Datum:Temp:Abs-Feuchte:Windchill:Wind:
Aussen-T/F 2776 19-01-2018 15:15:00 6.2 C 5.37 g/m*3 4.98 C 6.4 km/h
2777 19-01-2018 15:20:00 6.2 C 5.44 g/m*3 4.52 C 8.1 km/h
2778 19-01-2018 15:25:00 6.2 C 5.37 g/m*3 6.2 C 4.8 km/h
2779 19-01-2018 15:30:00 6.1 C 5.33 g/m*3 4.86 C 6.4 km/h
2780 19-01-2018 15:35:00 6.1 C 5.33 g/m*3 6.1 C 3.2 km/h
2781 19-01-2018 15:40:00 6 C 5.37 g/m*3 6 C 1.6 km/h
2782 19-01-2018 15:45:00 5.9 C 5.48 g/m*3 5.9 C 4.8 km/h
2783 19-01-2018 15:50:00 5.9 C 5.55 g/m*3 5.9 C 1.6 km/h
2784 19-01-2018 15:55:00 5.8 C 5.37 g/m*3 4.52 C 6.4 km/h
2785 19-01-2018 16:00:00 5.8 C 5.3 g/m*3 4.52 C 6.4 km/h
2786 19-01-2018 16:05:00 5.7 C 5.19 g/m*3 3.93 C 8.1 km/h
2787 19-01-2018 16:10:00 5.7 C 5.19 g/m*3 3.93 C 8.1 km/h
2788 19-01-2018 16:15:00 5.7 C 5.19 g/m*3 5.7 C 3.2 km/h
2789 19-01-2018 16:20:00 5.7 C 5.19 g/m*3 5.7 C 3.2 km/h
2790 19-01-2018 16:25:00 5.6 C 5.23 g/m*3 5.6 C 1.6 km/h
2791 19-01-2018 16:30:00 5.5 C 5.2 g/m*3 5.5 C 1.6 km/h
2792 19-01-2018 16:35:00 5.4 C 5.23 g/m*3 5.4 C 1.6 km/h
2793 19-01-2018 16:40:00 5.2 C 5.16 g/m*3 5.2 C 4.8 km/h
2794 19-01-2018 16:45:00 5 C 5.16 g/m*3 5 C 3.2 km/h
2795 19-01-2018 16:50:00 4.9 C 5.27 g/m*3 4.9 C 3.2 km/h
2796 19-01-2018 16:55:00 4.7 C 5.33 g/m*3 4.7 C 4.8 km/h
2797 19-01-2018 17:00:00 4.5 C 5.32 g/m*3 4.5 C 3.2 km/h
2798 19-01-2018 17:05:00 4.4 C 5.35 g/m*3 4.4 C 3.2 km/h
2799 19-01-2018 17:10:00 4.2 C 5.35 g/m*3 4.2 C 3.2 km/h
2800 19-01-2018 17:15:00 4.2 C 5.35 g/m*3 4.2 C 3.2 km/h
Sensor: Nr:Datum:Temp:Abs-Feuchte:Windchill:Wind:
Aussen-T/F 2801 19-01-2018 17:20:00 4.1 C 5.38 g/m*3 4.1 C 1.6 km/h
2802 19-01-2018 17:25:00 4.1 C 5.44 g/m*3 4.1 C 1.6 km/h
2803 19-01-2018 17:30:00 4.1 C 5.44 g/m*3 4.1 C 0 km/h
2804 19-01-2018 17:35:00 4.1 C 5.44 g/m*3 4.1 C 1.6 km/h
2805 19-01-2018 17:40:00 4.1 C 5.44 g/m*3 4.1 C 0 km/h
2806 19-01-2018 17:45:00 4.1 C 5.44 g/m*3 4.1 C 1.6 km/h
2807 19-01-2018 17:50:00 4.1 C 5.5 g/m*3 4.1 C 0 km/h
2808 19-01-2018 17:55:00 4.1 C 5.5 g/m*3 4.1 C 0 km/h
2809 19-01-2018 18:00:00 4.1 C 5.5 g/m*3 4.1 C 0 km/h
2810 19-01-2018 18:05:00 4.1 C 5.5 g/m*3 4.1 C 0 km/h
2811 19-01-2018 18:10:00 4 C 5.47 g/m*3 1.93 C 8.1 km/h
2812 19-01-2018 18:15:00 4 C 5.47 g/m*3 4 C 0 km/h
2813 19-01-2018 18:20:00 3.9 C 5.43 g/m*3 3.9 C 1.6 km/h
2814 19-01-2018 18:25:00 3.9 C 5.43 g/m*3 3.9 C 0 km/h
2815 19-01-2018 18:30:00 3.8 C 5.46 g/m*3 3.8 C 3.2 km/h
2816 19-01-2018 18:35:00 3.8 C 5.46 g/m*3 3.8 C 3.2 km/h
2817 19-01-2018 18:40:00 3.8 C 5.46 g/m*3 3.8 C 3.2 km/h
2818 19-01-2018 18:45:00 3.7 C 5.42 g/m*3 3.7 C 3.2 km/h
2819 19-01-2018 18:50:00 3.6 C 5.39 g/m*3 3.6 C 3.2 km/h
2820 19-01-2018 18:55:00 3.5 C 5.35 g/m*3 3.5 C 3.2 km/h
2821 19-01-2018 19:00:00 3.3 C 5.28 g/m*3 3.3 C 4.8 km/h
2822 19-01-2018 19:05:00 3.2 C 5.24 g/m*3 3.2 C 3.2 km/h
2823 19-01-2018 19:10:00 3.1 C 5.21 g/m*3 3.1 C 3.2 km/h
2824 19-01-2018 19:15:00 2.9 C 5.2 g/m*3 2.9 C 1.6 km/h
2825 19-01-2018 19:20:00 2.8 C 5.16 g/m*3 2.8 C 1.6 km/h
Sensor: Nr:Datum:Temp:Abs-Feuchte:Windchill:Wind:
Aussen-T/F 2826 19-01-2018 19:25:00 2.6 C 5.09 g/m*3 2.6 C 0 km/h
2827 19-01-2018 19:30:00 2.5 C 5.12 g/m*3 2.5 C 0 km/h
2828 19-01-2018 19:35:00 2.4 C 5.08 g/m*3 2.4 C 1.6 km/h
2829 19-01-2018 19:40:00 2.3 C 5.1 g/m*3 2.3 C 3.2 km/h
2830 19-01-2018 19:45:00 2.3 C 5.1 g/m*3 2.3 C 1.6 km/h
2831 19-01-2018 19:50:00 2.3 C 5.1 g/m*3 2.3 C 0 km/h
2832 19-01-2018 19:55:00 2.3 C 5.1 g/m*3 2.3 C 3.2 km/h
2833 19-01-2018 20:00:00 2.3 C 5.1 g/m*3 2.3 C 3.2 km/h
2834 19-01-2018 20:05:00 2.2 C 5.13 g/m*3 2.2 C 4.8 km/h
2835 19-01-2018 20:10:00 2.2 C 5.13 g/m*3 0.36 C 6.4 km/h
2836 19-01-2018 20:15:00 2.3 C 5.16 g/m*3 -0.87 C 11.3 km/h
2837 19-01-2018 20:20:00 2.4 C 5.2 g/m*3 2.4 C 1.6 km/h
2838 19-01-2018 20:25:00 2.4 C 5.14 g/m*3 2.4 C 3.2 km/h
2839 19-01-2018 20:30:00 2.3 C 5.1 g/m*3 2.3 C 0 km/h
2840 19-01-2018 20:35:00 2.3 C 5.1 g/m*3 2.3 C 3.2 km/h
2841 19-01-2018 20:40:00 2.2 C 5.07 g/m*3 2.2 C 3.2 km/h
2842 19-01-2018 20:45:00 2.1 C 5.04 g/m*3 2.1 C 3.2 km/h
2843 19-01-2018 20:50:00 2.1 C 5.09 g/m*3 2.1 C 1.6 km/h
2844 19-01-2018 20:55:00 2.1 C 5.09 g/m*3 2.1 C 3.2 km/h
2845 19-01-2018 21:00:00 2.1 C 5.09 g/m*3 0.24 C 6.4 km/h
2846 19-01-2018 21:05:00 2.2 C 5.13 g/m*3 2.2 C 4.8 km/h
2847 19-01-2018 21:10:00 2.4 C 5.2 g/m*3 -1.37 C 14.5 km/h
2848 19-01-2018 21:15:00 2.4 C 5.14 g/m*3 2.4 C 3.2 km/h
2849 19-01-2018 21:20:00 2.4 C 5.14 g/m*3 0.59 C 6.4 km/h
2850 19-01-2018 21:25:00 2.4 C 5.14 g/m*3 2.4 C 3.2 km/h
Sensor: Nr:Datum:Temp:Abs-Feuchte:Windchill:Wind:
Aussen-T/F 2851 19-01-2018 21:30:00 2.4 C 5.14 g/m*3 0.59 C 6.4 km/h
2852 19-01-2018 21:35:00 2.4 C 5.14 g/m*3 2.4 C 3.2 km/h
2853 19-01-2018 21:40:00 2.4 C 5.14 g/m*3 0.59 C 6.4 km/h
2854 19-01-2018 21:45:00 2.5 C 5.12 g/m*3 0.71 C 6.4 km/h
2855 19-01-2018 21:50:00 2.6 C 5.15 g/m*3 0.29 C 8.1 km/h
2856 19-01-2018 21:55:00 2.7 C 5.19 g/m*3 -0.02 C 9.7 km/h
2857 19-01-2018 22:00:00 2.8 C 5.16 g/m*3 0.52 C 8.1 km/h
2858 19-01-2018 22:05:00 2.9 C 5.2 g/m*3 -0.46 C 12.9 km/h
2859 19-01-2018 22:10:00 3.1 C 5.21 g/m*3 0.1 C 11.3 km/h
2860 19-01-2018 22:15:00 3.2 C 5.18 g/m*3 0.22 C 11.3 km/h
2861 19-01-2018 22:20:00 3.3 C 5.22 g/m*3 1.11 C 8.1 km/h
2862 19-01-2018 22:25:00 3.3 C 5.28 g/m*3 -0.52 C 16.1 km/h
2863 19-01-2018 22:30:00 3.4 C 5.25 g/m*3 0.46 C 11.3 km/h
2864 19-01-2018 22:35:00 3.4 C 5.25 g/m*3 0.82 C 9.7 km/h
2865 19-01-2018 22:40:00 3.4 C 5.25 g/m*3 0.14 C 12.9 km/h
2866 19-01-2018 22:45:00 3.4 C 5.25 g/m*3 1.75 C 6.4 km/h
2867 19-01-2018 22:50:00 3.4 C 5.25 g/m*3 1.23 C 8.1 km/h
2868 19-01-2018 22:55:00 3.3 C 5.22 g/m*3 0.34 C 11.3 km/h
2869 19-01-2018 23:00:00 3.3 C 5.22 g/m*3 0.34 C 11.3 km/h
2870 19-01-2018 23:05:00 3.2 C 5.18 g/m*3 0.99 C 8.1 km/h
2871 19-01-2018 23:10:00 3.2 C 5.18 g/m*3 0.99 C 8.1 km/h
2872 19-01-2018 23:15:00 3.1 C 5.21 g/m*3 0.46 C 9.7 km/h
2873 19-01-2018 23:20:00 3 C 5.17 g/m*3 -0.34 C 12.9 km/h
2874 19-01-2018 23:25:00 3 C 5.17 g/m*3 -0.02 C 11.3 km/h
2875 19-01-2018 23:30:00 3.1 C 5.21 g/m*3 -0.22 C 12.9 km/h
Sensor: Nr:Datum:Temp:Abs-Feuchte:Windchill:Wind:
Aussen-T/F 2876 19-01-2018 23:35:00 3.1 C 5.21 g/m*3 0.1 C 11.3 km/h
2877 19-01-2018 23:40:00 3.2 C 5.24 g/m*3 0.22 C 11.3 km/h
2878 19-01-2018 23:45:00 3.2 C 5.24 g/m*3 1.51 C 6.4 km/h
2879 19-01-2018 23:50:00 3.2 C 5.24 g/m*3 0.99 C 8.1 km/h
2880 19-01-2018 23:55:00 3.1 C 5.21 g/m*3 1.4 C 6.4 km/h
2881 20-01-2018 00:00:00 3.1 C 5.21 g/m*3 0.87 C 8.1 km/h
2882 20-01-2018 00:05:00 3.1 C 5.21 g/m*3 3.1 C 3.2 km/h
2883 20-01-2018 00:10:00 3 C 5.17 g/m*3 1.28 C 6.4 km/h
2884 20-01-2018 00:15:00 3 C 5.17 g/m*3 0.34 C 9.7 km/h
2885 20-01-2018 00:20:00 3 C 5.17 g/m*3 -0.02 C 11.3 km/h
2886 20-01-2018 00:25:00 3.1 C 5.21 g/m*3 0.87 C 8.1 km/h
2887 20-01-2018 00:30:00 3.1 C 5.21 g/m*3 0.1 C 11.3 km/h
2888 20-01-2018 00:35:00 3.1 C 5.21 g/m*3 -0.22 C 12.9 km/h
2889 20-01-2018 00:40:00 3.1 C 5.21 g/m*3 0.87 C 8.1 km/h
2890 20-01-2018 00:45:00 3.1 C 5.21 g/m*3 0.46 C 9.7 km/h
2891 20-01-2018 00:50:00 3.1 C 5.21 g/m*3 0.46 C 9.7 km/h
2892 20-01-2018 00:55:00 3.1 C 5.21 g/m*3 0.46 C 9.7 km/h
2893 20-01-2018 01:00:00 3.2 C 5.24 g/m*3 0.99 C 8.1 km/h
2894 20-01-2018 01:05:00 3.2 C 5.24 g/m*3 1.51 C 6.4 km/h
2895 20-01-2018 01:10:00 3.2 C 5.24 g/m*3 1.51 C 6.4 km/h
2896 20-01-2018 01:15:00 3.2 C 5.24 g/m*3 3.2 C 4.8 km/h
2897 20-01-2018 01:20:00 3.2 C 5.24 g/m*3 0.99 C 8.1 km/h
2898 20-01-2018 01:25:00 3.3 C 5.28 g/m*3 1.11 C 8.1 km/h
2899 20-01-2018 01:30:00 3.3 C 5.22 g/m*3 0.7 C 9.7 km/h
2900 20-01-2018 01:35:00 3.3 C 5.22 g/m*3 0.02 C 12.9 km/h
Sensor: Nr:Datum:Temp:Abs-Feuchte:Windchill:Wind:
Aussen-T/F 2901 20-01-2018 01:40:00 3.4 C 5.25 g/m*3 1.23 C 8.1 km/h
2902 20-01-2018 01:45:00 3.4 C 5.31 g/m*3 0.82 C 9.7 km/h
2903 20-01-2018 01:50:00 3.4 C 5.31 g/m*3 3.4 C 4.8 km/h
2904 20-01-2018 01:55:00 3.4 C 5.31 g/m*3 1.75 C 6.4 km/h
2905 20-01-2018 02:00:00 3.4 C 5.31 g/m*3 3.4 C 4.8 km/h
2906 20-01-2018 02:05:00 3.4 C 5.31 g/m*3 1.75 C 6.4 km/h
2907 20-01-2018 02:10:00 3.5 C 5.35 g/m*3 0.58 C 11.3 km/h
2908 20-01-2018 02:15:00 3.5 C 5.35 g/m*3 1.86 C 6.4 km/h
2909 20-01-2018 02:20:00 3.5 C 5.35 g/m*3 3.5 C 3.2 km/h
2910 20-01-2018 02:25:00 3.5 C 5.35 g/m*3 3.5 C 4.8 km/h
2911 20-01-2018 02:30:00 3.6 C 5.39 g/m*3 1.06 C 9.7 km/h
2912 20-01-2018 02:35:00 3.6 C 5.39 g/m*3 1.46 C 8.1 km/h
2913 20-01-2018 02:40:00 3.7 C 5.42 g/m*3 0.51 C 12.9 km/h
2914 20-01-2018 02:45:00 3.7 C 5.42 g/m*3 2.09 C 6.4 km/h
2915 20-01-2018 02:50:00 3.7 C 5.42 g/m*3 1.58 C 8.1 km/h
2916 20-01-2018 02:55:00 3.7 C 5.42 g/m*3 1.58 C 8.1 km/h
2917 20-01-2018 03:00:00 3.7 C 5.42 g/m*3 0.51 C 12.9 km/h
2918 20-01-2018 03:05:00 3.7 C 5.42 g/m*3 0.51 C 12.9 km/h
2919 20-01-2018 03:10:00 3.6 C 5.39 g/m*3 0.7 C 11.3 km/h
2920 20-01-2018 03:15:00 3.6 C 5.39 g/m*3 1.06 C 9.7 km/h
2921 20-01-2018 03:20:00 3.6 C 5.39 g/m*3 0.7 C 11.3 km/h
2922 20-01-2018 03:25:00 3.6 C 5.39 g/m*3 1.06 C 9.7 km/h
2923 20-01-2018 03:30:00 3.5 C 5.29 g/m*3 0.58 C 11.3 km/h
2924 20-01-2018 03:35:00 3.4 C 5.25 g/m*3 1.23 C 8.1 km/h
2925 20-01-2018 03:40:00 3.3 C 5.22 g/m*3 0.7 C 9.7 km/h
Sensor: Nr:Datum:Temp:Abs-Feuchte:Windchill:Wind:
Aussen-T/F 2926 20-01-2018 03:45:00 3.3 C 5.22 g/m*3 0.02 C 12.9 km/h
2927 20-01-2018 03:50:00 3.3 C 5.22 g/m*3 1.63 C 6.4 km/h
2928 20-01-2018 03:55:00 3.3 C 5.22 g/m*3 0.34 C 11.3 km/h
2929 20-01-2018 04:00:00 3.3 C 5.22 g/m*3 0.7 C 9.7 km/h
2930 20-01-2018 04:05:00 3.2 C 5.18 g/m*3 1.51 C 6.4 km/h
2931 20-01-2018 04:10:00 3.2 C 5.18 g/m*3 0.99 C 8.1 km/h
2932 20-01-2018 04:15:00 3.2 C 5.24 g/m*3 0.22 C 11.3 km/h
2933 20-01-2018 04:20:00 3.3 C 5.28 g/m*3 0.7 C 9.7 km/h
2934 20-01-2018 04:25:00 3.3 C 5.28 g/m*3 0.34 C 11.3 km/h
2935 20-01-2018 04:30:00 3.3 C 5.28 g/m*3 1.11 C 8.1 km/h
2936 20-01-2018 04:35:00 3.3 C 5.28 g/m*3 0.34 C 11.3 km/h
2937 20-01-2018 04:40:00 3.3 C 5.28 g/m*3 0.7 C 9.7 km/h
2938 20-01-2018 04:45:00 3.3 C 5.34 g/m*3 0.7 C 9.7 km/h
2939 20-01-2018 04:50:00 3.3 C 5.34 g/m*3 1.63 C 6.4 km/h
2940 20-01-2018 04:55:00 3.2 C 5.3 g/m*3 3.2 C 3.2 km/h
2941 20-01-2018 05:00:00 3 C 5.23 g/m*3 0.76 C 8.1 km/h
2942 20-01-2018 05:05:00 2.9 C 5.26 g/m*3 2.9 C 3.2 km/h
2943 20-01-2018 05:10:00 2.7 C 5.19 g/m*3 2.7 C 4.8 km/h
2944 20-01-2018 05:15:00 2.6 C 5.15 g/m*3 2.6 C 4.8 km/h
2945 20-01-2018 05:20:00 2.4 C 5.08 g/m*3 0.59 C 6.4 km/h
2946 20-01-2018 05:25:00 2.3 C 5.1 g/m*3 0.47 C 6.4 km/h
2947 20-01-2018 05:30:00 2.4 C 5.14 g/m*3 0.59 C 6.4 km/h
2948 20-01-2018 05:35:00 2.4 C 5.14 g/m*3 0.05 C 8.1 km/h
2949 20-01-2018 05:40:00 2.4 C 5.14 g/m*3 0.59 C 6.4 km/h
2950 20-01-2018 05:45:00 2.4 C 5.14 g/m*3 -0.37 C 9.7 km/h
Sensor: Nr:Datum:Temp:Abs-Feuchte:Windchill:Wind:
Aussen-T/F 2951 20-01-2018 05:50:00 2.4 C 5.14 g/m*3 2.4 C 4.8 km/h
2952 20-01-2018 05:55:00 2.4 C 5.14 g/m*3 -0.37 C 9.7 km/h
2953 20-01-2018 06:00:00 2.4 C 5.14 g/m*3 0.05 C 8.1 km/h
2954 20-01-2018 06:05:00 2.6 C 5.21 g/m*3 2.6 C 4.8 km/h
2955 20-01-2018 06:10:00 2.6 C 5.21 g/m*3 2.6 C 4.8 km/h
2956 20-01-2018 06:15:00 2.6 C 5.21 g/m*3 2.6 C 4.8 km/h
2957 20-01-2018 06:20:00 2.5 C 5.12 g/m*3 2.5 C 4.8 km/h
2958 20-01-2018 06:25:00 2.4 C 5.08 g/m*3 2.4 C 1.6 km/h
2959 20-01-2018 06:30:00 2.3 C 5.05 g/m*3 2.3 C 1.6 km/h
2960 20-01-2018 06:35:00 2.3 C 5.1 g/m*3 2.3 C 0 km/h
2961 20-01-2018 06:40:00 2.2 C 5.07 g/m*3 2.2 C 3.2 km/h
2962 20-01-2018 06:45:00 2.2 C 5.07 g/m*3 2.2 C 4.8 km/h
2963 20-01-2018 06:50:00 2.2 C 5.13 g/m*3 0.36 C 6.4 km/h
2964 20-01-2018 06:55:00 2.2 C 5.13 g/m*3 2.2 C 4.8 km/h
2965 20-01-2018 07:00:00 2.4 C 5.2 g/m*3 0.59 C 6.4 km/h
2966 20-01-2018 07:05:00 2.5 C 5.23 g/m*3 0.71 C 6.4 km/h
2967 20-01-2018 07:10:00 2.5 C 5.17 g/m*3 2.5 C 4.8 km/h
2968 20-01-2018 07:15:00 2.4 C 5.14 g/m*3 2.4 C 3.2 km/h
2969 20-01-2018 07:20:00 2.3 C 5.1 g/m*3 -0.07 C 8.1 km/h
2970 20-01-2018 07:25:00 2.3 C 5.1 g/m*3 2.3 C 4.8 km/h
2971 20-01-2018 07:30:00 2.3 C 5.1 g/m*3 2.3 C 3.2 km/h
2972 20-01-2018 07:35:00 2.3 C 5.1 g/m*3 0.47 C 6.4 km/h
2973 20-01-2018 07:40:00 2.3 C 5.16 g/m*3 0.47 C 6.4 km/h
2974 20-01-2018 07:45:00 2.4 C 5.14 g/m*3 0.59 C 6.4 km/h
2975 20-01-2018 07:50:00 2.6 C 5.21 g/m*3 2.6 C 4.8 km/h
Sensor: Nr:Datum:Temp:Abs-Feuchte:Windchill:Wind:
Aussen-T/F 2976 20-01-2018 07:55:00 2.7 C 5.19 g/m*3 2.7 C 4.8 km/h
2977 20-01-2018 08:00:00 2.7 C 5.19 g/m*3 0.4 C 8.1 km/h
2978 20-01-2018 08:05:00 2.6 C 5.15 g/m*3 2.6 C 3.2 km/h
2979 20-01-2018 08:10:00 2.6 C 5.15 g/m*3 2.6 C 1.6 km/h
2980 20-01-2018 08:15:00 2.5 C 5.12 g/m*3 2.5 C 3.2 km/h
2981 20-01-2018 08:20:00 2.5 C 5.12 g/m*3 2.5 C 4.8 km/h
2982 20-01-2018 08:25:00 2.5 C 5.17 g/m*3 2.5 C 1.6 km/h
2983 20-01-2018 08:30:00 2.6 C 5.21 g/m*3 2.6 C 3.2 km/h
2984 20-01-2018 08:35:00 2.7 C 5.24 g/m*3 2.7 C 4.8 km/h
2985 20-01-2018 08:40:00 2.8 C 5.28 g/m*3 2.8 C 3.2 km/h
2986 20-01-2018 08:45:00 2.9 C 5.32 g/m*3 2.9 C 3.2 km/h
2987 20-01-2018 08:50:00 3 C 5.35 g/m*3 0.76 C 8.1 km/h
2988 20-01-2018 08:55:00 3 C 5.29 g/m*3 3 C 4.8 km/h
2989 20-01-2018 09:00:00 3.1 C 5.33 g/m*3 0.46 C 9.7 km/h
2990 20-01-2018 09:05:00 3.2 C 5.36 g/m*3 1.51 C 6.4 km/h
2991 20-01-2018 09:10:00 3.2 C 5.36 g/m*3 0.99 C 8.1 km/h
2992 20-01-2018 09:15:00 3.2 C 5.36 g/m*3 3.2 C 3.2 km/h
2993 20-01-2018 09:20:00 3.2 C 5.36 g/m*3 3.2 C 0 km/h
2994 20-01-2018 09:25:00 3.2 C 5.36 g/m*3 3.2 C 3.2 km/h
2995 20-01-2018 09:30:00 3.3 C 5.4 g/m*3 1.63 C 6.4 km/h
2996 20-01-2018 09:35:00 3.3 C 5.4 g/m*3 3.3 C 4.8 km/h
2997 20-01-2018 09:40:00 3.3 C 5.4 g/m*3 1.63 C 6.4 km/h
2998 20-01-2018 09:45:00 3.4 C 5.44 g/m*3 3.4 C 4.8 km/h
2999 20-01-2018 09:50:00 3.6 C 5.51 g/m*3 1.98 C 6.4 km/h
3000 20-01-2018 09:55:00 3.7 C 5.55 g/m*3 3.7 C 4.8 km/h
Sensor: Nr:Datum:Temp:Abs-Feuchte:Windchill:Wind:
Aussen-T/F 3001 20-01-2018 10:00:00 3.8 C 5.58 g/m*3 3.8 C 3.2 km/h
3002 20-01-2018 10:05:00 3.9 C 5.56 g/m*3 2.32 C 6.4 km/h
3003 20-01-2018 10:10:00 4 C 5.59 g/m*3 4 C 3.2 km/h
3004 20-01-2018 10:15:00 4.1 C 5.63 g/m*3 2.05 C 8.1 km/h
3005 20-01-2018 10:20:00 4.2 C 5.67 g/m*3 2.17 C 8.1 km/h
3006 20-01-2018 10:25:00 4.3 C 5.64 g/m*3 2.78 C 6.4 km/h
3007 20-01-2018 10:30:00 4.3 C 5.64 g/m*3 1.89 C 9.7 km/h
3008 20-01-2018 10:35:00 4.4 C 5.68 g/m*3 1.67 C 11.3 km/h
3009 20-01-2018 10:40:00 4.5 C 5.72 g/m*3 3.02 C 6.4 km/h
3010 20-01-2018 10:45:00 4.6 C 5.76 g/m*3 1.91 C 11.3 km/h
3011 20-01-2018 10:50:00 4.6 C 5.76 g/m*3 2.64 C 8.1 km/h
3012 20-01-2018 10:55:00 4.6 C 5.69 g/m*3 2.64 C 8.1 km/h
3013 20-01-2018 11:00:00 4.7 C 5.73 g/m*3 2.37 C 9.7 km/h
3014 20-01-2018 11:05:00 4.7 C 5.8 g/m*3 2.76 C 8.1 km/h
3015 20-01-2018 11:10:00 4.7 C 5.8 g/m*3 2.03 C 11.3 km/h
3016 20-01-2018 11:15:00 4.7 C 5.73 g/m*3 2.76 C 8.1 km/h
3017 20-01-2018 11:20:00 4.8 C 5.77 g/m*3 2.49 C 9.7 km/h
3018 20-01-2018 11:25:00 4.8 C 5.77 g/m*3 3.36 C 6.4 km/h
3019 20-01-2018 11:30:00 4.8 C 5.77 g/m*3 2.15 C 11.3 km/h
3020 20-01-2018 11:35:00 4.9 C 5.81 g/m*3 3.48 C 6.4 km/h
3021 20-01-2018 11:40:00 4.9 C 5.81 g/m*3 4.9 C 1.6 km/h
3022 20-01-2018 11:45:00 5 C 5.84 g/m*3 5 C 1.6 km/h
3023 20-01-2018 11:50:00 5.1 C 5.88 g/m*3 5.1 C 3.2 km/h
3024 20-01-2018 11:55:00 5.1 C 5.88 g/m*3 5.1 C 1.6 km/h
3025 20-01-2018 12:00:00 5.1 C 5.95 g/m*3 3.71 C 6.4 km/h
Sensor: Nr:Datum:Temp:Abs-Feuchte:Windchill:Wind:
Aussen-T/F 3026 20-01-2018 12:05:00 5.1 C 5.95 g/m*3 5.1 C 0 km/h
3027 20-01-2018 12:10:00 5.1 C 5.95 g/m*3 5.1 C 0 km/h
3028 20-01-2018 12:15:00 5.1 C 5.95 g/m*3 5.1 C 1.6 km/h
3029 20-01-2018 12:20:00 5.1 C 6.02 g/m*3 5.1 C 0 km/h
3030 20-01-2018 12:25:00 5 C 6.05 g/m*3 5 C 0 km/h
3031 20-01-2018 12:30:00 4.9 C 5.94 g/m*3 4.9 C 0 km/h
3032 20-01-2018 12:35:00 4.9 C 6.01 g/m*3 4.9 C 0 km/h
3033 20-01-2018 12:40:00 4.9 C 6.08 g/m*3 4.9 C 0 km/h
3034 20-01-2018 12:45:00 4.9 C 6.08 g/m*3 4.9 C 0 km/h
3035 20-01-2018 12:50:00 4.9 C 6.08 g/m*3 4.9 C 0 km/h
3036 20-01-2018 12:55:00 4.9 C 6.08 g/m*3 4.9 C 3.2 km/h
3037 20-01-2018 13:00:00 4.8 C 6.1 g/m*3 4.8 C 0 km/h
3038 20-01-2018 13:05:00 4.8 C 6.1 g/m*3 4.8 C 0 km/h
3039 20-01-2018 13:10:00 4.8 C 6.1 g/m*3 4.8 C 1.6 km/h
3040 20-01-2018 13:15:00 4.8 C 6.1 g/m*3 4.8 C 0 km/h
3041 20-01-2018 13:20:00 4.7 C 6.06 g/m*3 4.7 C 3.2 km/h
3042 20-01-2018 13:25:00 4.6 C 6.02 g/m*3 4.6 C 3.2 km/h
3043 20-01-2018 13:30:00 4.6 C 6.02 g/m*3 4.6 C 3.2 km/h
3044 20-01-2018 13:35:00 4.6 C 6.02 g/m*3 4.6 C 0 km/h
3045 20-01-2018 13:40:00 4.6 C 6.02 g/m*3 4.6 C 1.6 km/h
3046 20-01-2018 13:45:00 4.6 C 6.02 g/m*3 4.6 C 1.6 km/h
3047 20-01-2018 13:50:00 4.5 C 6.05 g/m*3 4.5 C 0 km/h
3048 20-01-2018 13:55:00 4.4 C 6.01 g/m*3 4.4 C 4.8 km/h
3049 20-01-2018 14:00:00 4.4 C 6.01 g/m*3 4.4 C 0 km/h
3050 20-01-2018 14:05:00 4.3 C 5.9 g/m*3 4.3 C 0 km/h
Sensor: Nr:Datum:Temp:Abs-Feuchte:Windchill:Wind:
Aussen-T/F 3051 20-01-2018 14:10:00 4.2 C 5.93 g/m*3 4.2 C 0 km/h
3052 20-01-2018 14:15:00 4.2 C 5.93 g/m*3 4.2 C 0 km/h
3053 20-01-2018 14:20:00 4.2 C 5.93 g/m*3 4.2 C 0 km/h
3054 20-01-2018 14:25:00 4.2 C 5.99 g/m*3 4.2 C 1.6 km/h
3055 20-01-2018 14:30:00 4.1 C 5.95 g/m*3 4.1 C 0 km/h
3056 20-01-2018 14:35:00 4.1 C 5.95 g/m*3 4.1 C 1.6 km/h
3057 20-01-2018 14:40:00 4 C 5.91 g/m*3 4 C 1.6 km/h
3058 20-01-2018 14:45:00 3.9 C 5.87 g/m*3 3.9 C 3.2 km/h
3059 20-01-2018 14:50:00 3.8 C 5.83 g/m*3 3.8 C 1.6 km/h
3060 20-01-2018 14:55:00 3.8 C 5.83 g/m*3 3.8 C 1.6 km/h
3061 20-01-2018 15:00:00 3.7 C 5.8 g/m*3 3.7 C 4.8 km/h
3062 20-01-2018 15:05:00 3.6 C 5.76 g/m*3 3.6 C 1.6 km/h
3063 20-01-2018 15:10:00 3.5 C 5.72 g/m*3 3.5 C 1.6 km/h
3064 20-01-2018 15:15:00 3.4 C 5.68 g/m*3 3.4 C 1.6 km/h
3065 20-01-2018 15:20:00 3.4 C 5.68 g/m*3 3.4 C 3.2 km/h
3066 20-01-2018 15:25:00 3.3 C 5.7 g/m*3 3.3 C 1.6 km/h
3067 20-01-2018 15:30:00 3.3 C 5.7 g/m*3 3.3 C 0 km/h
3068 20-01-2018 15:35:00 3.2 C 5.66 g/m*3 3.2 C 1.6 km/h
3069 20-01-2018 15:40:00 3.2 C 5.66 g/m*3 3.2 C 0 km/h
3070 20-01-2018 15:45:00 3.2 C 5.66 g/m*3 3.2 C 0 km/h
3071 20-01-2018 15:50:00 3.1 C 5.63 g/m*3 3.1 C 0 km/h
3072 20-01-2018 15:55:00 3 C 5.59 g/m*3 3 C 0 km/h
3073 20-01-2018 16:00:00 2.9 C 5.49 g/m*3 2.9 C 1.6 km/h
3074 20-01-2018 16:05:00 2.8 C 5.46 g/m*3 2.8 C 0 km/h
3075 20-01-2018 16:10:00 2.7 C 5.42 g/m*3 2.7 C 0 km/h
Sensor: Nr:Datum:Temp:Abs-Feuchte:Windchill:Wind:
Aussen-T/F 3076 20-01-2018 16:15:00 2.6 C 5.44 g/m*3 2.6 C 0 km/h
3077 20-01-2018 16:20:00 2.4 C 5.37 g/m*3 2.4 C 0 km/h
3078 20-01-2018 16:25:00 2.3 C 5.33 g/m*3 2.3 C 0 km/h
3079 20-01-2018 16:30:00 2.3 C 5.33 g/m*3 2.3 C 0 km/h
3080 20-01-2018 16:35:00 2.2 C 5.29 g/m*3 2.2 C 0 km/h
3081 20-01-2018 16:40:00 2.2 C 5.29 g/m*3 2.2 C 0 km/h
3082 20-01-2018 16:45:00 2.1 C 5.26 g/m*3 2.1 C 0 km/h
3083 20-01-2018 16:50:00 2.2 C 5.29 g/m*3 2.2 C 0 km/h
3084 20-01-2018 16:55:00 2.2 C 5.29 g/m*3 2.2 C 0 km/h
3085 20-01-2018 17:00:00 2.2 C 5.35 g/m*3 2.2 C 0 km/h
3086 20-01-2018 17:05:00 2.2 C 5.35 g/m*3 2.2 C 1.6 km/h
3087 20-01-2018 17:10:00 2.2 C 5.35 g/m*3 2.2 C 0 km/h
3088 20-01-2018 17:15:00 2.2 C 5.35 g/m*3 2.2 C 0 km/h
3089 20-01-2018 17:20:00 2.2 C 5.35 g/m*3 2.2 C 1.6 km/h
3090 20-01-2018 17:25:00 2.2 C 5.35 g/m*3 2.2 C 3.2 km/h
3091 20-01-2018 17:30:00 2.2 C 5.35 g/m*3 2.2 C 0 km/h
3092 20-01-2018 17:35:00 2.2 C 5.35 g/m*3 2.2 C 0 km/h
3093 20-01-2018 17:40:00 2.2 C 5.35 g/m*3 2.2 C 0 km/h
3094 20-01-2018 17:45:00 2.2 C 5.35 g/m*3 2.2 C 0 km/h
3095 20-01-2018 17:50:00 2.2 C 5.35 g/m*3 2.2 C 4.8 km/h
3096 20-01-2018 17:55:00 2.2 C 5.35 g/m*3 2.2 C 0 km/h
3097 20-01-2018 18:00:00 2.2 C 5.35 g/m*3 2.2 C 0 km/h
3098 20-01-2018 18:05:00 2.2 C 5.35 g/m*3 2.2 C 0 km/h
3099 20-01-2018 18:10:00 2.2 C 5.35 g/m*3 2.2 C 0 km/h
3100 20-01-2018 18:15:00 2.2 C 5.35 g/m*3 2.2 C 0 km/h
Sensor: Nr:Datum:Temp:Abs-Feuchte:Windchill:Wind:
Aussen-T/F 3101 20-01-2018 18:20:00 2.2 C 5.35 g/m*3 2.2 C 1.6 km/h
3102 20-01-2018 18:25:00 2.1 C 5.31 g/m*3 2.1 C 0 km/h
3103 20-01-2018 18:30:00 2.1 C 5.31 g/m*3 2.1 C 0 km/h
3104 20-01-2018 18:35:00 2.1 C 5.31 g/m*3 2.1 C 0 km/h
3105 20-01-2018 18:40:00 2.1 C 5.37 g/m*3 2.1 C 0 km/h
3106 20-01-2018 18:45:00 2.1 C 5.31 g/m*3 2.1 C 0 km/h
3107 20-01-2018 18:50:00 2.1 C 5.31 g/m*3 2.1 C 0 km/h
3108 20-01-2018 18:55:00 2.1 C 5.31 g/m*3 2.1 C 0 km/h
3109 20-01-2018 19:00:00 2.1 C 5.31 g/m*3 2.1 C 0 km/h
3110 20-01-2018 19:05:00 2.1 C 5.31 g/m*3 2.1 C 0 km/h
3111 20-01-2018 19:10:00 2.1 C 5.31 g/m*3 2.1 C 0 km/h
3112 20-01-2018 19:15:00 2.1 C 5.31 g/m*3 2.1 C 0 km/h
3113 20-01-2018 19:20:00 2.1 C 5.37 g/m*3 2.1 C 0 km/h
3114 20-01-2018 19:25:00 2.1 C 5.37 g/m*3 2.1 C 0 km/h
3115 20-01-2018 19:30:00 2.1 C 5.37 g/m*3 2.1 C 0 km/h
3116 20-01-2018 19:35:00 2.1 C 5.37 g/m*3 2.1 C 0 km/h
3117 20-01-2018 19:40:00 2.1 C 5.37 g/m*3 2.1 C 0 km/h
3118 20-01-2018 19:45:00 2.1 C 5.37 g/m*3 2.1 C 0 km/h
3119 20-01-2018 19:50:00 2.1 C 5.37 g/m*3 2.1 C 0 km/h
3120 20-01-2018 19:55:00 2.2 C 5.41 g/m*3 2.2 C 0 km/h
3121 20-01-2018 20:00:00 2.1 C 5.37 g/m*3 2.1 C 0 km/h
3122 20-01-2018 20:05:00 2.1 C 5.37 g/m*3 2.1 C 0 km/h
3123 20-01-2018 20:10:00 2.1 C 5.37 g/m*3 2.1 C 0 km/h
3124 20-01-2018 20:15:00 2.1 C 5.37 g/m*3 2.1 C 0 km/h
3125 20-01-2018 20:20:00 2.1 C 5.37 g/m*3 2.1 C 0 km/h
Sensor: Nr:Datum:Temp:Abs-Feuchte:Windchill:Wind:
Aussen-T/F 3126 20-01-2018 20:25:00 2.1 C 5.37 g/m*3 2.1 C 0 km/h
3127 20-01-2018 20:30:00 2.1 C 5.37 g/m*3 2.1 C 0 km/h
3128 20-01-2018 20:35:00 2.1 C 5.37 g/m*3 2.1 C 0 km/h
3129 20-01-2018 20:40:00 2.2 C 5.41 g/m*3 2.2 C 0 km/h
3130 20-01-2018 20:45:00 2.2 C 5.41 g/m*3 2.2 C 0 km/h
3131 20-01-2018 20:50:00 2.2 C 5.41 g/m*3 2.2 C 0 km/h
3132 20-01-2018 20:55:00 2.2 C 5.41 g/m*3 2.2 C 0 km/h
3133 20-01-2018 21:00:00 2.2 C 5.41 g/m*3 2.2 C 0 km/h
3134 20-01-2018 21:05:00 2.2 C 5.41 g/m*3 2.2 C 0 km/h
3135 20-01-2018 21:10:00 2.2 C 5.41 g/m*3 2.2 C 0 km/h
3136 20-01-2018 21:15:00 2.2 C 5.41 g/m*3 2.2 C 0 km/h
3137 20-01-2018 21:20:00 2.2 C 5.41 g/m*3 2.2 C 0 km/h
3138 20-01-2018 21:25:00 2.2 C 5.41 g/m*3 2.2 C 0 km/h
3139 20-01-2018 21:30:00 2.2 C 5.41 g/m*3 2.2 C 0 km/h
3140 20-01-2018 21:35:00 2.2 C 5.41 g/m*3 2.2 C 0 km/h
3141 20-01-2018 21:40:00 2.2 C 5.41 g/m*3 2.2 C 0 km/h
3142 20-01-2018 21:45:00 2.2 C 5.41 g/m*3 2.2 C 0 km/h
3143 20-01-2018 21:50:00 2.2 C 5.41 g/m*3 2.2 C 0 km/h
3144 20-01-2018 21:55:00 2.2 C 5.41 g/m*3 2.2 C 0 km/h
3145 20-01-2018 22:00:00 2.2 C 5.41 g/m*3 2.2 C 0 km/h
3146 20-01-2018 22:05:00 2.2 C 5.41 g/m*3 2.2 C 0 km/h
3147 20-01-2018 22:10:00 2.1 C 5.37 g/m*3 2.1 C 0 km/h
3148 20-01-2018 22:15:00 2.1 C 5.37 g/m*3 2.1 C 0 km/h
3149 20-01-2018 22:20:00 2.1 C 5.37 g/m*3 2.1 C 0 km/h
3150 20-01-2018 22:25:00 2.1 C 5.37 g/m*3 2.1 C 0 km/h
Sensor: Nr:Datum:Temp:Abs-Feuchte:Windchill:Wind:
Aussen-T/F 3151 20-01-2018 22:30:00 2.1 C 5.37 g/m*3 2.1 C 0 km/h
3152 20-01-2018 22:35:00 2.1 C 5.37 g/m*3 2.1 C 0 km/h
3153 20-01-2018 22:40:00 2.1 C 5.37 g/m*3 2.1 C 0 km/h
3154 20-01-2018 22:45:00 2 C 5.33 g/m*3 2 C 0 km/h
3155 20-01-2018 22:50:00 2 C 5.33 g/m*3 2 C 0 km/h
3156 20-01-2018 22:55:00 1.9 C 5.3 g/m*3 1.9 C 0 km/h
3157 20-01-2018 23:00:00 1.9 C 5.3 g/m*3 1.9 C 0 km/h
3158 20-01-2018 23:05:00 1.9 C 5.3 g/m*3 1.9 C 0 km/h
3159 20-01-2018 23:10:00 1.9 C 5.3 g/m*3 1.9 C 0 km/h
3160 20-01-2018 23:15:00 1.9 C 5.3 g/m*3 1.9 C 0 km/h
3161 20-01-2018 23:20:00 1.9 C 5.3 g/m*3 1.9 C 0 km/h
3162 20-01-2018 23:25:00 1.9 C 5.3 g/m*3 1.9 C 0 km/h
3163 20-01-2018 23:30:00 1.9 C 5.3 g/m*3 1.9 C 0 km/h
3164 20-01-2018 23:35:00 1.9 C 5.3 g/m*3 1.9 C 0 km/h
3165 20-01-2018 23:40:00 1.9 C 5.3 g/m*3 1.9 C 0 km/h
3166 20-01-2018 23:45:00 2 C 5.33 g/m*3 2 C 0 km/h
3167 20-01-2018 23:50:00 2.1 C 5.37 g/m*3 2.1 C 0 km/h
3168 20-01-2018 23:55:00 2.1 C 5.37 g/m*3 2.1 C 0 km/h
3169 21-01-2018 00:00:00 2.1 C 5.37 g/m*3 2.1 C 0 km/h
3170 21-01-2018 00:05:00 2.2 C 5.41 g/m*3 2.2 C 0 km/h
3171 21-01-2018 00:10:00 2.2 C 5.41 g/m*3 2.2 C 1.6 km/h
3172 21-01-2018 00:15:00 2.2 C 5.41 g/m*3 2.2 C 1.6 km/h
3173 21-01-2018 00:20:00 2.2 C 5.41 g/m*3 2.2 C 4.8 km/h
3174 21-01-2018 00:25:00 2.3 C 5.44 g/m*3 2.3 C 4.8 km/h
3175 21-01-2018 00:30:00 2.3 C 5.44 g/m*3 2.3 C 4.8 km/h
Sensor: Nr:Datum:Temp:Abs-Feuchte:Windchill:Wind:
Aussen-T/F 3176 21-01-2018 00:35:00 2.3 C 5.44 g/m*3 2.3 C 3.2 km/h
3177 21-01-2018 00:40:00 2.3 C 5.44 g/m*3 -0.07 C 8.1 km/h
3178 21-01-2018 00:45:00 2.3 C 5.44 g/m*3 -0.49 C 9.7 km/h
3179 21-01-2018 00:50:00 2.3 C 5.44 g/m*3 2.3 C 3.2 km/h
3180 21-01-2018 00:55:00 2.4 C 5.48 g/m*3 2.4 C 3.2 km/h
3181 21-01-2018 01:00:00 2.4 C 5.48 g/m*3 0.05 C 8.1 km/h
3182 21-01-2018 01:05:00 2.4 C 5.48 g/m*3 2.4 C 4.8 km/h
3183 21-01-2018 01:10:00 2.4 C 5.48 g/m*3 0.05 C 8.1 km/h
3184 21-01-2018 01:15:00 2.4 C 5.48 g/m*3 0.59 C 6.4 km/h
3185 21-01-2018 01:20:00 2.4 C 5.48 g/m*3 2.4 C 4.8 km/h
3186 21-01-2018 01:25:00 2.4 C 5.48 g/m*3 0.05 C 8.1 km/h
3187 21-01-2018 01:30:00 2.4 C 5.48 g/m*3 0.05 C 8.1 km/h
3188 21-01-2018 01:35:00 2.4 C 5.48 g/m*3 2.4 C 4.8 km/h
3189 21-01-2018 01:40:00 2.4 C 5.48 g/m*3 2.4 C 1.6 km/h
3190 21-01-2018 01:45:00 2.5 C 5.52 g/m*3 0.17 C 8.1 km/h
3191 21-01-2018 01:50:00 2.5 C 5.52 g/m*3 2.5 C 0 km/h
3192 21-01-2018 01:55:00 2.5 C 5.52 g/m*3 2.5 C 0 km/h
3193 21-01-2018 02:00:00 2.5 C 5.52 g/m*3 2.5 C 0 km/h
3194 21-01-2018 02:05:00 2.5 C 5.52 g/m*3 2.5 C 0 km/h
3195 21-01-2018 02:10:00 2.6 C 5.56 g/m*3 2.6 C 0 km/h
3196 21-01-2018 02:15:00 2.6 C 5.56 g/m*3 2.6 C 0 km/h
3197 21-01-2018 02:20:00 2.6 C 5.56 g/m*3 2.6 C 0 km/h
3198 21-01-2018 02:25:00 2.6 C 5.56 g/m*3 -0.83 C 12.9 km/h
3199 21-01-2018 02:30:00 2.6 C 5.56 g/m*3 0.29 C 8.1 km/h
3200 21-01-2018 02:35:00 2.6 C 5.56 g/m*3 -0.14 C 9.7 km/h
Sensor: Nr:Datum:Temp:Abs-Feuchte:Windchill:Wind:
Aussen-T/F 3201 21-01-2018 02:40:00 2.6 C 5.56 g/m*3 2.6 C 4.8 km/h
3202 21-01-2018 02:45:00 2.6 C 5.56 g/m*3 -0.14 C 9.7 km/h
3203 21-01-2018 02:50:00 2.6 C 5.56 g/m*3 -0.14 C 9.7 km/h
3204 21-01-2018 02:55:00 2.6 C 5.56 g/m*3 -0.5 C 11.3 km/h
3205 21-01-2018 03:00:00 2.6 C 5.56 g/m*3 0.29 C 8.1 km/h
3206 21-01-2018 03:05:00 2.6 C 5.56 g/m*3 0.29 C 8.1 km/h
3207 21-01-2018 03:10:00 2.6 C 5.56 g/m*3 2.6 C 4.8 km/h
3208 21-01-2018 03:15:00 2.6 C 5.56 g/m*3 0.29 C 8.1 km/h
3209 21-01-2018 03:20:00 2.6 C 5.56 g/m*3 0.29 C 8.1 km/h
3210 21-01-2018 03:25:00 2.6 C 5.56 g/m*3 2.6 C 4.8 km/h
3211 21-01-2018 03:30:00 2.6 C 5.56 g/m*3 -0.14 C 9.7 km/h
3212 21-01-2018 03:35:00 2.6 C 5.56 g/m*3 0.29 C 8.1 km/h
3213 21-01-2018 03:40:00 2.6 C 5.56 g/m*3 -0.5 C 11.3 km/h
3214 21-01-2018 03:45:00 2.6 C 5.56 g/m*3 0.82 C 6.4 km/h
3215 21-01-2018 03:50:00 2.6 C 5.56 g/m*3 0.82 C 6.4 km/h
3216 21-01-2018 03:55:00 2.6 C 5.56 g/m*3 -0.14 C 9.7 km/h
3217 21-01-2018 04:00:00 2.6 C 5.56 g/m*3 0.29 C 8.1 km/h
3218 21-01-2018 04:05:00 2.6 C 5.56 g/m*3 -0.14 C 9.7 km/h
3219 21-01-2018 04:10:00 2.7 C 5.54 g/m*3 -0.02 C 9.7 km/h
3220 21-01-2018 04:15:00 2.7 C 5.54 g/m*3 0.94 C 6.4 km/h
3221 21-01-2018 04:20:00 2.7 C 5.54 g/m*3 0.4 C 8.1 km/h
3222 21-01-2018 04:25:00 2.7 C 5.54 g/m*3 2.7 C 1.6 km/h
3223 21-01-2018 04:30:00 2.7 C 5.54 g/m*3 0.94 C 6.4 km/h
3224 21-01-2018 04:35:00 2.7 C 5.54 g/m*3 -0.02 C 9.7 km/h
3225 21-01-2018 04:40:00 2.7 C 5.54 g/m*3 2.7 C 4.8 km/h
Sensor: Nr:Datum:Temp:Abs-Feuchte:Windchill:Wind:
Aussen-T/F 3226 21-01-2018 04:45:00 2.7 C 5.54 g/m*3 0.4 C 8.1 km/h
3227 21-01-2018 04:50:00 2.7 C 5.54 g/m*3 0.94 C 6.4 km/h
3228 21-01-2018 04:55:00 2.7 C 5.54 g/m*3 0.94 C 6.4 km/h
3229 21-01-2018 05:00:00 2.7 C 5.54 g/m*3 -0.02 C 9.7 km/h
3230 21-01-2018 05:05:00